<?xml version='1.0' encoding='UTF-8'?><gpx creator="YAMAP - https://yamap.com" xsi:schemaLocation="http://www.topografix.com/GPX/1/1 http://www.topografix.com/GPX/1/1/gpx.xsd" version="1.1" xmlns="http://www.topografix.com/GPX/1/1" xmlns:xsi="http://www.w3.org/2001/XMLSchema-instance">
<metadata><bounds maxlat="34.850873485561344" maxlon="134.16532054769257" minlat="34.79907976014526" minlon="134.11754752562263"/></metadata>
<trk>
<name>WAT2027 MIDDLE</name>
<number>1</number>
<trkseg>
<trkpt lat="34.81164645405453" lon="134.14311233514297"><ele>24.318050211889826</ele><time>2026-08-10T21:50:10Z</time></trkpt>
<trkpt lat="34.811581496436155" lon="134.14290298109015"><ele>24.01048565004021</ele><time>2026-08-10T21:51:31Z</time></trkpt>
<trkpt lat="34.81175072351911" lon="134.14301397412314"><ele>22.803411317057908</ele><time>2026-08-10T21:52:02Z</time></trkpt>
<trkpt lat="34.811700727786835" lon="134.14279888506502"><ele>22.736227912828326</ele><time>2026-08-10T21:52:11Z</time></trkpt>
<trkpt lat="34.8116614904088" lon="134.14303830770217"><ele>22.91421336121857</ele><time>2026-08-10T21:52:23Z</time></trkpt>
<trkpt lat="34.81149223303786" lon="134.14312626798556"><ele>22.917444101534784</ele><time>2026-08-10T21:52:25Z</time></trkpt>
<trkpt lat="34.81157680741647" lon="134.1430493110078"><ele>22.712644102983177</ele><time>2026-08-10T21:52:31Z</time></trkpt>
<trkpt lat="34.8115989850533" lon="134.14285164380797"><ele>24.589656389318407</ele><time>2026-08-10T21:52:34Z</time></trkpt>
<trkpt lat="34.811426798783934" lon="134.14276497784084"><ele>28.757724813185632</ele><time>2026-08-10T21:52:43Z</time></trkpt>
<trkpt lat="34.81124376278667" lon="134.1427011223791"><ele>26.260584011673927</ele><time>2026-08-10T21:52:57Z</time></trkpt>
<trkpt lat="34.811389003088536" lon="134.1425660249172"><ele>24.85250144544989</ele><time>2026-08-10T21:53:18Z</time></trkpt>
<trkpt lat="34.81156308737046" lon="134.1424748018616"><ele>24.764278701506555</ele><time>2026-08-10T21:53:29Z</time></trkpt>
<trkpt lat="34.81175193716281" lon="134.14239139250284"><ele>24.442711152136326</ele><time>2026-08-10T21:53:38Z</time></trkpt>
<trkpt lat="34.81192742496158" lon="134.14231989700076"><ele>24.44028040394187</ele><time>2026-08-10T21:53:47Z</time></trkpt>
<trkpt lat="34.812100365685545" lon="134.14224688438867"><ele>24.93137902766466</ele><time>2026-08-10T21:53:56Z</time></trkpt>
<trkpt lat="34.81227455644094" lon="134.1421885993576"><ele>23.812823454849422</ele><time>2026-08-10T21:54:05Z</time></trkpt>
<trkpt lat="34.812457290728915" lon="134.14211196063772"><ele>21.40211306232959</ele><time>2026-08-10T21:54:15Z</time></trkpt>
<trkpt lat="34.81263602836778" lon="134.14201031792408"><ele>22.84203968476504</ele><time>2026-08-10T21:54:22Z</time></trkpt>
<trkpt lat="34.812818173829925" lon="134.14193023815452"><ele>23.142510671168566</ele><time>2026-08-10T21:54:31Z</time></trkpt>
<trkpt lat="34.81298770645652" lon="134.14185127527952"><ele>21.447475749067962</ele><time>2026-08-10T21:54:39Z</time></trkpt>
<trkpt lat="34.8131662113753" lon="134.1417616064815"><ele>20.539435973390937</ele><time>2026-08-10T21:54:48Z</time></trkpt>
<trkpt lat="34.81333661458028" lon="134.14168251135834"><ele>20.969395444728434</ele><time>2026-08-10T21:54:56Z</time></trkpt>
<trkpt lat="34.813515413016894" lon="134.14160194292614"><ele>22.098544453270733</ele><time>2026-08-10T21:55:05Z</time></trkpt>
<trkpt lat="34.81369493438708" lon="134.14152629057256"><ele>22.986849861219525</ele><time>2026-08-10T21:55:14Z</time></trkpt>
<trkpt lat="34.81387284851273" lon="134.14143706304654"><ele>23.103334746323526</ele><time>2026-08-10T21:55:23Z</time></trkpt>
<trkpt lat="34.814052187169885" lon="134.14136918940522"><ele>22.32517193071544</ele><time>2026-08-10T21:55:32Z</time></trkpt>
<trkpt lat="34.81422896623261" lon="134.14128905386139"><ele>22.03606469836086</ele><time>2026-08-10T21:55:41Z</time></trkpt>
<trkpt lat="34.81441862252678" lon="134.14120293073125"><ele>21.046960532665253</ele><time>2026-08-10T21:55:50Z</time></trkpt>
<trkpt lat="34.81459259380534" lon="134.14112998373034"><ele>22.31325193773955</ele><time>2026-08-10T21:55:59Z</time></trkpt>
<trkpt lat="34.81477659649769" lon="134.14105881170389"><ele>21.893033975735307</ele><time>2026-08-10T21:56:08Z</time></trkpt>
<trkpt lat="34.81494731742742" lon="134.14096719778013"><ele>24.14682658482343</ele><time>2026-08-10T21:56:18Z</time></trkpt>
<trkpt lat="34.81512308505695" lon="134.1408755704824"><ele>24.059914914891124</ele><time>2026-08-10T21:56:27Z</time></trkpt>
<trkpt lat="34.81529136207543" lon="134.14076961121492"><ele>23.26080885902047</ele><time>2026-08-10T21:56:36Z</time></trkpt>
<trkpt lat="34.815471966826024" lon="134.14068881203482"><ele>23.402691869996488</ele><time>2026-08-10T21:56:46Z</time></trkpt>
<trkpt lat="34.81564823631387" lon="134.14060538773904"><ele>23.58647891227156</ele><time>2026-08-10T21:56:55Z</time></trkpt>
<trkpt lat="34.8158198667365" lon="134.14052707984445"><ele>24.018609618768096</ele><time>2026-08-10T21:57:04Z</time></trkpt>
<trkpt lat="34.81600519808243" lon="134.14044700522558"><ele>24.065047993324697</ele><time>2026-08-10T21:57:13Z</time></trkpt>
<trkpt lat="34.81617526075148" lon="134.1403584385827"><ele>22.99460074491799</ele><time>2026-08-10T21:57:22Z</time></trkpt>
<trkpt lat="34.81633684788509" lon="134.14025956923408"><ele>23.09456804022193</ele><time>2026-08-10T21:57:30Z</time></trkpt>
<trkpt lat="34.816519635449154" lon="134.14017708151448"><ele>23.536033047363162</ele><time>2026-08-10T21:57:42Z</time></trkpt>
<trkpt lat="34.81670229877094" lon="134.14009840711395"><ele>23.854168952442706</ele><time>2026-08-10T21:57:52Z</time></trkpt>
<trkpt lat="34.81687824360331" lon="134.14001959662738"><ele>23.38672226667404</ele><time>2026-08-10T21:58:02Z</time></trkpt>
<trkpt lat="34.81706223669675" lon="134.1399365122375"><ele>23.996424726210535</ele><time>2026-08-10T21:58:11Z</time></trkpt>
<trkpt lat="34.81723069244996" lon="134.13984664410273"><ele>24.739991459064186</ele><time>2026-08-10T21:58:20Z</time></trkpt>
<trkpt lat="34.81741462163492" lon="134.13975887498663"><ele>24.788232871331275</ele><time>2026-08-10T21:58:30Z</time></trkpt>
<trkpt lat="34.81759711227526" lon="134.13967625969414"><ele>24.720398384146392</ele><time>2026-08-10T21:58:40Z</time></trkpt>
<trkpt lat="34.81777681413087" lon="134.13958431512535"><ele>25.444887276738882</ele><time>2026-08-10T21:58:49Z</time></trkpt>
<trkpt lat="34.81794414204576" lon="134.13950191922171"><ele>25.91159416269511</ele><time>2026-08-10T21:58:57Z</time></trkpt>
<trkpt lat="34.81811288878621" lon="134.1394119005226"><ele>26.538494168780744</ele><time>2026-08-10T21:59:06Z</time></trkpt>
<trkpt lat="34.818299941876276" lon="134.13931435840163"><ele>25.865856983698905</ele><time>2026-08-10T21:59:15Z</time></trkpt>
<trkpt lat="34.81847917576057" lon="134.13920690600176"><ele>24.362180749885738</ele><time>2026-08-10T21:59:24Z</time></trkpt>
<trkpt lat="34.81863450676664" lon="134.13906374259852"><ele>25.422524035908282</ele><time>2026-08-10T21:59:33Z</time></trkpt>
<trkpt lat="34.818801905343314" lon="134.13893911025684"><ele>25.151846151798964</ele><time>2026-08-10T21:59:42Z</time></trkpt>
<trkpt lat="34.81894399857262" lon="134.13877498455915"><ele>24.457635462284088</ele><time>2026-08-10T21:59:51Z</time></trkpt>
<trkpt lat="34.819075896007575" lon="134.13860206448084"><ele>25.160531722009182</ele><time>2026-08-10T22:00:00Z</time></trkpt>
<trkpt lat="34.81919522736646" lon="134.13843466979733"><ele>25.71220987662673</ele><time>2026-08-10T22:00:09Z</time></trkpt>
<trkpt lat="34.819312919178664" lon="134.13825910843843"><ele>26.966560556553304</ele><time>2026-08-10T22:00:18Z</time></trkpt>
<trkpt lat="34.819414435002194" lon="134.13807653859575"><ele>28.020267845131457</ele><time>2026-08-10T22:00:26Z</time></trkpt>
<trkpt lat="34.819536217845005" lon="134.1378867937417"><ele>25.715612727217376</ele><time>2026-08-10T22:00:35Z</time></trkpt>
<trkpt lat="34.819654659674285" lon="134.13771585933992"><ele>25.5440333802253</ele><time>2026-08-10T22:00:43Z</time></trkpt>
<trkpt lat="34.81978435166603" lon="134.13755786345726"><ele>26.394128118641675</ele><time>2026-08-10T22:00:52Z</time></trkpt>
<trkpt lat="34.819900416891656" lon="134.13736088513016"><ele>27.10595660377294</ele><time>2026-08-10T22:01:00Z</time></trkpt>
<trkpt lat="34.82004295307798" lon="134.13721438193016"><ele>27.537766568362713</ele><time>2026-08-10T22:01:09Z</time></trkpt>
<trkpt lat="34.82017475674897" lon="134.13704169800005"><ele>27.948216467164457</ele><time>2026-08-10T22:01:18Z</time></trkpt>
<trkpt lat="34.82033586959504" lon="134.13691815115038"><ele>27.97203614190221</ele><time>2026-08-10T22:01:27Z</time></trkpt>
<trkpt lat="34.82048725390663" lon="134.136787152587"><ele>27.582817543298006</ele><time>2026-08-10T22:01:36Z</time></trkpt>
<trkpt lat="34.82063310059352" lon="134.1366485659126"><ele>27.662064694799483</ele><time>2026-08-10T22:01:44Z</time></trkpt>
<trkpt lat="34.82079404879766" lon="134.1365206823963"><ele>27.76635419111699</ele><time>2026-08-10T22:01:53Z</time></trkpt>
<trkpt lat="34.820968039977636" lon="134.13645029613608"><ele>27.713684991002083</ele><time>2026-08-10T22:02:01Z</time></trkpt>
<trkpt lat="34.821131864652536" lon="134.1363531761862"><ele>28.057671265676618</ele><time>2026-08-10T22:02:09Z</time></trkpt>
<trkpt lat="34.82124570951714" lon="134.13617700948492"><ele>28.32518633734435</ele><time>2026-08-10T22:02:19Z</time></trkpt>
<trkpt lat="34.821440665413796" lon="134.1361586797332"><ele>28.63386447355151</ele><time>2026-08-10T22:02:25Z</time></trkpt>
<trkpt lat="34.821624437860415" lon="134.13613313768397"><ele>28.630961081944406</ele><time>2026-08-10T22:02:32Z</time></trkpt>
<trkpt lat="34.821810285719984" lon="134.13603835795837"><ele>29.21838935557753</ele><time>2026-08-10T22:02:40Z</time></trkpt>
<trkpt lat="34.82201126202366" lon="134.13599497264636"><ele>28.92651038710028</ele><time>2026-08-10T22:02:49Z</time></trkpt>
<trkpt lat="34.82219251532264" lon="134.135889845131"><ele>29.182901084423065</ele><time>2026-08-10T22:02:58Z</time></trkpt>
<trkpt lat="34.82236112154915" lon="134.1358100123512"><ele>29.23650067858398</ele><time>2026-08-10T22:03:06Z</time></trkpt>
<trkpt lat="34.822536893599064" lon="134.13572755578826"><ele>29.44219015724957</ele><time>2026-08-10T22:03:15Z</time></trkpt>
<trkpt lat="34.82273300192331" lon="134.13567501009018"><ele>29.775961063802242</ele><time>2026-08-10T22:03:24Z</time></trkpt>
<trkpt lat="34.82291847056337" lon="134.1355874071871"><ele>31.026635630056262</ele><time>2026-08-10T22:03:33Z</time></trkpt>
<trkpt lat="34.82311085314478" lon="134.13549976697047"><ele>31.376154729165137</ele><time>2026-08-10T22:03:42Z</time></trkpt>
<trkpt lat="34.823293243594385" lon="134.13542022611617"><ele>31.543586228974164</ele><time>2026-08-10T22:03:51Z</time></trkpt>
<trkpt lat="34.82348460291158" lon="134.13534724128243"><ele>31.456334735266864</ele><time>2026-08-10T22:04:00Z</time></trkpt>
<trkpt lat="34.8236490048511" lon="134.13525383311924"><ele>31.097184233367443</ele><time>2026-08-10T22:04:08Z</time></trkpt>
<trkpt lat="34.82383173681997" lon="134.13515670782098"><ele>31.375559543259442</ele><time>2026-08-10T22:04:17Z</time></trkpt>
<trkpt lat="34.824020872765004" lon="134.1351146769878"><ele>30.97338637430221</ele><time>2026-08-10T22:04:25Z</time></trkpt>
<trkpt lat="34.82419363135518" lon="134.13504262197495"><ele>31.77418878208846</ele><time>2026-08-10T22:04:33Z</time></trkpt>
<trkpt lat="34.82436884195097" lon="134.13496572311735"><ele>30.911398318596184</ele><time>2026-08-10T22:04:42Z</time></trkpt>
<trkpt lat="34.824538454370554" lon="134.13488843084713"><ele>29.68087700381875</ele><time>2026-08-10T22:04:50Z</time></trkpt>
<trkpt lat="34.82471507600108" lon="134.1348294421746"><ele>29.632607667706907</ele><time>2026-08-10T22:04:58Z</time></trkpt>
<trkpt lat="34.82489814654644" lon="134.13476466494916"><ele>29.318382032215595</ele><time>2026-08-10T22:05:06Z</time></trkpt>
<trkpt lat="34.825093727564685" lon="134.13467690291725"><ele>29.050867730751634</ele><time>2026-08-10T22:05:15Z</time></trkpt>
<trkpt lat="34.82526732335011" lon="134.13460215221613"><ele>28.010614533908665</ele><time>2026-08-10T22:05:23Z</time></trkpt>
<trkpt lat="34.825450293738" lon="134.13455857794597"><ele>27.699188893660903</ele><time>2026-08-10T22:05:31Z</time></trkpt>
<trkpt lat="34.82562822091176" lon="134.13449837262326"><ele>28.348132052458823</ele><time>2026-08-10T22:05:39Z</time></trkpt>
<trkpt lat="34.825797219460334" lon="134.13440976590445"><ele>28.892242761328816</ele><time>2026-08-10T22:05:47Z</time></trkpt>
<trkpt lat="34.825979604764804" lon="134.1343382874119"><ele>27.548583446070552</ele><time>2026-08-10T22:05:56Z</time></trkpt>
<trkpt lat="34.8261730816202" lon="134.1342617604412"><ele>29.498749217018485</ele><time>2026-08-10T22:06:05Z</time></trkpt>
<trkpt lat="34.8263671570171" lon="134.1342057595346"><ele>29.88283726759255</ele><time>2026-08-10T22:06:14Z</time></trkpt>
<trkpt lat="34.82655094972871" lon="134.1341314327877"><ele>30.41890307329595</ele><time>2026-08-10T22:06:23Z</time></trkpt>
<trkpt lat="34.82672900511765" lon="134.13405798815202"><ele>33.24116918630898</ele><time>2026-08-10T22:06:31Z</time></trkpt>
<trkpt lat="34.826912075881104" lon="134.13397940293885"><ele>32.44094184041023</ele><time>2026-08-10T22:06:40Z</time></trkpt>
<trkpt lat="34.82709302032198" lon="134.13392282882558"><ele>34.25358789321035</ele><time>2026-08-10T22:06:49Z</time></trkpt>
<trkpt lat="34.827266951383486" lon="134.13385227376182"><ele>33.09893267881125</ele><time>2026-08-10T22:06:58Z</time></trkpt>
<trkpt lat="34.827423901826364" lon="134.13374287753203"><ele>33.709768858738244</ele><time>2026-08-10T22:07:06Z</time></trkpt>
<trkpt lat="34.827612322428365" lon="134.13367280382064"><ele>32.584498634561896</ele><time>2026-08-10T22:07:15Z</time></trkpt>
<trkpt lat="34.82780025109521" lon="134.13360780527427"><ele>31.763907451182604</ele><time>2026-08-10T22:07:24Z</time></trkpt>
<trkpt lat="34.82798772919985" lon="134.1335316810209"><ele>34.188571027480066</ele><time>2026-08-10T22:07:33Z</time></trkpt>
<trkpt lat="34.82812436006685" lon="134.13336195396775"><ele>35.356056770309806</ele><time>2026-08-10T22:07:42Z</time></trkpt>
<trkpt lat="34.828285913394375" lon="134.13325785300702"><ele>34.33732108771801</ele><time>2026-08-10T22:07:51Z</time></trkpt>
<trkpt lat="34.828468618139965" lon="134.13321285995357"><ele>34.24584003537893</ele><time>2026-08-10T22:07:59Z</time></trkpt>
<trkpt lat="34.828660058066625" lon="134.133149520621"><ele>34.10697834100574</ele><time>2026-08-10T22:08:08Z</time></trkpt>
<trkpt lat="34.82884374306716" lon="134.13305539905244"><ele>34.06209660321474</ele><time>2026-08-10T22:08:17Z</time></trkpt>
<trkpt lat="34.82900548786528" lon="134.13295472939782"><ele>33.85115208942443</ele><time>2026-08-10T22:08:25Z</time></trkpt>
<trkpt lat="34.82920022845008" lon="134.13287325370325"><ele>32.96322632394731</ele><time>2026-08-10T22:08:33Z</time></trkpt>
<trkpt lat="34.82938589515937" lon="134.13282354438564"><ele>32.99569122493267</ele><time>2026-08-10T22:08:41Z</time></trkpt>
<trkpt lat="34.82956586009925" lon="134.13271030120336"><ele>32.31716584786773</ele><time>2026-08-10T22:08:48Z</time></trkpt>
<trkpt lat="34.829737229376974" lon="134.13263041508992"><ele>31.929732393473387</ele><time>2026-08-10T22:08:55Z</time></trkpt>
<trkpt lat="34.82991545192085" lon="134.13254405511938"><ele>31.412229253910482</ele><time>2026-08-10T22:09:02Z</time></trkpt>
<trkpt lat="34.830083540227825" lon="134.13245485659218"><ele>31.694829994812608</ele><time>2026-08-10T22:09:09Z</time></trkpt>
<trkpt lat="34.83025257657888" lon="134.1323543019242"><ele>32.033878470771015</ele><time>2026-08-10T22:09:16Z</time></trkpt>
<trkpt lat="34.83045773762439" lon="134.1322681439307"><ele>32.51083518564701</ele><time>2026-08-10T22:09:25Z</time></trkpt>
<trkpt lat="34.83062363844952" lon="134.13217846301302"><ele>34.22529506124556</ele><time>2026-08-10T22:09:32Z</time></trkpt>
<trkpt lat="34.83080025533272" lon="134.13210199610776"><ele>34.38370130304247</ele><time>2026-08-10T22:09:40Z</time></trkpt>
<trkpt lat="34.830991879325545" lon="134.13199985089975"><ele>33.03826988860965</ele><time>2026-08-10T22:09:48Z</time></trkpt>
<trkpt lat="34.83115743657416" lon="134.13190887919347"><ele>32.4605629267171</ele><time>2026-08-10T22:09:56Z</time></trkpt>
<trkpt lat="34.83132925126957" lon="134.13182085939454"><ele>34.76142383180559</ele><time>2026-08-10T22:10:04Z</time></trkpt>
<trkpt lat="34.83150234616988" lon="134.1317084883255"><ele>34.81996590550989</ele><time>2026-08-10T22:10:13Z</time></trkpt>
<trkpt lat="34.831683262052856" lon="134.1316244016854"><ele>33.84672249760479</ele><time>2026-08-10T22:10:21Z</time></trkpt>
<trkpt lat="34.83186085590938" lon="134.1315658675136"><ele>35.06091130897403</ele><time>2026-08-10T22:10:28Z</time></trkpt>
<trkpt lat="34.83201676841398" lon="134.13142777264008"><ele>37.28136699926108</ele><time>2026-08-10T22:10:36Z</time></trkpt>
<trkpt lat="34.832190151255695" lon="134.13136123873917"><ele>37.33722017612308</ele><time>2026-08-10T22:10:44Z</time></trkpt>
<trkpt lat="34.83234890818084" lon="134.13122328290905"><ele>38.63746257685125</ele><time>2026-08-10T22:10:53Z</time></trkpt>
<trkpt lat="34.832533602482194" lon="134.13114884745193"><ele>37.132725624367595</ele><time>2026-08-10T22:11:00Z</time></trkpt>
<trkpt lat="34.83271124696165" lon="134.13103834900892"><ele>38.35429143998772</ele><time>2026-08-10T22:11:09Z</time></trkpt>
<trkpt lat="34.83286725400453" lon="134.13092355177477"><ele>36.79590527154505</ele><time>2026-08-10T22:11:17Z</time></trkpt>
<trkpt lat="34.833019895387416" lon="134.13079169984604"><ele>34.96166844572872</ele><time>2026-08-10T22:11:24Z</time></trkpt>
<trkpt lat="34.83319362024294" lon="134.1307310641206"><ele>34.13208892662078</ele><time>2026-08-10T22:11:32Z</time></trkpt>
<trkpt lat="34.83337342178392" lon="134.1306343492182"><ele>33.34427047148347</ele><time>2026-08-10T22:11:41Z</time></trkpt>
<trkpt lat="34.83356160135501" lon="134.13055891311203"><ele>31.688339607790112</ele><time>2026-08-10T22:11:49Z</time></trkpt>
<trkpt lat="34.83372726658543" lon="134.13043091264421"><ele>30.89884129539132</ele><time>2026-08-10T22:11:56Z</time></trkpt>
<trkpt lat="34.83392022881348" lon="134.1303513117872"><ele>31.30607512407005</ele><time>2026-08-10T22:12:07Z</time></trkpt>
<trkpt lat="34.834100828162164" lon="134.13024805861463"><ele>30.27756184525788</ele><time>2026-08-10T22:12:16Z</time></trkpt>
<trkpt lat="34.83426883917813" lon="134.13014645607726"><ele>31.256523485295475</ele><time>2026-08-10T22:12:23Z</time></trkpt>
<trkpt lat="34.83445272370414" lon="134.1300445473509"><ele>31.254370290786028</ele><time>2026-08-10T22:12:31Z</time></trkpt>
<trkpt lat="34.834612276246425" lon="134.1299187570895"><ele>32.34002340119332</ele><time>2026-08-10T22:12:38Z</time></trkpt>
<trkpt lat="34.834788786515404" lon="134.12980874429047"><ele>32.44192466698587</ele><time>2026-08-10T22:12:46Z</time></trkpt>
<trkpt lat="34.83493487966508" lon="134.12967678163363"><ele>31.574298062361777</ele><time>2026-08-10T22:12:53Z</time></trkpt>
<trkpt lat="34.83509307006594" lon="134.12955034757434"><ele>31.073740849271417</ele><time>2026-08-10T22:13:02Z</time></trkpt>
<trkpt lat="34.83524690370481" lon="134.12943305243033"><ele>30.279697618447244</ele><time>2026-08-10T22:13:10Z</time></trkpt>
<trkpt lat="34.835433860898085" lon="134.12932646795213"><ele>31.848097576759756</ele><time>2026-08-10T22:13:17Z</time></trkpt>
<trkpt lat="34.83559683274926" lon="134.12918765733613"><ele>34.00778355170041</ele><time>2026-08-10T22:13:25Z</time></trkpt>
<trkpt lat="34.835767383244615" lon="134.1290939604414"><ele>34.86832763440907</ele><time>2026-08-10T22:13:33Z</time></trkpt>
<trkpt lat="34.835914083351334" lon="134.12894304115326"><ele>34.11648652050644</ele><time>2026-08-10T22:13:41Z</time></trkpt>
<trkpt lat="34.83606868884835" lon="134.1288178208702"><ele>35.41354574635625</ele><time>2026-08-10T22:13:49Z</time></trkpt>
<trkpt lat="34.83622787958991" lon="134.12866347145905"><ele>34.94576932024211</ele><time>2026-08-10T22:13:58Z</time></trkpt>
<trkpt lat="34.83640149179467" lon="134.12857644094987"><ele>35.10990708414465</ele><time>2026-08-10T22:14:06Z</time></trkpt>
<trkpt lat="34.83659265192403" lon="134.12848641835447"><ele>35.416868625208735</ele><time>2026-08-10T22:14:15Z</time></trkpt>
<trkpt lat="34.83673569682725" lon="134.12831299972382"><ele>37.34595298860222</ele><time>2026-08-10T22:14:23Z</time></trkpt>
<trkpt lat="34.83689528565592" lon="134.1281915430177"><ele>37.71173939667642</ele><time>2026-08-10T22:14:31Z</time></trkpt>
<trkpt lat="34.83705676151924" lon="134.1280744236442"><ele>38.01393012609333</ele><time>2026-08-10T22:14:39Z</time></trkpt>
<trkpt lat="34.837208454215016" lon="134.1279479686683"><ele>37.30251893308014</ele><time>2026-08-10T22:14:47Z</time></trkpt>
<trkpt lat="34.837376852175595" lon="134.1278669568508"><ele>36.50165829434991</ele><time>2026-08-10T22:14:55Z</time></trkpt>
<trkpt lat="34.83751393851695" lon="134.12770012495682"><ele>35.744466490112245</ele><time>2026-08-10T22:15:03Z</time></trkpt>
<trkpt lat="34.83766991851298" lon="134.12757886031136"><ele>36.408600157126784</ele><time>2026-08-10T22:15:11Z</time></trkpt>
<trkpt lat="34.83783188249001" lon="134.12747164415134"><ele>36.41197177115828</ele><time>2026-08-10T22:15:19Z</time></trkpt>
<trkpt lat="34.837991736129645" lon="134.12736747296546"><ele>36.8570351311937</ele><time>2026-08-10T22:15:27Z</time></trkpt>
<trkpt lat="34.83815631898174" lon="134.12725544368618"><ele>38.11897636111826</ele><time>2026-08-10T22:15:35Z</time></trkpt>
<trkpt lat="34.83830696866952" lon="134.12711713802358"><ele>38.28517497051507</ele><time>2026-08-10T22:15:43Z</time></trkpt>
<trkpt lat="34.838474420982436" lon="134.12701970804324"><ele>37.23251980636269</ele><time>2026-08-10T22:15:51Z</time></trkpt>
<trkpt lat="34.838645928551266" lon="134.12691004602635"><ele>36.77655558194965</ele><time>2026-08-10T22:15:59Z</time></trkpt>
<trkpt lat="34.838817663802516" lon="134.1267963324917"><ele>37.84607105143368</ele><time>2026-08-10T22:16:07Z</time></trkpt>
<trkpt lat="34.838959353024585" lon="134.12664812502163"><ele>38.151122025214136</ele><time>2026-08-10T22:16:15Z</time></trkpt>
<trkpt lat="34.83912845989995" lon="134.12653746890723"><ele>37.16789230518043</ele><time>2026-08-10T22:16:23Z</time></trkpt>
<trkpt lat="34.83929298999633" lon="134.1264027448718"><ele>37.04453244805336</ele><time>2026-08-10T22:16:31Z</time></trkpt>
<trkpt lat="34.83945146825096" lon="134.12626451870608"><ele>36.98097935505211</ele><time>2026-08-10T22:16:39Z</time></trkpt>
<trkpt lat="34.83962313848364" lon="134.1261243953307"><ele>36.67442206572741</ele><time>2026-08-10T22:16:47Z</time></trkpt>
<trkpt lat="34.83978550478521" lon="134.12600811520997"><ele>35.706045251339674</ele><time>2026-08-10T22:16:54Z</time></trkpt>
<trkpt lat="34.83995075508438" lon="134.12585330940632"><ele>37.08316765259951</ele><time>2026-08-10T22:17:02Z</time></trkpt>
<trkpt lat="34.84012978024502" lon="134.12573987687094"><ele>35.97699065506458</ele><time>2026-08-10T22:17:10Z</time></trkpt>
<trkpt lat="34.840283469717335" lon="134.12561800820774"><ele>35.12067822739482</ele><time>2026-08-10T22:17:17Z</time></trkpt>
<trkpt lat="34.840455059780766" lon="134.12548383618946"><ele>34.375269239768386</ele><time>2026-08-10T22:17:25Z</time></trkpt>
<trkpt lat="34.840620259634086" lon="134.12536032603538"><ele>35.73202942125499</ele><time>2026-08-10T22:17:33Z</time></trkpt>
<trkpt lat="34.84078196805331" lon="134.12523655337526"><ele>36.09425671491772</ele><time>2026-08-10T22:17:41Z</time></trkpt>
<trkpt lat="34.840971159877576" lon="134.1251627171557"><ele>35.33247683662921</ele><time>2026-08-10T22:17:49Z</time></trkpt>
<trkpt lat="34.84112142547617" lon="134.125009483751"><ele>35.41047989856452</ele><time>2026-08-10T22:17:57Z</time></trkpt>
<trkpt lat="34.84127939191193" lon="134.1248919509497"><ele>34.89975204691291</ele><time>2026-08-10T22:18:05Z</time></trkpt>
<trkpt lat="34.841466295546155" lon="134.12483146689186"><ele>34.9472849490121</ele><time>2026-08-10T22:18:13Z</time></trkpt>
<trkpt lat="34.84162120002399" lon="134.12469712894193"><ele>36.67314013559371</ele><time>2026-08-10T22:18:21Z</time></trkpt>
<trkpt lat="34.84179094844155" lon="134.1246063206836"><ele>35.35627383273095</ele><time>2026-08-10T22:18:30Z</time></trkpt>
<trkpt lat="34.84196239104731" lon="134.1245237195081"><ele>36.978242504410446</ele><time>2026-08-10T22:18:38Z</time></trkpt>
<trkpt lat="34.84213764688123" lon="134.12440610637125"><ele>37.366468898020685</ele><time>2026-08-10T22:18:46Z</time></trkpt>
<trkpt lat="34.84231949827961" lon="134.1243394574695"><ele>36.50446052197367</ele><time>2026-08-10T22:18:54Z</time></trkpt>
<trkpt lat="34.84249538990095" lon="134.12424111743005"><ele>37.310869259759784</ele><time>2026-08-10T22:19:02Z</time></trkpt>
<trkpt lat="34.84268175551439" lon="134.12415925682694"><ele>37.0038934443146</ele><time>2026-08-10T22:19:11Z</time></trkpt>
<trkpt lat="34.84285201839679" lon="134.12405242585666"><ele>36.58586258068681</ele><time>2026-08-10T22:19:19Z</time></trkpt>
<trkpt lat="34.843036732562496" lon="134.12398292082966"><ele>37.68685020878911</ele><time>2026-08-10T22:19:28Z</time></trkpt>
<trkpt lat="34.84322758968394" lon="134.12390131120674"><ele>37.634137763641775</ele><time>2026-08-10T22:19:35Z</time></trkpt>
<trkpt lat="34.84341203437847" lon="134.12381555209112"><ele>38.635190109722316</ele><time>2026-08-10T22:19:43Z</time></trkpt>
<trkpt lat="34.84360227512032" lon="134.12373799976004"><ele>38.30757156107575</ele><time>2026-08-10T22:19:51Z</time></trkpt>
<trkpt lat="34.84378791961247" lon="134.1236419442584"><ele>38.759811035357416</ele><time>2026-08-10T22:19:59Z</time></trkpt>
<trkpt lat="34.84398081844448" lon="134.12364521044958"><ele>38.751269267871976</ele><time>2026-08-10T22:20:07Z</time></trkpt>
<trkpt lat="34.84415269512758" lon="134.12353770931333"><ele>38.582310957834125</ele><time>2026-08-10T22:20:15Z</time></trkpt>
<trkpt lat="34.844333919315226" lon="134.12341750551997"><ele>37.51085199415684</ele><time>2026-08-10T22:20:24Z</time></trkpt>
<trkpt lat="34.84451647436643" lon="134.12335325521516"><ele>37.56866749469191</ele><time>2026-08-10T22:20:31Z</time></trkpt>
<trkpt lat="34.8446886485483" lon="134.12325049850455"><ele>36.62189028598368</ele><time>2026-08-10T22:20:39Z</time></trkpt>
<trkpt lat="34.84485869727843" lon="134.12314687522468"><ele>37.218251552432775</ele><time>2026-08-10T22:20:47Z</time></trkpt>
<trkpt lat="34.845041366446935" lon="134.1230791581809"><ele>37.10032569523901</ele><time>2026-08-10T22:20:55Z</time></trkpt>
<trkpt lat="34.845234646480904" lon="134.1230151137802"><ele>36.963729687966406</ele><time>2026-08-10T22:21:03Z</time></trkpt>
<trkpt lat="34.84541672757961" lon="134.12292387407047"><ele>38.26005407702178</ele><time>2026-08-10T22:21:11Z</time></trkpt>
<trkpt lat="34.8453338684899" lon="134.12272035254458"><ele>37.6308692060411</ele><time>2026-08-10T22:21:14Z</time></trkpt>
<trkpt lat="34.84549581624288" lon="134.12261927288174"><ele>37.36034533753991</ele><time>2026-08-10T22:21:22Z</time></trkpt>
<trkpt lat="34.84568292769897" lon="134.12256591929008"><ele>37.08034262713045</ele><time>2026-08-10T22:21:29Z</time></trkpt>
<trkpt lat="34.84585691867282" lon="134.12247547562984"><ele>35.91177586186677</ele><time>2026-08-10T22:21:37Z</time></trkpt>
<trkpt lat="34.84604691082934" lon="134.12244026129238"><ele>37.264110185205936</ele><time>2026-08-10T22:21:43Z</time></trkpt>
<trkpt lat="34.84616113442025" lon="134.12222537581818"><ele>37.1111344601959</ele><time>2026-08-10T22:21:50Z</time></trkpt>
<trkpt lat="34.84635810511508" lon="134.12216514367836"><ele>37.0831474494189</ele><time>2026-08-10T22:21:58Z</time></trkpt>
<trkpt lat="34.84649585320408" lon="134.12200710097466"><ele>35.938617882318795</ele><time>2026-08-10T22:22:05Z</time></trkpt>
<trkpt lat="34.84666491042724" lon="134.12188895877313"><ele>36.313719424419105</ele><time>2026-08-10T22:22:14Z</time></trkpt>
<trkpt lat="34.84677914819157" lon="134.12169126177096"><ele>35.68062060791999</ele><time>2026-08-10T22:22:20Z</time></trkpt>
<trkpt lat="34.84693676684344" lon="134.1215494682812"><ele>33.18658863659948</ele><time>2026-08-10T22:22:27Z</time></trkpt>
<trkpt lat="34.847097146221564" lon="134.12138523362307"><ele>33.49195245653391</ele><time>2026-08-10T22:22:35Z</time></trkpt>
<trkpt lat="34.84726847540545" lon="134.12126225562093"><ele>33.681606870144606</ele><time>2026-08-10T22:22:43Z</time></trkpt>
<trkpt lat="34.847440185200874" lon="134.12112875874035"><ele>33.55588418524712</ele><time>2026-08-10T22:22:51Z</time></trkpt>
<trkpt lat="34.847604329873995" lon="134.12098526431225"><ele>33.18752672057599</ele><time>2026-08-10T22:22:59Z</time></trkpt>
<trkpt lat="34.847748491536734" lon="134.12084093472376"><ele>32.70977945346385</ele><time>2026-08-10T22:23:06Z</time></trkpt>
<trkpt lat="34.84790342087176" lon="134.1207103131464"><ele>33.99202539026737</ele><time>2026-08-10T22:23:14Z</time></trkpt>
<trkpt lat="34.84808196570281" lon="134.12060521248588"><ele>34.266498217359185</ele><time>2026-08-10T22:23:22Z</time></trkpt>
<trkpt lat="34.84801467406035" lon="134.12034138016705"><ele>44.65664365980774</ele><time>2026-08-10T22:23:26Z</time></trkpt>
<trkpt lat="34.84839097596955" lon="134.12051969866022"><ele>32.36691751051694</ele><time>2026-08-10T22:23:35Z</time></trkpt>
<trkpt lat="34.84853363198166" lon="134.12035474405303"><ele>36.6230414332822</ele><time>2026-08-10T22:23:43Z</time></trkpt>
<trkpt lat="34.84837656284432" lon="134.1201964133631"><ele>42.21316188760102</ele><time>2026-08-10T22:23:45Z</time></trkpt>
<trkpt lat="34.848683007178614" lon="134.12032061711747"><ele>37.34510920569301</ele><time>2026-08-10T22:23:50Z</time></trkpt>
<trkpt lat="34.84874285444464" lon="134.12008358386547"><ele>39.70671065617353</ele><time>2026-08-10T22:23:55Z</time></trkpt>
<trkpt lat="34.84889405054773" lon="134.1199571830626"><ele>39.51977648679167</ele><time>2026-08-10T22:24:03Z</time></trkpt>
<trkpt lat="34.849072456507265" lon="134.11986354689859"><ele>35.7945697568357</ele><time>2026-08-10T22:24:11Z</time></trkpt>
<trkpt lat="34.84923790408816" lon="134.1197203534403"><ele>33.84158025123179</ele><time>2026-08-10T22:24:19Z</time></trkpt>
<trkpt lat="34.84938645403542" lon="134.11957436983494"><ele>30.84868737589568</ele><time>2026-08-10T22:24:27Z</time></trkpt>
<trkpt lat="34.84950052176795" lon="134.11939483662755"><ele>32.226232405751944</ele><time>2026-08-10T22:24:34Z</time></trkpt>
<trkpt lat="34.84964864408164" lon="134.1192222400188"><ele>32.106333907693624</ele><time>2026-08-10T22:24:42Z</time></trkpt>
<trkpt lat="34.84975892041176" lon="134.1190188634976"><ele>33.64971695654094</ele><time>2026-08-10T22:24:49Z</time></trkpt>
<trkpt lat="34.84983479781632" lon="134.1188200569424"><ele>33.592722153291106</ele><time>2026-08-10T22:24:56Z</time></trkpt>
<trkpt lat="34.849929846658156" lon="134.11863423714763"><ele>32.964197624474764</ele><time>2026-08-10T22:25:03Z</time></trkpt>
<trkpt lat="34.84998325408809" lon="134.11842440455183"><ele>31.20262134447694</ele><time>2026-08-10T22:25:10Z</time></trkpt>
<trkpt lat="34.850023901573095" lon="134.11818415921553"><ele>30.12258918955922</ele><time>2026-08-10T22:25:17Z</time></trkpt>
<trkpt lat="34.850081190668426" lon="134.11796750472305"><ele>28.63862839434296</ele><time>2026-08-10T22:25:25Z</time></trkpt>
<trkpt lat="34.85013260869773" lon="134.1177307141821"><ele>27.65622772835195</ele><time>2026-08-10T22:25:33Z</time></trkpt>
<trkpt lat="34.85030740297198" lon="134.11782997257907"><ele>32.92862300481647</ele><time>2026-08-10T22:25:46Z</time></trkpt>
<trkpt lat="34.85034032480517" lon="134.11754752562263"><ele>37.72713816259056</ele><time>2026-08-10T22:26:08Z</time></trkpt>
<trkpt lat="34.8504958184634" lon="134.1177331606246"><ele>41.016915489919484</ele><time>2026-08-10T22:26:35Z</time></trkpt>
<trkpt lat="34.850478246967384" lon="134.11764846959073"><ele>41.02075370121747</ele><time>2026-08-10T22:26:36Z</time></trkpt>
<trkpt lat="34.850656611308025" lon="134.11758822554103"><ele>49.239517791196704</ele><time>2026-08-10T22:28:23Z</time></trkpt>
<trkpt lat="34.85077964910338" lon="134.11778055890292"><ele>55.621256788261235</ele><time>2026-08-10T22:29:13Z</time></trkpt>
<trkpt lat="34.85071769156514" lon="134.11802003242795"><ele>67.5779404938221</ele><time>2026-08-10T22:30:09Z</time></trkpt>
<trkpt lat="34.8507682929017" lon="134.11823617662913"><ele>85.2773298760876</ele><time>2026-08-10T22:31:04Z</time></trkpt>
<trkpt lat="34.85084593720485" lon="134.1184460240693"><ele>92.22303016856313</ele><time>2026-08-10T22:31:41Z</time></trkpt>
<trkpt lat="34.850873485561344" lon="134.1186710677374"><ele>98.16256440989673</ele><time>2026-08-10T22:32:19Z</time></trkpt>
<trkpt lat="34.85081880230958" lon="134.1188815084917"><ele>113.12407643999904</ele><time>2026-08-10T22:33:10Z</time></trkpt>
<trkpt lat="34.850792564751664" lon="134.1191117754546"><ele>127.03424303606153</ele><time>2026-08-10T22:33:55Z</time></trkpt>
<trkpt lat="34.85077733573231" lon="134.11932971096965"><ele>139.5195093434304</ele><time>2026-08-10T22:34:48Z</time></trkpt>
<trkpt lat="34.850757352964386" lon="134.1195530935863"><ele>148.91361243929714</ele><time>2026-08-10T22:35:34Z</time></trkpt>
<trkpt lat="34.85079033882035" lon="134.11978643082824"><ele>157.68145949114114</ele><time>2026-08-10T22:36:08Z</time></trkpt>
<trkpt lat="34.850707220959805" lon="134.11998685970602"><ele>169.89385240804404</ele><time>2026-08-10T22:37:09Z</time></trkpt>
<trkpt lat="34.85078794343872" lon="134.12018650640965"><ele>184.07394921872765</ele><time>2026-08-10T22:37:52Z</time></trkpt>
<trkpt lat="34.85086264558661" lon="134.1203950948175"><ele>185.7094514798373</ele><time>2026-08-10T22:38:19Z</time></trkpt>
<trkpt lat="34.850814085706915" lon="134.12062475211633"><ele>188.46869459189475</ele><time>2026-08-10T22:38:44Z</time></trkpt>
<trkpt lat="34.850731493786554" lon="134.12082516709813"><ele>194.58118281606585</ele><time>2026-08-10T22:39:10Z</time></trkpt>
<trkpt lat="34.850662907265985" lon="134.1210303342907"><ele>197.27898954972625</ele><time>2026-08-10T22:39:33Z</time></trkpt>
<trkpt lat="34.850660409412136" lon="134.121251296381"><ele>204.2197730075568</ele><time>2026-08-10T22:39:58Z</time></trkpt>
<trkpt lat="34.85071753982737" lon="134.12146733473654"><ele>217.70677001867443</ele><time>2026-08-10T22:40:38Z</time></trkpt>
<trkpt lat="34.85069098963161" lon="134.12169377580256"><ele>231.59758813027292</ele><time>2026-08-10T22:41:29Z</time></trkpt>
<trkpt lat="34.85070972339549" lon="134.12191979290148"><ele>246.8717714874074</ele><time>2026-08-10T22:42:31Z</time></trkpt>
<trkpt lat="34.85072489237702" lon="134.12214980249917"><ele>254.13852263335139</ele><time>2026-08-10T22:43:11Z</time></trkpt>
<trkpt lat="34.850633756215345" lon="134.12233847758608"><ele>260.38748655375093</ele><time>2026-08-10T22:43:45Z</time></trkpt>
<trkpt lat="34.85053010690729" lon="134.1225355368756"><ele>269.89645055588335</ele><time>2026-08-10T22:44:24Z</time></trkpt>
<trkpt lat="34.85039986848912" lon="134.12271092858657"><ele>281.6955122947693</ele><time>2026-08-10T22:45:16Z</time></trkpt>
<trkpt lat="34.85029954149273" lon="134.12289853038283"><ele>291.5981832407415</ele><time>2026-08-10T22:45:59Z</time></trkpt>
<trkpt lat="34.850184364782066" lon="134.1230689704892"><ele>300.4669716153294</ele><time>2026-08-10T22:46:44Z</time></trkpt>
<trkpt lat="34.8500098583709" lon="134.12316131274417"><ele>303.9437264893204</ele><time>2026-08-10T22:47:08Z</time></trkpt>
<trkpt lat="34.84996232185402" lon="134.123394498915"><ele>306.7843530345708</ele><time>2026-08-10T22:47:36Z</time></trkpt>
<trkpt lat="34.84993154684357" lon="134.12361735051016"><ele>309.1457528518513</ele><time>2026-08-10T22:47:44Z</time></trkpt>
<trkpt lat="34.84978449286942" lon="134.12380451148127"><ele>311.69979055132717</ele><time>2026-08-10T22:47:57Z</time></trkpt>
<trkpt lat="34.8498019942528" lon="134.12402415856016"><ele>314.5599949825555</ele><time>2026-08-10T22:48:17Z</time></trkpt>
<trkpt lat="34.849681733437286" lon="134.12426351713046"><ele>314.2326629040763</ele><time>2026-08-10T22:48:33Z</time></trkpt>
<trkpt lat="34.84961856932747" lon="134.12449736536607"><ele>312.38542393874377</ele><time>2026-08-10T22:48:42Z</time></trkpt>
<trkpt lat="34.849585117536506" lon="134.1247186164218"><ele>313.12841281853616</ele><time>2026-08-10T22:48:48Z</time></trkpt>
<trkpt lat="34.849460320877874" lon="134.1249154109151"><ele>316.28334280569106</ele><time>2026-08-10T22:49:03Z</time></trkpt>
<trkpt lat="34.84938893218935" lon="134.12513320921474"><ele>321.0763430055231</ele><time>2026-08-10T22:49:27Z</time></trkpt>
<trkpt lat="34.849424439445755" lon="134.1253710064606"><ele>324.15544818062335</ele><time>2026-08-10T22:49:43Z</time></trkpt>
<trkpt lat="34.84937524246204" lon="134.12558420503515"><ele>322.74936472065747</ele><time>2026-08-10T22:49:59Z</time></trkpt>
<trkpt lat="34.84937581389328" lon="134.12580850984003"><ele>326.7949410043657</ele><time>2026-08-10T22:50:12Z</time></trkpt>
<trkpt lat="34.84929396807993" lon="134.12602958279103"><ele>337.43603106960654</ele><time>2026-08-10T22:50:57Z</time></trkpt>
<trkpt lat="34.849132122672" lon="134.1261363469397"><ele>334.5181381823495</ele><time>2026-08-10T22:51:11Z</time></trkpt>
<trkpt lat="34.849090841731346" lon="134.12635526982325"><ele>330.86974488105625</ele><time>2026-08-10T22:51:22Z</time></trkpt>
<trkpt lat="34.848966553691334" lon="134.12653509507223"><ele>330.2060986822471</ele><time>2026-08-10T22:51:33Z</time></trkpt>
<trkpt lat="34.84884786933821" lon="134.1267198819057"><ele>327.51204726751894</ele><time>2026-08-10T22:51:42Z</time></trkpt>
<trkpt lat="34.848684110970055" lon="134.12688390097904"><ele>323.96756580099463</ele><time>2026-08-10T22:51:51Z</time></trkpt>
<trkpt lat="34.848487801161156" lon="134.12691069375532"><ele>318.8107915762812</ele><time>2026-08-10T22:51:59Z</time></trkpt>
<trkpt lat="34.84831315271026" lon="134.12698478046894"><ele>315.0387936392799</ele><time>2026-08-10T22:52:09Z</time></trkpt>
<trkpt lat="34.84816462553184" lon="134.12713510563572"><ele>307.7081898506731</ele><time>2026-08-10T22:52:22Z</time></trkpt>
<trkpt lat="34.84797605009281" lon="134.12719201179877"><ele>306.2246184311807</ele><time>2026-08-10T22:52:35Z</time></trkpt>
<trkpt lat="34.84779481173064" lon="134.12723063334704"><ele>309.5289916610345</ele><time>2026-08-10T22:52:46Z</time></trkpt>
<trkpt lat="34.84760759113319" lon="134.12726527930934"><ele>313.1286312546581</ele><time>2026-08-10T22:53:20Z</time></trkpt>
<trkpt lat="34.84749682619466" lon="134.1274426689444"><ele>313.3027516324073</ele><time>2026-08-10T22:53:38Z</time></trkpt>
<trkpt lat="34.84742371073292" lon="134.1276446394817"><ele>321.4748041126877</ele><time>2026-08-10T22:53:55Z</time></trkpt>
<trkpt lat="34.84729276344951" lon="134.12779960424444"><ele>318.50000256020576</ele><time>2026-08-10T22:54:33Z</time></trkpt>
<trkpt lat="34.847170758036384" lon="134.12800206145533"><ele>319.5404303809628</ele><time>2026-08-10T22:54:42Z</time></trkpt>
<trkpt lat="34.847090231813496" lon="134.1282143222932"><ele>319.1225823080167</ele><time>2026-08-10T22:54:50Z</time></trkpt>
<trkpt lat="34.84694789611523" lon="134.1283765608383"><ele>319.0366828851402</ele><time>2026-08-10T22:54:57Z</time></trkpt>
<trkpt lat="34.846772017796646" lon="134.12845257790963"><ele>325.79724031314254</ele><time>2026-08-10T22:56:05Z</time></trkpt>
<trkpt lat="34.846669714110874" lon="134.12863480782482"><ele>332.33310972712934</ele><time>2026-08-10T22:56:29Z</time></trkpt>
<trkpt lat="34.84656752822786" lon="134.1288333386714"><ele>332.86294669564813</ele><time>2026-08-10T22:56:42Z</time></trkpt>
<trkpt lat="34.846545124149195" lon="134.12905225086877"><ele>341.8204393219203</ele><time>2026-08-10T22:57:00Z</time></trkpt>
<trkpt lat="34.84639824431283" lon="134.1291834847758"><ele>345.5880269734189</ele><time>2026-08-10T22:57:17Z</time></trkpt>
<trkpt lat="34.846222314200375" lon="134.12925769470522"><ele>349.2261756854132</ele><time>2026-08-10T22:57:43Z</time></trkpt>
<trkpt lat="34.8460563577996" lon="134.12938476449824"><ele>359.6087431218475</ele><time>2026-08-10T22:58:36Z</time></trkpt>
<trkpt lat="34.84598692424026" lon="134.1295865712668"><ele>368.79683229047805</ele><time>2026-08-10T22:59:18Z</time></trkpt>
<trkpt lat="34.84590725616936" lon="134.12980046644634"><ele>372.3116448773071</ele><time>2026-08-10T22:59:36Z</time></trkpt>
<trkpt lat="34.84586726573227" lon="134.13001547458268"><ele>376.21584533620626</ele><time>2026-08-10T23:00:10Z</time></trkpt>
<trkpt lat="34.84581862629609" lon="134.13023234481295"><ele>385.36182663589716</ele><time>2026-08-10T23:00:47Z</time></trkpt>
<trkpt lat="34.84565470354863" lon="134.13036022866615"><ele>395.75334987044334</ele><time>2026-08-10T23:01:20Z</time></trkpt>
<trkpt lat="34.84551731464091" lon="134.13050591544678"><ele>401.9108717786148</ele><time>2026-08-10T23:01:53Z</time></trkpt>
<trkpt lat="34.84538233841564" lon="134.13065396525025"><ele>405.24013952258974</ele><time>2026-08-10T23:02:20Z</time></trkpt>
<trkpt lat="34.84524178202422" lon="134.13080022878245"><ele>408.8173628197983</ele><time>2026-08-10T23:02:36Z</time></trkpt>
<trkpt lat="34.84530389443935" lon="134.13100561530132"><ele>403.103538854979</ele><time>2026-08-10T23:03:48Z</time></trkpt>
<trkpt lat="34.8453098267456" lon="134.1312358474942"><ele>403.7092957030982</ele><time>2026-08-10T23:04:00Z</time></trkpt>
<trkpt lat="34.845333978630244" lon="134.1314581343518"><ele>406.4524361854419</ele><time>2026-08-10T23:04:11Z</time></trkpt>
<trkpt lat="34.84537885865994" lon="134.13167634357305"><ele>406.36066918540746</ele><time>2026-08-10T23:04:27Z</time></trkpt>
<trkpt lat="34.84544891204974" lon="134.13189200553288"><ele>407.7525342097506</ele><time>2026-08-10T23:04:39Z</time></trkpt>
<trkpt lat="34.84556688481065" lon="134.13207963416397"><ele>410.07118127215654</ele><time>2026-08-10T23:04:58Z</time></trkpt>
<trkpt lat="34.84559519818159" lon="134.1323137435799"><ele>413.2310583088547</ele><time>2026-08-10T23:05:09Z</time></trkpt>
<trkpt lat="34.84568052564263" lon="134.13251109649352"><ele>412.5208232756704</ele><time>2026-08-10T23:05:26Z</time></trkpt>
<trkpt lat="34.84575053147816" lon="134.1327161182626"><ele>412.15645673684776</ele><time>2026-08-10T23:05:35Z</time></trkpt>
<trkpt lat="34.84578094989787" lon="134.13293978842043"><ele>409.76202485058457</ele><time>2026-08-10T23:05:45Z</time></trkpt>
<trkpt lat="34.84585021804903" lon="134.1331532327371"><ele>408.786545926705</ele><time>2026-08-10T23:05:54Z</time></trkpt>
<trkpt lat="34.845864463008766" lon="134.13337904265828"><ele>405.62273025419563</ele><time>2026-08-10T23:06:02Z</time></trkpt>
<trkpt lat="34.845932679378045" lon="134.13359252784315"><ele>404.77338488120586</ele><time>2026-08-10T23:06:10Z</time></trkpt>
<trkpt lat="34.846032958767616" lon="134.13379975484202"><ele>405.2168206917122</ele><time>2026-08-10T23:06:18Z</time></trkpt>
<trkpt lat="34.8460419756315" lon="134.1340317688347"><ele>402.9592091413215</ele><time>2026-08-10T23:06:26Z</time></trkpt>
<trkpt lat="34.84590052259745" lon="134.13417360268582"><ele>398.0250489860773</ele><time>2026-08-10T23:06:33Z</time></trkpt>
<trkpt lat="34.84572035318264" lon="134.13427422143"><ele>394.99703207146376</ele><time>2026-08-10T23:06:41Z</time></trkpt>
<trkpt lat="34.845548261428505" lon="134.13437273174273"><ele>394.7628764733672</ele><time>2026-08-10T23:06:49Z</time></trkpt>
<trkpt lat="34.845379371080774" lon="134.13446169039327"><ele>394.1791075710207</ele><time>2026-08-10T23:06:56Z</time></trkpt>
<trkpt lat="34.84523550993419" lon="134.1346208460776"><ele>392.54490349348634</ele><time>2026-08-10T23:07:05Z</time></trkpt>
<trkpt lat="34.84512631773723" lon="134.13481387071508"><ele>393.3682521712035</ele><time>2026-08-10T23:07:14Z</time></trkpt>
<trkpt lat="34.84502743607564" lon="134.13501044277285"><ele>395.80693259090185</ele><time>2026-08-10T23:07:24Z</time></trkpt>
<trkpt lat="34.84491663752416" lon="134.13519972496863"><ele>396.89533764030784</ele><time>2026-08-10T23:07:35Z</time></trkpt>
<trkpt lat="34.84486616558973" lon="134.13541989333302"><ele>393.14764049462974</ele><time>2026-08-10T23:08:23Z</time></trkpt>
<trkpt lat="34.84478129098719" lon="134.13561797074723"><ele>394.36853153817356</ele><time>2026-08-10T23:08:33Z</time></trkpt>
<trkpt lat="34.84471421186849" lon="134.1358454482499"><ele>394.5990483192727</ele><time>2026-08-10T23:08:44Z</time></trkpt>
<trkpt lat="34.8446615209873" lon="134.1360550035622"><ele>394.5619849059731</ele><time>2026-08-10T23:08:53Z</time></trkpt>
<trkpt lat="34.844564924569084" lon="134.13624684264727"><ele>393.6851858291775</ele><time>2026-08-10T23:09:02Z</time></trkpt>
<trkpt lat="34.8456857" lon="134.1356027"><ele>398.0</ele><time>2026-08-10T23:40:06Z</time></trkpt>
<trkpt lat="34.8456879" lon="134.1356141"><ele>398.0</ele><time>2026-08-10T23:40:36Z</time></trkpt>
<trkpt lat="34.845695" lon="134.1356254"><ele>398.0</ele><time>2026-08-10T23:40:37Z</time></trkpt>
<trkpt lat="34.8456991" lon="134.1356297"><ele>398.0</ele><time>2026-08-10T23:40:38Z</time></trkpt>
<trkpt lat="34.8457032" lon="134.1356341"><ele>398.0</ele><time>2026-08-10T23:40:39Z</time></trkpt>
<trkpt lat="34.8457073" lon="134.1356385"><ele>398.0</ele><time>2026-08-10T23:40:40Z</time></trkpt>
<trkpt lat="34.8457227" lon="134.1356535"><ele>398.0</ele><time>2026-08-10T23:40:41Z</time></trkpt>
<trkpt lat="34.8457292" lon="134.1356597"><ele>398.0</ele><time>2026-08-10T23:40:42Z</time></trkpt>
<trkpt lat="34.8457357" lon="134.1356659"><ele>398.0</ele><time>2026-08-10T23:40:43Z</time></trkpt>
<trkpt lat="34.8457423" lon="134.1356721"><ele>398.0</ele><time>2026-08-10T23:40:44Z</time></trkpt>
<trkpt lat="34.8457662" lon="134.1356976"><ele>398.0</ele><time>2026-08-10T23:40:45Z</time></trkpt>
<trkpt lat="34.8457734" lon="134.1357088"><ele>398.0</ele><time>2026-08-10T23:40:46Z</time></trkpt>
<trkpt lat="34.8457807" lon="134.1357201"><ele>398.0</ele><time>2026-08-10T23:40:47Z</time></trkpt>
<trkpt lat="34.845788" lon="134.1357314"><ele>398.0</ele><time>2026-08-10T23:40:48Z</time></trkpt>
<trkpt lat="34.845808" lon="134.1357637"><ele>398.0</ele><time>2026-08-10T23:40:49Z</time></trkpt>
<trkpt lat="34.8458159" lon="134.135772"><ele>398.0</ele><time>2026-08-10T23:40:50Z</time></trkpt>
<trkpt lat="34.8458238" lon="134.1357803"><ele>398.0</ele><time>2026-08-10T23:40:51Z</time></trkpt>
<trkpt lat="34.8458317" lon="134.1357887"><ele>398.0</ele><time>2026-08-10T23:40:52Z</time></trkpt>
<trkpt lat="34.8458567" lon="134.1358124"><ele>398.0</ele><time>2026-08-10T23:40:53Z</time></trkpt>
<trkpt lat="34.8458636" lon="134.1358212"><ele>398.0</ele><time>2026-08-10T23:40:54Z</time></trkpt>
<trkpt lat="34.8458705" lon="134.13583"><ele>398.0</ele><time>2026-08-10T23:40:55Z</time></trkpt>
<trkpt lat="34.8458775" lon="134.1358388"><ele>398.0</ele><time>2026-08-10T23:40:56Z</time></trkpt>
<trkpt lat="34.8458966" lon="134.1358731"><ele>398.0</ele><time>2026-08-10T23:40:57Z</time></trkpt>
<trkpt lat="34.8459036" lon="134.1358879"><ele>398.0</ele><time>2026-08-10T23:40:58Z</time></trkpt>
<trkpt lat="34.8459106" lon="134.1359027"><ele>398.0</ele><time>2026-08-10T23:40:59Z</time></trkpt>
<trkpt lat="34.8459176" lon="134.1359176"><ele>398.0</ele><time>2026-08-10T23:41:00Z</time></trkpt>
<trkpt lat="34.8459417" lon="134.1359655"><ele>398.0</ele><time>2026-08-10T23:41:01Z</time></trkpt>
<trkpt lat="34.8459521" lon="134.1359799"><ele>398.0</ele><time>2026-08-10T23:41:02Z</time></trkpt>
<trkpt lat="34.8459625" lon="134.1359944"><ele>398.0</ele><time>2026-08-10T23:41:03Z</time></trkpt>
<trkpt lat="34.8459729" lon="134.1360089"><ele>398.0</ele><time>2026-08-10T23:41:04Z</time></trkpt>
<trkpt lat="34.8460059" lon="134.1360488"><ele>398.0</ele><time>2026-08-10T23:41:05Z</time></trkpt>
<trkpt lat="34.8460157" lon="134.1360609"><ele>398.0</ele><time>2026-08-10T23:41:06Z</time></trkpt>
<trkpt lat="34.8460255" lon="134.1360731"><ele>398.0</ele><time>2026-08-10T23:41:07Z</time></trkpt>
<trkpt lat="34.8460353" lon="134.1360853"><ele>398.0</ele><time>2026-08-10T23:41:08Z</time></trkpt>
<trkpt lat="34.8460619" lon="134.1361238"><ele>398.0</ele><time>2026-08-10T23:41:09Z</time></trkpt>
<trkpt lat="34.8460708" lon="134.1361377"><ele>398.0</ele><time>2026-08-10T23:41:10Z</time></trkpt>
<trkpt lat="34.8460797" lon="134.1361516"><ele>398.0</ele><time>2026-08-10T23:41:11Z</time></trkpt>
<trkpt lat="34.8460886" lon="134.1361655"><ele>398.0</ele><time>2026-08-10T23:41:12Z</time></trkpt>
<trkpt lat="34.8461152" lon="134.1362077"><ele>398.0</ele><time>2026-08-10T23:41:13Z</time></trkpt>
<trkpt lat="34.8461235" lon="134.1362225"><ele>398.0</ele><time>2026-08-10T23:41:14Z</time></trkpt>
<trkpt lat="34.8461318" lon="134.1362373"><ele>398.0</ele><time>2026-08-10T23:41:15Z</time></trkpt>
<trkpt lat="34.8461402" lon="134.1362522"><ele>398.0</ele><time>2026-08-10T23:41:16Z</time></trkpt>
<trkpt lat="34.8461671" lon="134.1362944"><ele>398.0</ele><time>2026-08-10T23:41:17Z</time></trkpt>
<trkpt lat="34.8461776" lon="134.1363076"><ele>398.0</ele><time>2026-08-10T23:41:18Z</time></trkpt>
<trkpt lat="34.8461882" lon="134.1363208"><ele>398.0</ele><time>2026-08-10T23:41:19Z</time></trkpt>
<trkpt lat="34.8461988" lon="134.136334"><ele>398.0</ele><time>2026-08-10T23:41:20Z</time></trkpt>
<trkpt lat="34.8462347" lon="134.1363705"><ele>398.0</ele><time>2026-08-10T23:41:21Z</time></trkpt>
<trkpt lat="34.8462457" lon="134.136382"><ele>398.0</ele><time>2026-08-10T23:41:22Z</time></trkpt>
<trkpt lat="34.8462568" lon="134.1363936"><ele>398.0</ele><time>2026-08-10T23:41:23Z</time></trkpt>
<trkpt lat="34.8462679" lon="134.1364052"><ele>398.0</ele><time>2026-08-10T23:41:24Z</time></trkpt>
<trkpt lat="34.8462998" lon="134.1364423"><ele>398.0</ele><time>2026-08-10T23:41:25Z</time></trkpt>
<trkpt lat="34.8463093" lon="134.1364556"><ele>398.0</ele><time>2026-08-10T23:41:26Z</time></trkpt>
<trkpt lat="34.8463188" lon="134.1364689"><ele>398.0</ele><time>2026-08-10T23:41:27Z</time></trkpt>
<trkpt lat="34.8463283" lon="134.1364822"><ele>398.0</ele><time>2026-08-10T23:41:28Z</time></trkpt>
<trkpt lat="34.8463553" lon="134.1365222"><ele>398.0</ele><time>2026-08-10T23:41:29Z</time></trkpt>
<trkpt lat="34.8463654" lon="134.1365346"><ele>398.0</ele><time>2026-08-10T23:41:30Z</time></trkpt>
<trkpt lat="34.8463755" lon="134.1365471"><ele>398.0</ele><time>2026-08-10T23:41:31Z</time></trkpt>
<trkpt lat="34.8463857" lon="134.1365596"><ele>398.0</ele><time>2026-08-10T23:41:32Z</time></trkpt>
<trkpt lat="34.846417" lon="134.1366017"><ele>398.0</ele><time>2026-08-10T23:41:33Z</time></trkpt>
<trkpt lat="34.8464261" lon="134.1366164"><ele>398.0</ele><time>2026-08-10T23:41:34Z</time></trkpt>
<trkpt lat="34.8464353" lon="134.1366311"><ele>397.0</ele><time>2026-08-10T23:41:35Z</time></trkpt>
<trkpt lat="34.8464445" lon="134.1366458"><ele>397.0</ele><time>2026-08-10T23:41:36Z</time></trkpt>
<trkpt lat="34.8464687" lon="134.1366892"><ele>397.0</ele><time>2026-08-10T23:41:37Z</time></trkpt>
<trkpt lat="34.8464784" lon="134.1367035"><ele>397.0</ele><time>2026-08-10T23:41:38Z</time></trkpt>
<trkpt lat="34.8464881" lon="134.1367179"><ele>397.0</ele><time>2026-08-10T23:41:39Z</time></trkpt>
<trkpt lat="34.8464979" lon="134.1367323"><ele>397.0</ele><time>2026-08-10T23:41:40Z</time></trkpt>
<trkpt lat="34.8465284" lon="134.136771"><ele>397.0</ele><time>2026-08-10T23:41:41Z</time></trkpt>
<trkpt lat="34.8465331" lon="134.1367884"><ele>396.0</ele><time>2026-08-10T23:41:49Z</time></trkpt>
<trkpt lat="34.8465306" lon="134.1368005"><ele>396.0</ele><time>2026-08-10T23:41:50Z</time></trkpt>
<trkpt lat="34.8465286" lon="134.1367961"><ele>396.0</ele><time>2026-08-10T23:41:51Z</time></trkpt>
<trkpt lat="34.8465266" lon="134.1367917"><ele>396.0</ele><time>2026-08-10T23:41:52Z</time></trkpt>
<trkpt lat="34.8465246" lon="134.1367874"><ele>396.0</ele><time>2026-08-10T23:41:53Z</time></trkpt>
<trkpt lat="34.8465283" lon="134.1367606"><ele>396.0</ele><time>2026-08-10T23:41:54Z</time></trkpt>
<trkpt lat="34.8465328" lon="134.1367524"><ele>396.0</ele><time>2026-08-10T23:41:55Z</time></trkpt>
<trkpt lat="34.8465373" lon="134.1367442"><ele>396.0</ele><time>2026-08-10T23:41:56Z</time></trkpt>
<trkpt lat="34.8465418" lon="134.136736"><ele>396.0</ele><time>2026-08-10T23:41:57Z</time></trkpt>
<trkpt lat="34.8465618" lon="134.1367187"><ele>396.0</ele><time>2026-08-10T23:41:58Z</time></trkpt>
<trkpt lat="34.8465687" lon="134.1367148"><ele>396.0</ele><time>2026-08-10T23:41:59Z</time></trkpt>
<trkpt lat="34.8465756" lon="134.1367109"><ele>396.0</ele><time>2026-08-10T23:42:00Z</time></trkpt>
<trkpt lat="34.8465825" lon="134.1367071"><ele>396.0</ele><time>2026-08-10T23:42:01Z</time></trkpt>
<trkpt lat="34.8466021" lon="134.1367036"><ele>396.0</ele><time>2026-08-10T23:42:02Z</time></trkpt>
<trkpt lat="34.8466077" lon="134.1367076"><ele>396.0</ele><time>2026-08-10T23:42:03Z</time></trkpt>
<trkpt lat="34.8466134" lon="134.1367116"><ele>396.0</ele><time>2026-08-10T23:42:04Z</time></trkpt>
<trkpt lat="34.8466191" lon="134.1367156"><ele>396.0</ele><time>2026-08-10T23:42:05Z</time></trkpt>
<trkpt lat="34.8466302" lon="134.1367392"><ele>396.0</ele><time>2026-08-10T23:42:06Z</time></trkpt>
<trkpt lat="34.8466346" lon="134.136746"><ele>395.0</ele><time>2026-08-10T23:42:07Z</time></trkpt>
<trkpt lat="34.846639" lon="134.1367528"><ele>395.0</ele><time>2026-08-10T23:42:08Z</time></trkpt>
<trkpt lat="34.8466435" lon="134.1367597"><ele>395.0</ele><time>2026-08-10T23:42:09Z</time></trkpt>
<trkpt lat="34.8466622" lon="134.136778"><ele>395.0</ele><time>2026-08-10T23:42:10Z</time></trkpt>
<trkpt lat="34.8466686" lon="134.1367806"><ele>395.0</ele><time>2026-08-10T23:42:11Z</time></trkpt>
<trkpt lat="34.846675" lon="134.1367833"><ele>395.0</ele><time>2026-08-10T23:42:12Z</time></trkpt>
<trkpt lat="34.8466814" lon="134.136786"><ele>395.0</ele><time>2026-08-10T23:42:13Z</time></trkpt>
<trkpt lat="34.8467013" lon="134.1367896"><ele>395.0</ele><time>2026-08-10T23:42:14Z</time></trkpt>
<trkpt lat="34.8467082" lon="134.1367894"><ele>395.0</ele><time>2026-08-10T23:42:15Z</time></trkpt>
<trkpt lat="34.8467151" lon="134.1367893"><ele>395.0</ele><time>2026-08-10T23:42:16Z</time></trkpt>
<trkpt lat="34.846722" lon="134.1367892"><ele>395.0</ele><time>2026-08-10T23:42:17Z</time></trkpt>
<trkpt lat="34.84675" lon="134.1367877"><ele>395.0</ele><time>2026-08-10T23:42:18Z</time></trkpt>
<trkpt lat="34.8467619" lon="134.1367863"><ele>394.0</ele><time>2026-08-10T23:42:19Z</time></trkpt>
<trkpt lat="34.8467739" lon="134.1367849"><ele>394.0</ele><time>2026-08-10T23:42:20Z</time></trkpt>
<trkpt lat="34.8467859" lon="134.1367836"><ele>394.0</ele><time>2026-08-10T23:42:21Z</time></trkpt>
<trkpt lat="34.8468272" lon="134.1367762"><ele>394.0</ele><time>2026-08-10T23:42:22Z</time></trkpt>
<trkpt lat="34.8468413" lon="134.1367744"><ele>393.0</ele><time>2026-08-10T23:42:23Z</time></trkpt>
<trkpt lat="34.8468555" lon="134.1367727"><ele>393.0</ele><time>2026-08-10T23:42:24Z</time></trkpt>
<trkpt lat="34.8468697" lon="134.136771"><ele>393.0</ele><time>2026-08-10T23:42:25Z</time></trkpt>
<trkpt lat="34.8469073" lon="134.1367645"><ele>393.0</ele><time>2026-08-10T23:42:26Z</time></trkpt>
<trkpt lat="34.8469193" lon="134.1367618"><ele>392.0</ele><time>2026-08-10T23:42:27Z</time></trkpt>
<trkpt lat="34.8469314" lon="134.1367592"><ele>392.0</ele><time>2026-08-10T23:42:28Z</time></trkpt>
<trkpt lat="34.8469435" lon="134.1367566"><ele>391.0</ele><time>2026-08-10T23:42:29Z</time></trkpt>
<trkpt lat="34.8469791" lon="134.1367534"><ele>391.0</ele><time>2026-08-10T23:42:30Z</time></trkpt>
<trkpt lat="34.8469903" lon="134.1367547"><ele>390.0</ele><time>2026-08-10T23:42:31Z</time></trkpt>
<trkpt lat="34.8470015" lon="134.1367561"><ele>390.0</ele><time>2026-08-10T23:42:32Z</time></trkpt>
<trkpt lat="34.8470127" lon="134.1367575"><ele>390.0</ele><time>2026-08-10T23:42:33Z</time></trkpt>
<trkpt lat="34.8470467" lon="134.136766"><ele>390.0</ele><time>2026-08-10T23:42:34Z</time></trkpt>
<trkpt lat="34.8470569" lon="134.1367691"><ele>389.0</ele><time>2026-08-10T23:42:35Z</time></trkpt>
<trkpt lat="34.8470672" lon="134.1367723"><ele>389.0</ele><time>2026-08-10T23:42:36Z</time></trkpt>
<trkpt lat="34.8470775" lon="134.1367755"><ele>388.0</ele><time>2026-08-10T23:42:37Z</time></trkpt>
<trkpt lat="34.8470907" lon="134.1367791"><ele>388.0</ele><time>2026-08-10T23:42:38Z</time></trkpt>
<trkpt lat="34.8470964" lon="134.1367816"><ele>387.0</ele><time>2026-08-10T23:42:39Z</time></trkpt>
<trkpt lat="34.8471021" lon="134.1367841"><ele>387.0</ele><time>2026-08-10T23:42:40Z</time></trkpt>
<trkpt lat="34.8471079" lon="134.1367867"><ele>387.0</ele><time>2026-08-10T23:42:41Z</time></trkpt>
<trkpt lat="34.8471249" lon="134.1367919"><ele>387.0</ele><time>2026-08-10T23:42:42Z</time></trkpt>
<trkpt lat="34.847131" lon="134.1367924"><ele>387.0</ele><time>2026-08-10T23:42:43Z</time></trkpt>
<trkpt lat="34.8471371" lon="134.1367929"><ele>387.0</ele><time>2026-08-10T23:42:44Z</time></trkpt>
<trkpt lat="34.8471432" lon="134.1367935"><ele>387.0</ele><time>2026-08-10T23:42:45Z</time></trkpt>
<trkpt lat="34.8471605" lon="134.1367933"><ele>387.0</ele><time>2026-08-10T23:42:46Z</time></trkpt>
<trkpt lat="34.8471664" lon="134.1367941"><ele>386.0</ele><time>2026-08-10T23:42:47Z</time></trkpt>
<trkpt lat="34.8471723" lon="134.1367949"><ele>386.0</ele><time>2026-08-10T23:42:48Z</time></trkpt>
<trkpt lat="34.8471782" lon="134.1367957"><ele>386.0</ele><time>2026-08-10T23:42:49Z</time></trkpt>
<trkpt lat="34.8471893" lon="134.1367974"><ele>386.0</ele><time>2026-08-10T23:42:50Z</time></trkpt>
<trkpt lat="34.8471965" lon="134.1367984"><ele>385.0</ele><time>2026-08-10T23:42:51Z</time></trkpt>
<trkpt lat="34.8472037" lon="134.1367995"><ele>385.0</ele><time>2026-08-10T23:42:52Z</time></trkpt>
<trkpt lat="34.847211" lon="134.1368006"><ele>385.0</ele><time>2026-08-10T23:42:53Z</time></trkpt>
<trkpt lat="34.8472334" lon="134.1368106"><ele>385.0</ele><time>2026-08-10T23:42:54Z</time></trkpt>
<trkpt lat="34.84724" lon="134.1368155"><ele>384.0</ele><time>2026-08-10T23:42:55Z</time></trkpt>
<trkpt lat="34.8472467" lon="134.1368204"><ele>384.0</ele><time>2026-08-10T23:42:56Z</time></trkpt>
<trkpt lat="34.8472534" lon="134.1368254"><ele>383.0</ele><time>2026-08-10T23:42:57Z</time></trkpt>
<trkpt lat="34.8472719" lon="134.1368365"><ele>383.0</ele><time>2026-08-10T23:42:58Z</time></trkpt>
<trkpt lat="34.8472782" lon="134.1368397"><ele>382.0</ele><time>2026-08-10T23:42:59Z</time></trkpt>
<trkpt lat="34.8472845" lon="134.136843"><ele>382.0</ele><time>2026-08-10T23:43:00Z</time></trkpt>
<trkpt lat="34.8472909" lon="134.1368463"><ele>382.0</ele><time>2026-08-10T23:43:01Z</time></trkpt>
<trkpt lat="34.8472965" lon="134.136848"><ele>382.0</ele><time>2026-08-10T23:43:02Z</time></trkpt>
<trkpt lat="34.8473021" lon="134.1368498"><ele>381.0</ele><time>2026-08-10T23:43:03Z</time></trkpt>
<trkpt lat="34.8473078" lon="134.1368516"><ele>381.0</ele><time>2026-08-10T23:43:04Z</time></trkpt>
<trkpt lat="34.8473196" lon="134.1368574"><ele>381.0</ele><time>2026-08-10T23:43:05Z</time></trkpt>
<trkpt lat="34.8473238" lon="134.1368634"><ele>381.0</ele><time>2026-08-10T23:43:06Z</time></trkpt>
<trkpt lat="34.847328" lon="134.1368695"><ele>380.0</ele><time>2026-08-10T23:43:07Z</time></trkpt>
<trkpt lat="34.8473323" lon="134.1368756"><ele>380.0</ele><time>2026-08-10T23:43:08Z</time></trkpt>
<trkpt lat="34.8473507" lon="134.1368981"><ele>379.0</ele><time>2026-08-10T23:43:09Z</time></trkpt>
<trkpt lat="34.847354" lon="134.1369012"><ele>379.0</ele><time>2026-08-10T23:43:10Z</time></trkpt>
<trkpt lat="34.8473573" lon="134.1369044"><ele>378.0</ele><time>2026-08-10T23:43:11Z</time></trkpt>
<trkpt lat="34.8473607" lon="134.1369076"><ele>377.0</ele><time>2026-08-10T23:43:12Z</time></trkpt>
<trkpt lat="34.8473761" lon="134.1369151"><ele>376.0</ele><time>2026-08-10T23:43:13Z</time></trkpt>
<trkpt lat="34.8473992" lon="134.136918"><ele>370.0</ele><time>2026-08-10T23:44:08Z</time></trkpt>
<trkpt lat="34.8474273" lon="134.1369213"><ele>369.0</ele><time>2026-08-10T23:44:09Z</time></trkpt>
<trkpt lat="34.8474359" lon="134.1369214"><ele>369.0</ele><time>2026-08-10T23:44:10Z</time></trkpt>
<trkpt lat="34.8474445" lon="134.1369215"><ele>368.0</ele><time>2026-08-10T23:44:11Z</time></trkpt>
<trkpt lat="34.8474532" lon="134.1369216"><ele>368.0</ele><time>2026-08-10T23:44:12Z</time></trkpt>
<trkpt lat="34.8474809" lon="134.136922"><ele>368.0</ele><time>2026-08-10T23:44:13Z</time></trkpt>
<trkpt lat="34.8474886" lon="134.1369233"><ele>368.0</ele><time>2026-08-10T23:44:14Z</time></trkpt>
<trkpt lat="34.8474963" lon="134.1369246"><ele>367.0</ele><time>2026-08-10T23:44:15Z</time></trkpt>
<trkpt lat="34.847504" lon="134.1369259"><ele>367.0</ele><time>2026-08-10T23:44:16Z</time></trkpt>
<trkpt lat="34.8475277" lon="134.1369309"><ele>366.0</ele><time>2026-08-10T23:44:17Z</time></trkpt>
<trkpt lat="34.8475381" lon="134.1369336"><ele>366.0</ele><time>2026-08-10T23:44:18Z</time></trkpt>
<trkpt lat="34.8475485" lon="134.1369364"><ele>365.0</ele><time>2026-08-10T23:44:19Z</time></trkpt>
<trkpt lat="34.8475589" lon="134.1369392"><ele>365.0</ele><time>2026-08-10T23:44:20Z</time></trkpt>
<trkpt lat="34.847589" lon="134.1369492"><ele>364.0</ele><time>2026-08-10T23:44:21Z</time></trkpt>
<trkpt lat="34.847597" lon="134.1369514"><ele>364.0</ele><time>2026-08-10T23:44:22Z</time></trkpt>
<trkpt lat="34.847605" lon="134.1369536"><ele>363.0</ele><time>2026-08-10T23:44:23Z</time></trkpt>
<trkpt lat="34.847613" lon="134.1369558"><ele>363.0</ele><time>2026-08-10T23:44:24Z</time></trkpt>
<trkpt lat="34.8476363" lon="134.1369607"><ele>362.0</ele><time>2026-08-10T23:44:25Z</time></trkpt>
<trkpt lat="34.8476454" lon="134.1369629"><ele>362.0</ele><time>2026-08-10T23:44:26Z</time></trkpt>
<trkpt lat="34.8476545" lon="134.1369652"><ele>361.0</ele><time>2026-08-10T23:44:27Z</time></trkpt>
<trkpt lat="34.8476636" lon="134.1369675"><ele>361.0</ele><time>2026-08-10T23:44:28Z</time></trkpt>
<trkpt lat="34.8476881" lon="134.1369741"><ele>360.0</ele><time>2026-08-10T23:44:29Z</time></trkpt>
<trkpt lat="34.8476942" lon="134.1369747"><ele>360.0</ele><time>2026-08-10T23:44:30Z</time></trkpt>
<trkpt lat="34.8477004" lon="134.1369753"><ele>359.0</ele><time>2026-08-10T23:44:31Z</time></trkpt>
<trkpt lat="34.8477066" lon="134.136976"><ele>359.0</ele><time>2026-08-10T23:44:32Z</time></trkpt>
<trkpt lat="34.8477279" lon="134.1369777"><ele>358.0</ele><time>2026-08-10T23:44:33Z</time></trkpt>
<trkpt lat="34.8477347" lon="134.1369804"><ele>358.0</ele><time>2026-08-10T23:44:34Z</time></trkpt>
<trkpt lat="34.8477415" lon="134.1369831"><ele>357.0</ele><time>2026-08-10T23:44:35Z</time></trkpt>
<trkpt lat="34.8477483" lon="134.1369858"><ele>357.0</ele><time>2026-08-10T23:44:36Z</time></trkpt>
<trkpt lat="34.8477638" lon="134.1369967"><ele>356.0</ele><time>2026-08-10T23:44:37Z</time></trkpt>
<trkpt lat="34.8477667" lon="134.1369975"><ele>356.0</ele><time>2026-08-10T23:44:38Z</time></trkpt>
<trkpt lat="34.8477696" lon="134.1369983"><ele>355.0</ele><time>2026-08-10T23:44:39Z</time></trkpt>
<trkpt lat="34.8477725" lon="134.1369991"><ele>355.0</ele><time>2026-08-10T23:44:40Z</time></trkpt>
<trkpt lat="34.8477754" lon="134.1369999"><ele>355.0</ele><time>2026-08-10T23:44:41Z</time></trkpt>
<trkpt lat="34.847782" lon="134.1369938"><ele>355.0</ele><time>2026-08-10T23:44:42Z</time></trkpt>
<trkpt lat="34.8477864" lon="134.1369895"><ele>354.0</ele><time>2026-08-10T23:44:43Z</time></trkpt>
<trkpt lat="34.8477909" lon="134.1369852"><ele>354.0</ele><time>2026-08-10T23:44:44Z</time></trkpt>
<trkpt lat="34.8477954" lon="134.136981"><ele>353.0</ele><time>2026-08-10T23:44:45Z</time></trkpt>
<trkpt lat="34.8478133" lon="134.1369656"><ele>353.0</ele><time>2026-08-10T23:44:46Z</time></trkpt>
<trkpt lat="34.8478188" lon="134.1369603"><ele>352.0</ele><time>2026-08-10T23:44:47Z</time></trkpt>
<trkpt lat="34.8478244" lon="134.136955"><ele>352.0</ele><time>2026-08-10T23:44:48Z</time></trkpt>
<trkpt lat="34.84783" lon="134.1369497"><ele>352.0</ele><time>2026-08-10T23:44:49Z</time></trkpt>
<trkpt lat="34.8478484" lon="134.1369392"><ele>352.0</ele><time>2026-08-10T23:44:50Z</time></trkpt>
<trkpt lat="34.8478553" lon="134.1369356"><ele>351.0</ele><time>2026-08-10T23:44:51Z</time></trkpt>
<trkpt lat="34.8478622" lon="134.136932"><ele>351.0</ele><time>2026-08-10T23:44:52Z</time></trkpt>
<trkpt lat="34.8478691" lon="134.1369285"><ele>350.0</ele><time>2026-08-10T23:44:53Z</time></trkpt>
<trkpt lat="34.8478858" lon="134.1369139"><ele>350.0</ele><time>2026-08-10T23:44:54Z</time></trkpt>
<trkpt lat="34.8478911" lon="134.1369088"><ele>349.0</ele><time>2026-08-10T23:44:55Z</time></trkpt>
<trkpt lat="34.8478964" lon="134.1369037"><ele>349.0</ele><time>2026-08-10T23:44:56Z</time></trkpt>
<trkpt lat="34.8479018" lon="134.1368986"><ele>348.0</ele><time>2026-08-10T23:44:57Z</time></trkpt>
<trkpt lat="34.8479216" lon="134.136892"><ele>348.0</ele><time>2026-08-10T23:44:58Z</time></trkpt>
<trkpt lat="34.8479287" lon="134.1368906"><ele>347.0</ele><time>2026-08-10T23:44:59Z</time></trkpt>
<trkpt lat="34.8479358" lon="134.1368892"><ele>347.0</ele><time>2026-08-10T23:45:00Z</time></trkpt>
<trkpt lat="34.847943" lon="134.1368878"><ele>346.0</ele><time>2026-08-10T23:45:01Z</time></trkpt>
<trkpt lat="34.8479636" lon="134.1368766"><ele>346.0</ele><time>2026-08-10T23:45:02Z</time></trkpt>
<trkpt lat="34.8479695" lon="134.1368711"><ele>345.0</ele><time>2026-08-10T23:45:03Z</time></trkpt>
<trkpt lat="34.8479754" lon="134.1368656"><ele>345.0</ele><time>2026-08-10T23:45:04Z</time></trkpt>
<trkpt lat="34.8479814" lon="134.1368601"><ele>345.0</ele><time>2026-08-10T23:45:05Z</time></trkpt>
<trkpt lat="34.8479858" lon="134.1368547"><ele>345.0</ele><time>2026-08-10T23:45:06Z</time></trkpt>
<trkpt lat="34.8479902" lon="134.1368493"><ele>344.0</ele><time>2026-08-10T23:45:07Z</time></trkpt>
<trkpt lat="34.8479947" lon="134.1368439"><ele>344.0</ele><time>2026-08-10T23:45:08Z</time></trkpt>
<trkpt lat="34.8479977" lon="134.1368278"><ele>344.0</ele><time>2026-08-10T23:45:09Z</time></trkpt>
<trkpt lat="34.8479968" lon="134.1368227"><ele>344.0</ele><time>2026-08-10T23:45:10Z</time></trkpt>
<trkpt lat="34.847996" lon="134.1368176"><ele>343.0</ele><time>2026-08-10T23:45:11Z</time></trkpt>
<trkpt lat="34.8479952" lon="134.1368125"><ele>343.0</ele><time>2026-08-10T23:45:12Z</time></trkpt>
<trkpt lat="34.847993" lon="134.136798"><ele>343.0</ele><time>2026-08-10T23:45:13Z</time></trkpt>
<trkpt lat="34.8479927" lon="134.136795"><ele>343.0</ele><time>2026-08-10T23:45:14Z</time></trkpt>
<trkpt lat="34.8479925" lon="134.1367921"><ele>342.0</ele><time>2026-08-10T23:45:15Z</time></trkpt>
<trkpt lat="34.8479923" lon="134.1367892"><ele>342.0</ele><time>2026-08-10T23:45:16Z</time></trkpt>
<trkpt lat="34.8479919" lon="134.1367705"><ele>342.0</ele><time>2026-08-10T23:45:17Z</time></trkpt>
<trkpt lat="34.8480078" lon="134.1367531"><ele>341.0</ele><time>2026-08-10T23:45:50Z</time></trkpt>
<trkpt lat="34.848012" lon="134.136752"><ele>341.0</ele><time>2026-08-10T23:45:51Z</time></trkpt>
<trkpt lat="34.8480162" lon="134.136751"><ele>341.0</ele><time>2026-08-10T23:45:52Z</time></trkpt>
<trkpt lat="34.8480204" lon="134.13675"><ele>341.0</ele><time>2026-08-10T23:45:53Z</time></trkpt>
<trkpt lat="34.8480394" lon="134.1367515"><ele>341.0</ele><time>2026-08-10T23:45:54Z</time></trkpt>
<trkpt lat="34.8480447" lon="134.1367547"><ele>340.0</ele><time>2026-08-10T23:45:55Z</time></trkpt>
<trkpt lat="34.84805" lon="134.1367579"><ele>340.0</ele><time>2026-08-10T23:45:56Z</time></trkpt>
<trkpt lat="34.8480553" lon="134.1367611"><ele>340.0</ele><time>2026-08-10T23:45:57Z</time></trkpt>
<trkpt lat="34.8480603" lon="134.136766"><ele>340.0</ele><time>2026-08-10T23:45:58Z</time></trkpt>
<trkpt lat="34.8480653" lon="134.1367709"><ele>340.0</ele><time>2026-08-10T23:45:59Z</time></trkpt>
<trkpt lat="34.8480704" lon="134.1367759"><ele>340.0</ele><time>2026-08-10T23:46:00Z</time></trkpt>
<trkpt lat="34.8480843" lon="134.1367904"><ele>340.0</ele><time>2026-08-10T23:46:01Z</time></trkpt>
<trkpt lat="34.8480898" lon="134.1367957"><ele>340.0</ele><time>2026-08-10T23:46:02Z</time></trkpt>
<trkpt lat="34.8480953" lon="134.136801"><ele>339.0</ele><time>2026-08-10T23:46:03Z</time></trkpt>
<trkpt lat="34.8481009" lon="134.1368063"><ele>339.0</ele><time>2026-08-10T23:46:04Z</time></trkpt>
<trkpt lat="34.8481208" lon="134.1368244"><ele>339.0</ele><time>2026-08-10T23:46:05Z</time></trkpt>
<trkpt lat="34.848129" lon="134.1368306"><ele>339.0</ele><time>2026-08-10T23:46:06Z</time></trkpt>
<trkpt lat="34.8481372" lon="134.1368369"><ele>338.0</ele><time>2026-08-10T23:46:07Z</time></trkpt>
<trkpt lat="34.8481454" lon="134.1368432"><ele>338.0</ele><time>2026-08-10T23:46:08Z</time></trkpt>
<trkpt lat="34.8481746" lon="134.1368604"><ele>338.0</ele><time>2026-08-10T23:46:09Z</time></trkpt>
<trkpt lat="34.8481853" lon="134.1368635"><ele>338.0</ele><time>2026-08-10T23:46:10Z</time></trkpt>
<trkpt lat="34.848196" lon="134.1368666"><ele>337.0</ele><time>2026-08-10T23:46:11Z</time></trkpt>
<trkpt lat="34.8482068" lon="134.1368697"><ele>337.0</ele><time>2026-08-10T23:46:12Z</time></trkpt>
<trkpt lat="34.8482397" lon="134.1368753"><ele>337.0</ele><time>2026-08-10T23:46:13Z</time></trkpt>
<trkpt lat="34.8482502" lon="134.136878"><ele>337.0</ele><time>2026-08-10T23:46:14Z</time></trkpt>
<trkpt lat="34.8482607" lon="134.1368807"><ele>336.0</ele><time>2026-08-10T23:46:15Z</time></trkpt>
<trkpt lat="34.8482713" lon="134.1368834"><ele>336.0</ele><time>2026-08-10T23:46:16Z</time></trkpt>
<trkpt lat="34.8482981" lon="134.1368867"><ele>335.0</ele><time>2026-08-10T23:46:17Z</time></trkpt>
<trkpt lat="34.8483053" lon="134.1368848"><ele>335.0</ele><time>2026-08-10T23:46:18Z</time></trkpt>
<trkpt lat="34.8483125" lon="134.1368829"><ele>335.0</ele><time>2026-08-10T23:46:19Z</time></trkpt>
<trkpt lat="34.8483198" lon="134.1368811"><ele>335.0</ele><time>2026-08-10T23:46:20Z</time></trkpt>
<trkpt lat="34.8483363" lon="134.1368712"><ele>335.0</ele><time>2026-08-10T23:46:21Z</time></trkpt>
<trkpt lat="34.8483415" lon="134.1368674"><ele>335.0</ele><time>2026-08-10T23:46:22Z</time></trkpt>
<trkpt lat="34.8483467" lon="134.1368636"><ele>334.0</ele><time>2026-08-10T23:46:23Z</time></trkpt>
<trkpt lat="34.8483519" lon="134.1368598"><ele>334.0</ele><time>2026-08-10T23:46:24Z</time></trkpt>
<trkpt lat="34.8483765" lon="134.1368512"><ele>334.0</ele><time>2026-08-10T23:46:25Z</time></trkpt>
<trkpt lat="34.8483858" lon="134.1368518"><ele>334.0</ele><time>2026-08-10T23:46:26Z</time></trkpt>
<trkpt lat="34.8483952" lon="134.1368524"><ele>334.0</ele><time>2026-08-10T23:46:27Z</time></trkpt>
<trkpt lat="34.8484046" lon="134.136853"><ele>334.0</ele><time>2026-08-10T23:46:28Z</time></trkpt>
<trkpt lat="34.8484306" lon="134.1368615"><ele>334.0</ele><time>2026-08-10T23:46:29Z</time></trkpt>
<trkpt lat="34.8484383" lon="134.1368639"><ele>334.0</ele><time>2026-08-10T23:46:30Z</time></trkpt>
<trkpt lat="34.8484461" lon="134.1368663"><ele>334.0</ele><time>2026-08-10T23:46:31Z</time></trkpt>
<trkpt lat="34.8484539" lon="134.1368688"><ele>334.0</ele><time>2026-08-10T23:46:32Z</time></trkpt>
<trkpt lat="34.8484741" lon="134.1368729"><ele>334.0</ele><time>2026-08-10T23:46:33Z</time></trkpt>
<trkpt lat="34.8484803" lon="134.136873"><ele>334.0</ele><time>2026-08-10T23:46:34Z</time></trkpt>
<trkpt lat="34.8484865" lon="134.1368732"><ele>333.0</ele><time>2026-08-10T23:46:35Z</time></trkpt>
<trkpt lat="34.8484928" lon="134.1368734"><ele>333.0</ele><time>2026-08-10T23:46:36Z</time></trkpt>
<trkpt lat="34.8485122" lon="134.1368763"><ele>333.0</ele><time>2026-08-10T23:46:37Z</time></trkpt>
<trkpt lat="34.848519" lon="134.1368784"><ele>333.0</ele><time>2026-08-10T23:46:38Z</time></trkpt>
<trkpt lat="34.8485258" lon="134.1368805"><ele>333.0</ele><time>2026-08-10T23:46:39Z</time></trkpt>
<trkpt lat="34.8485326" lon="134.1368827"><ele>333.0</ele><time>2026-08-10T23:46:40Z</time></trkpt>
<trkpt lat="34.8485563" lon="134.136892"><ele>333.0</ele><time>2026-08-10T23:46:41Z</time></trkpt>
<trkpt lat="34.8485648" lon="134.1368956"><ele>333.0</ele><time>2026-08-10T23:46:42Z</time></trkpt>
<trkpt lat="34.8485733" lon="134.1368993"><ele>333.0</ele><time>2026-08-10T23:46:43Z</time></trkpt>
<trkpt lat="34.8485819" lon="134.136903"><ele>333.0</ele><time>2026-08-10T23:46:44Z</time></trkpt>
<trkpt lat="34.8486043" lon="134.1369126"><ele>333.0</ele><time>2026-08-10T23:46:45Z</time></trkpt>
<trkpt lat="34.8486096" lon="134.1369139"><ele>333.0</ele><time>2026-08-10T23:46:46Z</time></trkpt>
<trkpt lat="34.8486149" lon="134.1369152"><ele>333.0</ele><time>2026-08-10T23:46:47Z</time></trkpt>
<trkpt lat="34.8486202" lon="134.1369165"><ele>333.0</ele><time>2026-08-10T23:46:48Z</time></trkpt>
<trkpt lat="34.8486256" lon="134.1369178"><ele>333.0</ele><time>2026-08-10T23:46:49Z</time></trkpt>
<trkpt lat="34.8486476" lon="134.1369242"><ele>334.0</ele><time>2026-08-10T23:46:50Z</time></trkpt>
<trkpt lat="34.8486554" lon="134.1369289"><ele>334.0</ele><time>2026-08-10T23:46:51Z</time></trkpt>
<trkpt lat="34.8486632" lon="134.1369336"><ele>334.0</ele><time>2026-08-10T23:46:52Z</time></trkpt>
<trkpt lat="34.8486711" lon="134.1369383"><ele>334.0</ele><time>2026-08-10T23:46:53Z</time></trkpt>
<trkpt lat="34.8486922" lon="134.1369569"><ele>334.0</ele><time>2026-08-10T23:46:54Z</time></trkpt>
<trkpt lat="34.848697" lon="134.1369658"><ele>334.0</ele><time>2026-08-10T23:46:55Z</time></trkpt>
<trkpt lat="34.8487019" lon="134.1369747"><ele>334.0</ele><time>2026-08-10T23:46:56Z</time></trkpt>
<trkpt lat="34.8487068" lon="134.1369836"><ele>334.0</ele><time>2026-08-10T23:46:57Z</time></trkpt>
<trkpt lat="34.8487175" lon="134.1370109"><ele>334.0</ele><time>2026-08-10T23:46:58Z</time></trkpt>
<trkpt lat="34.8487206" lon="134.1370191"><ele>334.0</ele><time>2026-08-10T23:46:59Z</time></trkpt>
<trkpt lat="34.8487238" lon="134.1370273"><ele>334.0</ele><time>2026-08-10T23:47:00Z</time></trkpt>
<trkpt lat="34.848727" lon="134.1370355"><ele>334.0</ele><time>2026-08-10T23:47:01Z</time></trkpt>
<trkpt lat="34.8487405" lon="134.1370609"><ele>334.0</ele><time>2026-08-10T23:47:02Z</time></trkpt>
<trkpt lat="34.848744" lon="134.1370711"><ele>334.0</ele><time>2026-08-10T23:47:03Z</time></trkpt>
<trkpt lat="34.8487475" lon="134.1370814"><ele>334.0</ele><time>2026-08-10T23:47:04Z</time></trkpt>
<trkpt lat="34.848751" lon="134.1370917"><ele>334.0</ele><time>2026-08-10T23:47:05Z</time></trkpt>
<trkpt lat="34.8487538" lon="134.1371243"><ele>334.0</ele><time>2026-08-10T23:47:06Z</time></trkpt>
<trkpt lat="34.8487524" lon="134.1371358"><ele>334.0</ele><time>2026-08-10T23:47:07Z</time></trkpt>
<trkpt lat="34.8487511" lon="134.1371473"><ele>334.0</ele><time>2026-08-10T23:47:08Z</time></trkpt>
<trkpt lat="34.8487498" lon="134.1371588"><ele>334.0</ele><time>2026-08-10T23:47:09Z</time></trkpt>
<trkpt lat="34.8487449" lon="134.1371938"><ele>334.0</ele><time>2026-08-10T23:47:10Z</time></trkpt>
<trkpt lat="34.8487434" lon="134.1372041"><ele>334.0</ele><time>2026-08-10T23:47:11Z</time></trkpt>
<trkpt lat="34.848742" lon="134.1372144"><ele>334.0</ele><time>2026-08-10T23:47:12Z</time></trkpt>
<trkpt lat="34.8487406" lon="134.1372248"><ele>334.0</ele><time>2026-08-10T23:47:13Z</time></trkpt>
<trkpt lat="34.8487388" lon="134.1372553"><ele>334.0</ele><time>2026-08-10T23:47:14Z</time></trkpt>
<trkpt lat="34.8487387" lon="134.1372668"><ele>333.0</ele><time>2026-08-10T23:47:15Z</time></trkpt>
<trkpt lat="34.8487387" lon="134.1372783"><ele>333.0</ele><time>2026-08-10T23:47:16Z</time></trkpt>
<trkpt lat="34.8487387" lon="134.1372899"><ele>333.0</ele><time>2026-08-10T23:47:17Z</time></trkpt>
<trkpt lat="34.8487366" lon="134.1373253"><ele>333.0</ele><time>2026-08-10T23:47:18Z</time></trkpt>
<trkpt lat="34.8487359" lon="134.1373352"><ele>333.0</ele><time>2026-08-10T23:47:19Z</time></trkpt>
<trkpt lat="34.8487352" lon="134.1373451"><ele>333.0</ele><time>2026-08-10T23:47:20Z</time></trkpt>
<trkpt lat="34.8487346" lon="134.137355"><ele>333.0</ele><time>2026-08-10T23:47:21Z</time></trkpt>
<trkpt lat="34.8487363" lon="134.1373815"><ele>333.0</ele><time>2026-08-10T23:47:22Z</time></trkpt>
<trkpt lat="34.8487374" lon="134.1373893"><ele>333.0</ele><time>2026-08-10T23:47:23Z</time></trkpt>
<trkpt lat="34.8487386" lon="134.1373971"><ele>333.0</ele><time>2026-08-10T23:47:24Z</time></trkpt>
<trkpt lat="34.8487398" lon="134.1374049"><ele>333.0</ele><time>2026-08-10T23:47:25Z</time></trkpt>
<trkpt lat="34.8487356" lon="134.1374266"><ele>333.0</ele><time>2026-08-10T23:47:26Z</time></trkpt>
<trkpt lat="34.8487225" lon="134.137446"><ele>333.0</ele><time>2026-08-10T23:47:43Z</time></trkpt>
<trkpt lat="34.848715" lon="134.1374597"><ele>333.0</ele><time>2026-08-10T23:47:44Z</time></trkpt>
<trkpt lat="34.848713" lon="134.137465"><ele>333.0</ele><time>2026-08-10T23:47:45Z</time></trkpt>
<trkpt lat="34.848711" lon="134.1374703"><ele>333.0</ele><time>2026-08-10T23:47:46Z</time></trkpt>
<trkpt lat="34.848709" lon="134.1374756"><ele>332.0</ele><time>2026-08-10T23:47:47Z</time></trkpt>
<trkpt lat="34.8487086" lon="134.1374779"><ele>332.0</ele><time>2026-08-10T23:47:48Z</time></trkpt>
<trkpt lat="34.8487083" lon="134.1374803"><ele>332.0</ele><time>2026-08-10T23:47:49Z</time></trkpt>
<trkpt lat="34.848708" lon="134.1374826"><ele>332.0</ele><time>2026-08-10T23:47:50Z</time></trkpt>
<trkpt lat="34.8487077" lon="134.137485"><ele>332.0</ele><time>2026-08-10T23:47:51Z</time></trkpt>
<trkpt lat="34.8487074" lon="134.1374874"><ele>332.0</ele><time>2026-08-10T23:47:52Z</time></trkpt>
<trkpt lat="34.8487101" lon="134.1375076"><ele>332.0</ele><time>2026-08-10T23:47:53Z</time></trkpt>
<trkpt lat="34.8487117" lon="134.1375149"><ele>332.0</ele><time>2026-08-10T23:47:54Z</time></trkpt>
<trkpt lat="34.8487134" lon="134.1375222"><ele>331.0</ele><time>2026-08-10T23:47:55Z</time></trkpt>
<trkpt lat="34.8487151" lon="134.1375295"><ele>331.0</ele><time>2026-08-10T23:47:56Z</time></trkpt>
<trkpt lat="34.8487245" lon="134.1375485"><ele>331.0</ele><time>2026-08-10T23:47:57Z</time></trkpt>
<trkpt lat="34.8487295" lon="134.1375542"><ele>331.0</ele><time>2026-08-10T23:47:58Z</time></trkpt>
<trkpt lat="34.8487345" lon="134.13756"><ele>330.0</ele><time>2026-08-10T23:47:59Z</time></trkpt>
<trkpt lat="34.8487395" lon="134.1375658"><ele>330.0</ele><time>2026-08-10T23:48:00Z</time></trkpt>
<trkpt lat="34.8487549" lon="134.1375862"><ele>330.0</ele><time>2026-08-10T23:48:01Z</time></trkpt>
<trkpt lat="34.8487586" lon="134.1375938"><ele>330.0</ele><time>2026-08-10T23:48:02Z</time></trkpt>
<trkpt lat="34.8487623" lon="134.1376014"><ele>329.0</ele><time>2026-08-10T23:48:03Z</time></trkpt>
<trkpt lat="34.8487661" lon="134.1376091"><ele>329.0</ele><time>2026-08-10T23:48:04Z</time></trkpt>
<trkpt lat="34.8487711" lon="134.1376269"><ele>329.0</ele><time>2026-08-10T23:48:05Z</time></trkpt>
<trkpt lat="34.8487721" lon="134.1376318"><ele>329.0</ele><time>2026-08-10T23:48:06Z</time></trkpt>
<trkpt lat="34.8487732" lon="134.1376367"><ele>328.0</ele><time>2026-08-10T23:48:07Z</time></trkpt>
<trkpt lat="34.8487743" lon="134.1376416"><ele>328.0</ele><time>2026-08-10T23:48:08Z</time></trkpt>
<trkpt lat="34.8487773" lon="134.1376551"><ele>328.0</ele><time>2026-08-10T23:48:09Z</time></trkpt>
<trkpt lat="34.8487786" lon="134.1376585"><ele>328.0</ele><time>2026-08-10T23:48:10Z</time></trkpt>
<trkpt lat="34.84878" lon="134.137662"><ele>328.0</ele><time>2026-08-10T23:48:11Z</time></trkpt>
<trkpt lat="34.8487814" lon="134.1376655"><ele>328.0</ele><time>2026-08-10T23:48:12Z</time></trkpt>
<trkpt lat="34.8487857" lon="134.1376799"><ele>328.0</ele><time>2026-08-10T23:48:13Z</time></trkpt>
<trkpt lat="34.8487866" lon="134.1376869"><ele>328.0</ele><time>2026-08-10T23:48:14Z</time></trkpt>
<trkpt lat="34.8487875" lon="134.1376939"><ele>327.0</ele><time>2026-08-10T23:48:15Z</time></trkpt>
<trkpt lat="34.8487884" lon="134.137701"><ele>327.0</ele><time>2026-08-10T23:48:16Z</time></trkpt>
<trkpt lat="34.8487958" lon="134.1377186"><ele>327.0</ele><time>2026-08-10T23:48:17Z</time></trkpt>
<trkpt lat="34.8487862" lon="134.1377181"><ele>327.0</ele><time>2026-08-10T23:48:30Z</time></trkpt>
<trkpt lat="34.8487695" lon="134.1377124"><ele>327.0</ele><time>2026-08-10T23:48:31Z</time></trkpt>
<trkpt lat="34.848763" lon="134.1377094"><ele>327.0</ele><time>2026-08-10T23:48:32Z</time></trkpt>
<trkpt lat="34.8487565" lon="134.1377064"><ele>327.0</ele><time>2026-08-10T23:48:33Z</time></trkpt>
<trkpt lat="34.8487501" lon="134.1377034"><ele>327.0</ele><time>2026-08-10T23:48:34Z</time></trkpt>
<trkpt lat="34.8487297" lon="134.1377046"><ele>326.0</ele><time>2026-08-10T23:48:35Z</time></trkpt>
<trkpt lat="34.8487278" lon="134.1377081"><ele>326.0</ele><time>2026-08-10T23:48:36Z</time></trkpt>
<trkpt lat="34.848726" lon="134.1377117"><ele>326.0</ele><time>2026-08-10T23:48:37Z</time></trkpt>
<trkpt lat="34.8487242" lon="134.1377153"><ele>326.0</ele><time>2026-08-10T23:48:38Z</time></trkpt>
<trkpt lat="34.8487323" lon="134.1377297"><ele>325.0</ele><time>2026-08-10T23:48:39Z</time></trkpt>
<trkpt lat="34.8487362" lon="134.1377355"><ele>325.0</ele><time>2026-08-10T23:48:40Z</time></trkpt>
<trkpt lat="34.8487401" lon="134.1377413"><ele>325.0</ele><time>2026-08-10T23:48:41Z</time></trkpt>
<trkpt lat="34.848744" lon="134.1377471"><ele>325.0</ele><time>2026-08-10T23:48:42Z</time></trkpt>
<trkpt lat="34.8487494" lon="134.1377681"><ele>324.0</ele><time>2026-08-10T23:48:43Z</time></trkpt>
<trkpt lat="34.8487502" lon="134.137777"><ele>324.0</ele><time>2026-08-10T23:48:44Z</time></trkpt>
<trkpt lat="34.8487511" lon="134.1377859"><ele>324.0</ele><time>2026-08-10T23:48:45Z</time></trkpt>
<trkpt lat="34.848752" lon="134.1377948"><ele>324.0</ele><time>2026-08-10T23:48:46Z</time></trkpt>
<trkpt lat="34.8487506" lon="134.1378254"><ele>323.0</ele><time>2026-08-10T23:48:47Z</time></trkpt>
<trkpt lat="34.8487473" lon="134.1378365"><ele>323.0</ele><time>2026-08-10T23:48:48Z</time></trkpt>
<trkpt lat="34.8487441" lon="134.1378476"><ele>322.0</ele><time>2026-08-10T23:48:49Z</time></trkpt>
<trkpt lat="34.8487409" lon="134.1378588"><ele>322.0</ele><time>2026-08-10T23:48:50Z</time></trkpt>
<trkpt lat="34.848723" lon="134.1378914"><ele>321.0</ele><time>2026-08-10T23:48:51Z</time></trkpt>
<trkpt lat="34.848716" lon="134.1379007"><ele>321.0</ele><time>2026-08-10T23:48:52Z</time></trkpt>
<trkpt lat="34.848709" lon="134.13791"><ele>321.0</ele><time>2026-08-10T23:48:53Z</time></trkpt>
<trkpt lat="34.8487021" lon="134.1379193"><ele>321.0</ele><time>2026-08-10T23:48:54Z</time></trkpt>
<trkpt lat="34.8486836" lon="134.1379474"><ele>320.0</ele><time>2026-08-10T23:48:55Z</time></trkpt>
<trkpt lat="34.8486789" lon="134.1379575"><ele>320.0</ele><time>2026-08-10T23:48:56Z</time></trkpt>
<trkpt lat="34.8486743" lon="134.1379677"><ele>319.0</ele><time>2026-08-10T23:48:57Z</time></trkpt>
<trkpt lat="34.8486697" lon="134.1379779"><ele>319.0</ele><time>2026-08-10T23:48:58Z</time></trkpt>
<trkpt lat="34.8486602" lon="134.1380051"><ele>318.0</ele><time>2026-08-10T23:48:59Z</time></trkpt>
<trkpt lat="34.8486582" lon="134.1380142"><ele>318.0</ele><time>2026-08-10T23:49:00Z</time></trkpt>
<trkpt lat="34.8486562" lon="134.1380233"><ele>318.0</ele><time>2026-08-10T23:49:01Z</time></trkpt>
<trkpt lat="34.8486542" lon="134.1380325"><ele>318.0</ele><time>2026-08-10T23:49:02Z</time></trkpt>
<trkpt lat="34.8486496" lon="134.1380564"><ele>317.0</ele><time>2026-08-10T23:49:03Z</time></trkpt>
<trkpt lat="34.8486483" lon="134.1380646"><ele>317.0</ele><time>2026-08-10T23:49:04Z</time></trkpt>
<trkpt lat="34.848647" lon="134.1380729"><ele>316.0</ele><time>2026-08-10T23:49:05Z</time></trkpt>
<trkpt lat="34.8486457" lon="134.1380812"><ele>316.0</ele><time>2026-08-10T23:49:06Z</time></trkpt>
<trkpt lat="34.848639" lon="134.1381061"><ele>315.0</ele><time>2026-08-10T23:49:07Z</time></trkpt>
<trkpt lat="34.8486377" lon="134.1381104"><ele>315.0</ele><time>2026-08-10T23:49:08Z</time></trkpt>
<trkpt lat="34.8486364" lon="134.1381148"><ele>315.0</ele><time>2026-08-10T23:49:09Z</time></trkpt>
<trkpt lat="34.8486352" lon="134.1381192"><ele>315.0</ele><time>2026-08-10T23:49:10Z</time></trkpt>
<trkpt lat="34.8486348" lon="134.1381262"><ele>314.0</ele><time>2026-08-10T23:49:11Z</time></trkpt>
<trkpt lat="34.8486344" lon="134.1381332"><ele>314.0</ele><time>2026-08-10T23:49:12Z</time></trkpt>
<trkpt lat="34.848634" lon="134.1381403"><ele>314.0</ele><time>2026-08-10T23:49:13Z</time></trkpt>
<trkpt lat="34.8486347" lon="134.1381598"><ele>314.0</ele><time>2026-08-10T23:49:14Z</time></trkpt>
<trkpt lat="34.8486346" lon="134.1381689"><ele>313.0</ele><time>2026-08-10T23:49:15Z</time></trkpt>
<trkpt lat="34.8486345" lon="134.138178"><ele>313.0</ele><time>2026-08-10T23:49:16Z</time></trkpt>
<trkpt lat="34.8486345" lon="134.1381872"><ele>313.0</ele><time>2026-08-10T23:49:17Z</time></trkpt>
<trkpt lat="34.8486337" lon="134.1382293"><ele>313.0</ele><time>2026-08-10T23:49:18Z</time></trkpt>
<trkpt lat="34.8486328" lon="134.1382458"><ele>312.0</ele><time>2026-08-10T23:49:19Z</time></trkpt>
<trkpt lat="34.848632" lon="134.1382623"><ele>312.0</ele><time>2026-08-10T23:49:20Z</time></trkpt>
<trkpt lat="34.8486312" lon="134.1382788"><ele>311.0</ele><time>2026-08-10T23:49:21Z</time></trkpt>
<trkpt lat="34.8486278" lon="134.1383177"><ele>311.0</ele><time>2026-08-10T23:49:22Z</time></trkpt>
<trkpt lat="34.848627" lon="134.1383264"><ele>310.0</ele><time>2026-08-10T23:49:23Z</time></trkpt>
<trkpt lat="34.8486263" lon="134.1383352"><ele>310.0</ele><time>2026-08-10T23:49:24Z</time></trkpt>
<trkpt lat="34.8486256" lon="134.138344"><ele>310.0</ele><time>2026-08-10T23:49:25Z</time></trkpt>
<trkpt lat="34.848623" lon="134.1383639"><ele>310.0</ele><time>2026-08-10T23:49:26Z</time></trkpt>
<trkpt lat="34.8486231" lon="134.1383699"><ele>309.0</ele><time>2026-08-10T23:49:27Z</time></trkpt>
<trkpt lat="34.8486232" lon="134.1383759"><ele>309.0</ele><time>2026-08-10T23:49:28Z</time></trkpt>
<trkpt lat="34.8486233" lon="134.1383819"><ele>308.0</ele><time>2026-08-10T23:49:29Z</time></trkpt>
<trkpt lat="34.8486254" lon="134.1384046"><ele>308.0</ele><time>2026-08-10T23:49:30Z</time></trkpt>
<trkpt lat="34.8486257" lon="134.1384133"><ele>308.0</ele><time>2026-08-10T23:49:31Z</time></trkpt>
<trkpt lat="34.848626" lon="134.138422"><ele>308.0</ele><time>2026-08-10T23:49:32Z</time></trkpt>
<trkpt lat="34.8486263" lon="134.1384307"><ele>308.0</ele><time>2026-08-10T23:49:33Z</time></trkpt>
<trkpt lat="34.8486242" lon="134.1384563"><ele>308.0</ele><time>2026-08-10T23:49:34Z</time></trkpt>
<trkpt lat="34.8486226" lon="134.1384638"><ele>307.0</ele><time>2026-08-10T23:49:35Z</time></trkpt>
<trkpt lat="34.8486211" lon="134.1384713"><ele>307.0</ele><time>2026-08-10T23:49:36Z</time></trkpt>
<trkpt lat="34.8486196" lon="134.1384788"><ele>307.0</ele><time>2026-08-10T23:49:37Z</time></trkpt>
<trkpt lat="34.8486151" lon="134.1385026"><ele>307.0</ele><time>2026-08-10T23:49:38Z</time></trkpt>
<trkpt lat="34.8486134" lon="134.138511"><ele>306.0</ele><time>2026-08-10T23:49:39Z</time></trkpt>
<trkpt lat="34.8486117" lon="134.1385194"><ele>306.0</ele><time>2026-08-10T23:49:40Z</time></trkpt>
<trkpt lat="34.8486101" lon="134.1385278"><ele>305.0</ele><time>2026-08-10T23:49:41Z</time></trkpt>
<trkpt lat="34.8486067" lon="134.138553"><ele>305.0</ele><time>2026-08-10T23:49:42Z</time></trkpt>
<trkpt lat="34.8486064" lon="134.1385614"><ele>304.0</ele><time>2026-08-10T23:49:43Z</time></trkpt>
<trkpt lat="34.8486061" lon="134.1385698"><ele>304.0</ele><time>2026-08-10T23:49:44Z</time></trkpt>
<trkpt lat="34.8486059" lon="134.1385782"><ele>304.0</ele><time>2026-08-10T23:49:45Z</time></trkpt>
<trkpt lat="34.8486057" lon="134.1386154"><ele>304.0</ele><time>2026-08-10T23:49:46Z</time></trkpt>
<trkpt lat="34.8486054" lon="134.1386531"><ele>302.0</ele><time>2026-08-10T23:49:55Z</time></trkpt>
<trkpt lat="34.8486049" lon="134.1386713"><ele>302.0</ele><time>2026-08-10T23:49:56Z</time></trkpt>
<trkpt lat="34.8486049" lon="134.1386756"><ele>302.0</ele><time>2026-08-10T23:49:57Z</time></trkpt>
<trkpt lat="34.848605" lon="134.1386799"><ele>302.0</ele><time>2026-08-10T23:49:58Z</time></trkpt>
<trkpt lat="34.8486051" lon="134.1386843"><ele>301.0</ele><time>2026-08-10T23:49:59Z</time></trkpt>
<trkpt lat="34.8486037" lon="134.1387031"><ele>301.0</ele><time>2026-08-10T23:50:00Z</time></trkpt>
<trkpt lat="34.8486039" lon="134.1387127"><ele>301.0</ele><time>2026-08-10T23:50:01Z</time></trkpt>
<trkpt lat="34.8486041" lon="134.1387223"><ele>301.0</ele><time>2026-08-10T23:50:02Z</time></trkpt>
<trkpt lat="34.8486044" lon="134.1387319"><ele>300.0</ele><time>2026-08-10T23:50:03Z</time></trkpt>
<trkpt lat="34.8486006" lon="134.1387735"><ele>300.0</ele><time>2026-08-10T23:50:04Z</time></trkpt>
<trkpt lat="34.8485999" lon="134.1387909"><ele>300.0</ele><time>2026-08-10T23:50:05Z</time></trkpt>
<trkpt lat="34.8485992" lon="134.1388083"><ele>300.0</ele><time>2026-08-10T23:50:06Z</time></trkpt>
<trkpt lat="34.8485986" lon="134.1388258"><ele>299.0</ele><time>2026-08-10T23:50:07Z</time></trkpt>
<trkpt lat="34.848602" lon="134.1388755"><ele>299.0</ele><time>2026-08-10T23:50:08Z</time></trkpt>
<trkpt lat="34.8486044" lon="134.1388908"><ele>298.0</ele><time>2026-08-10T23:50:09Z</time></trkpt>
<trkpt lat="34.8486068" lon="134.1389061"><ele>298.0</ele><time>2026-08-10T23:50:10Z</time></trkpt>
<trkpt lat="34.8486092" lon="134.1389214"><ele>297.0</ele><time>2026-08-10T23:50:11Z</time></trkpt>
<trkpt lat="34.848621" lon="134.1389659"><ele>297.0</ele><time>2026-08-10T23:50:12Z</time></trkpt>
<trkpt lat="34.848625" lon="134.1389815"><ele>297.0</ele><time>2026-08-10T23:50:13Z</time></trkpt>
<trkpt lat="34.8486291" lon="134.1389972"><ele>297.0</ele><time>2026-08-10T23:50:14Z</time></trkpt>
<trkpt lat="34.8486332" lon="134.1390129"><ele>296.0</ele><time>2026-08-10T23:50:15Z</time></trkpt>
<trkpt lat="34.8486438" lon="134.1390629"><ele>296.0</ele><time>2026-08-10T23:50:16Z</time></trkpt>
<trkpt lat="34.8486473" lon="134.139079"><ele>296.0</ele><time>2026-08-10T23:50:17Z</time></trkpt>
<trkpt lat="34.8486508" lon="134.1390951"><ele>296.0</ele><time>2026-08-10T23:50:18Z</time></trkpt>
<trkpt lat="34.8486544" lon="134.1391113"><ele>295.0</ele><time>2026-08-10T23:50:19Z</time></trkpt>
<trkpt lat="34.8486694" lon="134.1391578"><ele>295.0</ele><time>2026-08-10T23:50:20Z</time></trkpt>
<trkpt lat="34.8486741" lon="134.1391737"><ele>295.0</ele><time>2026-08-10T23:50:21Z</time></trkpt>
<trkpt lat="34.8486788" lon="134.1391896"><ele>295.0</ele><time>2026-08-10T23:50:22Z</time></trkpt>
<trkpt lat="34.8486835" lon="134.1392055"><ele>295.0</ele><time>2026-08-10T23:50:23Z</time></trkpt>
<trkpt lat="34.8486924" lon="134.1392534"><ele>295.0</ele><time>2026-08-10T23:50:24Z</time></trkpt>
<trkpt lat="34.848694" lon="134.1392699"><ele>295.0</ele><time>2026-08-10T23:50:25Z</time></trkpt>
<trkpt lat="34.8486956" lon="134.1392865"><ele>295.0</ele><time>2026-08-10T23:50:26Z</time></trkpt>
<trkpt lat="34.8486973" lon="134.1393031"><ele>295.0</ele><time>2026-08-10T23:50:27Z</time></trkpt>
<trkpt lat="34.8487008" lon="134.1393562"><ele>295.0</ele><time>2026-08-10T23:50:28Z</time></trkpt>
<trkpt lat="34.8487032" lon="134.1393733"><ele>295.0</ele><time>2026-08-10T23:50:29Z</time></trkpt>
<trkpt lat="34.8487057" lon="134.1393904"><ele>295.0</ele><time>2026-08-10T23:50:30Z</time></trkpt>
<trkpt lat="34.8487082" lon="134.1394075"><ele>294.0</ele><time>2026-08-10T23:50:31Z</time></trkpt>
<trkpt lat="34.8487195" lon="134.1394533"><ele>294.0</ele><time>2026-08-10T23:50:32Z</time></trkpt>
<trkpt lat="34.8487221" lon="134.1394686"><ele>294.0</ele><time>2026-08-10T23:50:33Z</time></trkpt>
<trkpt lat="34.8487248" lon="134.139484"><ele>294.0</ele><time>2026-08-10T23:50:34Z</time></trkpt>
<trkpt lat="34.8487275" lon="134.1394994"><ele>293.0</ele><time>2026-08-10T23:50:35Z</time></trkpt>
<trkpt lat="34.8487305" lon="134.139553"><ele>293.0</ele><time>2026-08-10T23:50:36Z</time></trkpt>
<trkpt lat="34.8487299" lon="134.1395698"><ele>292.0</ele><time>2026-08-10T23:50:37Z</time></trkpt>
<trkpt lat="34.8487294" lon="134.1395866"><ele>292.0</ele><time>2026-08-10T23:50:38Z</time></trkpt>
<trkpt lat="34.8487289" lon="134.1396035"><ele>291.0</ele><time>2026-08-10T23:50:39Z</time></trkpt>
<trkpt lat="34.8487308" lon="134.1396545"><ele>291.0</ele><time>2026-08-10T23:50:40Z</time></trkpt>
<trkpt lat="34.8487336" lon="134.1396714"><ele>291.0</ele><time>2026-08-10T23:50:41Z</time></trkpt>
<trkpt lat="34.8487365" lon="134.1396884"><ele>291.0</ele><time>2026-08-10T23:50:42Z</time></trkpt>
<trkpt lat="34.8487394" lon="134.1397054"><ele>290.0</ele><time>2026-08-10T23:50:43Z</time></trkpt>
<trkpt lat="34.8487512" lon="134.1397553"><ele>290.0</ele><time>2026-08-10T23:50:44Z</time></trkpt>
<trkpt lat="34.8487552" lon="134.1397718"><ele>289.0</ele><time>2026-08-10T23:50:45Z</time></trkpt>
<trkpt lat="34.8487593" lon="134.1397883"><ele>289.0</ele><time>2026-08-10T23:50:46Z</time></trkpt>
<trkpt lat="34.8487634" lon="134.1398049"><ele>288.0</ele><time>2026-08-10T23:50:47Z</time></trkpt>
<trkpt lat="34.8487727" lon="134.1398545"><ele>288.0</ele><time>2026-08-10T23:50:48Z</time></trkpt>
<trkpt lat="34.8487731" lon="134.1398707"><ele>287.0</ele><time>2026-08-10T23:50:49Z</time></trkpt>
<trkpt lat="34.8487736" lon="134.1398869"><ele>287.0</ele><time>2026-08-10T23:50:50Z</time></trkpt>
<trkpt lat="34.8487741" lon="134.1399032"><ele>286.0</ele><time>2026-08-10T23:50:51Z</time></trkpt>
<trkpt lat="34.8487692" lon="134.1399572"><ele>286.0</ele><time>2026-08-10T23:50:52Z</time></trkpt>
<trkpt lat="34.8487657" lon="134.1399752"><ele>285.0</ele><time>2026-08-10T23:50:53Z</time></trkpt>
<trkpt lat="34.8487622" lon="134.1399932"><ele>285.0</ele><time>2026-08-10T23:50:54Z</time></trkpt>
<trkpt lat="34.8487588" lon="134.1400112"><ele>284.0</ele><time>2026-08-10T23:50:55Z</time></trkpt>
<trkpt lat="34.8487416" lon="134.1400538"><ele>284.0</ele><time>2026-08-10T23:50:56Z</time></trkpt>
<trkpt lat="34.8487355" lon="134.1400626"><ele>283.0</ele><time>2026-08-10T23:50:57Z</time></trkpt>
<trkpt lat="34.8487294" lon="134.1400714"><ele>283.0</ele><time>2026-08-10T23:50:58Z</time></trkpt>
<trkpt lat="34.8487233" lon="134.1400802"><ele>282.0</ele><time>2026-08-10T23:50:59Z</time></trkpt>
<trkpt lat="34.848707" lon="134.1400979"><ele>282.0</ele><time>2026-08-10T23:51:00Z</time></trkpt>
<trkpt lat="34.8487026" lon="134.1401026"><ele>282.0</ele><time>2026-08-10T23:51:01Z</time></trkpt>
<trkpt lat="34.8486982" lon="134.1401074"><ele>282.0</ele><time>2026-08-10T23:51:02Z</time></trkpt>
<trkpt lat="34.8486938" lon="134.1401122"><ele>281.0</ele><time>2026-08-10T23:51:03Z</time></trkpt>
<trkpt lat="34.8486807" lon="134.1401252"><ele>281.0</ele><time>2026-08-10T23:51:04Z</time></trkpt>
<trkpt lat="34.8486765" lon="134.1401286"><ele>280.0</ele><time>2026-08-10T23:51:05Z</time></trkpt>
<trkpt lat="34.8486724" lon="134.140132"><ele>280.0</ele><time>2026-08-10T23:51:06Z</time></trkpt>
<trkpt lat="34.8486683" lon="134.1401355"><ele>279.0</ele><time>2026-08-10T23:51:07Z</time></trkpt>
<trkpt lat="34.8486512" lon="134.1401381"><ele>279.0</ele><time>2026-08-10T23:51:08Z</time></trkpt>
<trkpt lat="34.8486392" lon="134.1401456"><ele>278.0</ele><time>2026-08-10T23:52:39Z</time></trkpt>
<trkpt lat="34.8486257" lon="134.1401581"><ele>278.0</ele><time>2026-08-10T23:52:40Z</time></trkpt>
<trkpt lat="34.8486236" lon="134.1401625"><ele>278.0</ele><time>2026-08-10T23:52:41Z</time></trkpt>
<trkpt lat="34.8486215" lon="134.1401669"><ele>278.0</ele><time>2026-08-10T23:52:42Z</time></trkpt>
<trkpt lat="34.8486195" lon="134.1401714"><ele>277.0</ele><time>2026-08-10T23:52:43Z</time></trkpt>
<trkpt lat="34.8486169" lon="134.1401891"><ele>277.0</ele><time>2026-08-10T23:52:44Z</time></trkpt>
<trkpt lat="34.8486163" lon="134.1401949"><ele>277.0</ele><time>2026-08-10T23:52:45Z</time></trkpt>
<trkpt lat="34.8486157" lon="134.1402008"><ele>277.0</ele><time>2026-08-10T23:52:46Z</time></trkpt>
<trkpt lat="34.8486151" lon="134.1402067"><ele>277.0</ele><time>2026-08-10T23:52:47Z</time></trkpt>
<trkpt lat="34.8486073" lon="134.1402214"><ele>277.0</ele><time>2026-08-10T23:52:48Z</time></trkpt>
<trkpt lat="34.8486034" lon="134.1402255"><ele>277.0</ele><time>2026-08-10T23:52:49Z</time></trkpt>
<trkpt lat="34.8485995" lon="134.1402296"><ele>277.0</ele><time>2026-08-10T23:52:50Z</time></trkpt>
<trkpt lat="34.8485956" lon="134.1402338"><ele>276.0</ele><time>2026-08-10T23:52:51Z</time></trkpt>
<trkpt lat="34.8485856" lon="134.14025"><ele>276.0</ele><time>2026-08-10T23:52:52Z</time></trkpt>
<trkpt lat="34.8485823" lon="134.1402582"><ele>276.0</ele><time>2026-08-10T23:52:53Z</time></trkpt>
<trkpt lat="34.848579" lon="134.1402665"><ele>276.0</ele><time>2026-08-10T23:52:54Z</time></trkpt>
<trkpt lat="34.8485757" lon="134.1402748"><ele>275.0</ele><time>2026-08-10T23:52:55Z</time></trkpt>
<trkpt lat="34.8485642" lon="134.1403071"><ele>275.0</ele><time>2026-08-10T23:52:56Z</time></trkpt>
<trkpt lat="34.8485612" lon="134.1403186"><ele>275.0</ele><time>2026-08-10T23:52:57Z</time></trkpt>
<trkpt lat="34.8485582" lon="134.1403301"><ele>275.0</ele><time>2026-08-10T23:52:58Z</time></trkpt>
<trkpt lat="34.8485552" lon="134.1403417"><ele>274.0</ele><time>2026-08-10T23:52:59Z</time></trkpt>
<trkpt lat="34.8485479" lon="134.140376"><ele>274.0</ele><time>2026-08-10T23:53:00Z</time></trkpt>
<trkpt lat="34.8485451" lon="134.1403858"><ele>274.0</ele><time>2026-08-10T23:53:01Z</time></trkpt>
<trkpt lat="34.8485423" lon="134.1403956"><ele>274.0</ele><time>2026-08-10T23:53:02Z</time></trkpt>
<trkpt lat="34.8485396" lon="134.1404055"><ele>273.0</ele><time>2026-08-10T23:53:03Z</time></trkpt>
<trkpt lat="34.8485302" lon="134.1404311"><ele>273.0</ele><time>2026-08-10T23:53:04Z</time></trkpt>
<trkpt lat="34.8485262" lon="134.1404399"><ele>272.0</ele><time>2026-08-10T23:53:05Z</time></trkpt>
<trkpt lat="34.8485223" lon="134.1404487"><ele>272.0</ele><time>2026-08-10T23:53:06Z</time></trkpt>
<trkpt lat="34.8485184" lon="134.1404576"><ele>271.0</ele><time>2026-08-10T23:53:07Z</time></trkpt>
<trkpt lat="34.848501" lon="134.1404836"><ele>271.0</ele><time>2026-08-10T23:53:08Z</time></trkpt>
<trkpt lat="34.8484963" lon="134.1404905"><ele>271.0</ele><time>2026-08-10T23:53:09Z</time></trkpt>
<trkpt lat="34.8484916" lon="134.1404974"><ele>271.0</ele><time>2026-08-10T23:53:10Z</time></trkpt>
<trkpt lat="34.8484869" lon="134.1405044"><ele>270.0</ele><time>2026-08-10T23:53:11Z</time></trkpt>
<trkpt lat="34.8484831" lon="134.1405299"><ele>270.0</ele><time>2026-08-10T23:53:12Z</time></trkpt>
<trkpt lat="34.848484" lon="134.1405399"><ele>270.0</ele><time>2026-08-10T23:53:13Z</time></trkpt>
<trkpt lat="34.8484849" lon="134.14055"><ele>270.0</ele><time>2026-08-10T23:53:14Z</time></trkpt>
<trkpt lat="34.8484858" lon="134.1405601"><ele>269.0</ele><time>2026-08-10T23:53:15Z</time></trkpt>
<trkpt lat="34.84849" lon="134.1405911"><ele>269.0</ele><time>2026-08-10T23:53:16Z</time></trkpt>
<trkpt lat="34.8484912" lon="134.1406028"><ele>269.0</ele><time>2026-08-10T23:53:17Z</time></trkpt>
<trkpt lat="34.8484924" lon="134.1406145"><ele>269.0</ele><time>2026-08-10T23:53:18Z</time></trkpt>
<trkpt lat="34.8484937" lon="134.1406262"><ele>269.0</ele><time>2026-08-10T23:53:19Z</time></trkpt>
<trkpt lat="34.8484968" lon="134.1406621"><ele>269.0</ele><time>2026-08-10T23:53:20Z</time></trkpt>
<trkpt lat="34.8484975" lon="134.1406749"><ele>269.0</ele><time>2026-08-10T23:53:21Z</time></trkpt>
<trkpt lat="34.8484982" lon="134.1406877"><ele>269.0</ele><time>2026-08-10T23:53:22Z</time></trkpt>
<trkpt lat="34.8484989" lon="134.1407005"><ele>268.0</ele><time>2026-08-10T23:53:23Z</time></trkpt>
<trkpt lat="34.8485003" lon="134.1407416"><ele>268.0</ele><time>2026-08-10T23:53:24Z</time></trkpt>
<trkpt lat="34.8485015" lon="134.1407566"><ele>268.0</ele><time>2026-08-10T23:53:25Z</time></trkpt>
<trkpt lat="34.8485027" lon="134.1407717"><ele>268.0</ele><time>2026-08-10T23:53:26Z</time></trkpt>
<trkpt lat="34.848504" lon="134.1407868"><ele>268.0</ele><time>2026-08-10T23:53:27Z</time></trkpt>
<trkpt lat="34.8485134" lon="134.1408358"><ele>268.0</ele><time>2026-08-10T23:53:28Z</time></trkpt>
<trkpt lat="34.8485161" lon="134.1408526"><ele>268.0</ele><time>2026-08-10T23:53:29Z</time></trkpt>
<trkpt lat="34.8485188" lon="134.1408694"><ele>268.0</ele><time>2026-08-10T23:53:30Z</time></trkpt>
<trkpt lat="34.8485216" lon="134.1408862"><ele>267.0</ele><time>2026-08-10T23:53:31Z</time></trkpt>
<trkpt lat="34.8485244" lon="134.1409269"><ele>267.0</ele><time>2026-08-10T23:53:32Z</time></trkpt>
<trkpt lat="34.8485239" lon="134.1409365"><ele>267.0</ele><time>2026-08-10T23:53:33Z</time></trkpt>
<trkpt lat="34.8485234" lon="134.1409461"><ele>267.0</ele><time>2026-08-10T23:53:34Z</time></trkpt>
<trkpt lat="34.848523" lon="134.1409558"><ele>267.0</ele><time>2026-08-10T23:53:35Z</time></trkpt>
<trkpt lat="34.8485269" lon="134.1409764"><ele>267.0</ele><time>2026-08-10T23:53:36Z</time></trkpt>
<trkpt lat="34.8485291" lon="134.1409825"><ele>267.0</ele><time>2026-08-10T23:53:37Z</time></trkpt>
<trkpt lat="34.8485314" lon="134.1409886"><ele>267.0</ele><time>2026-08-10T23:53:38Z</time></trkpt>
<trkpt lat="34.8485337" lon="134.1409948"><ele>267.0</ele><time>2026-08-10T23:53:39Z</time></trkpt>
<trkpt lat="34.8485394" lon="134.141014"><ele>267.0</ele><time>2026-08-10T23:53:40Z</time></trkpt>
<trkpt lat="34.8485408" lon="134.14102"><ele>267.0</ele><time>2026-08-10T23:53:41Z</time></trkpt>
<trkpt lat="34.8485423" lon="134.141026"><ele>267.0</ele><time>2026-08-10T23:53:42Z</time></trkpt>
<trkpt lat="34.8485438" lon="134.1410321"><ele>267.0</ele><time>2026-08-10T23:53:43Z</time></trkpt>
<trkpt lat="34.8485475" lon="134.1410571"><ele>266.0</ele><time>2026-08-10T23:54:37Z</time></trkpt>
<trkpt lat="34.8485478" lon="134.1410704"><ele>266.0</ele><time>2026-08-10T23:54:38Z</time></trkpt>
<trkpt lat="34.8485466" lon="134.1410691"><ele>266.0</ele><time>2026-08-10T23:54:39Z</time></trkpt>
<trkpt lat="34.8485454" lon="134.1410678"><ele>266.0</ele><time>2026-08-10T23:54:40Z</time></trkpt>
<trkpt lat="34.8485443" lon="134.1410666"><ele>266.0</ele><time>2026-08-10T23:54:41Z</time></trkpt>
<trkpt lat="34.8485381" lon="134.1410508"><ele>266.0</ele><time>2026-08-10T23:54:42Z</time></trkpt>
<trkpt lat="34.8485355" lon="134.1410443"><ele>266.0</ele><time>2026-08-10T23:54:43Z</time></trkpt>
<trkpt lat="34.848533" lon="134.1410379"><ele>266.0</ele><time>2026-08-10T23:54:44Z</time></trkpt>
<trkpt lat="34.8485305" lon="134.1410315"><ele>266.0</ele><time>2026-08-10T23:54:45Z</time></trkpt>
<trkpt lat="34.8485232" lon="134.1410083"><ele>266.0</ele><time>2026-08-10T23:54:46Z</time></trkpt>
<trkpt lat="34.8485208" lon="134.1409996"><ele>266.0</ele><time>2026-08-10T23:54:47Z</time></trkpt>
<trkpt lat="34.8485185" lon="134.1409909"><ele>266.0</ele><time>2026-08-10T23:54:48Z</time></trkpt>
<trkpt lat="34.8485162" lon="134.1409822"><ele>266.0</ele><time>2026-08-10T23:54:49Z</time></trkpt>
<trkpt lat="34.8485086" lon="134.1409557"><ele>266.0</ele><time>2026-08-10T23:54:50Z</time></trkpt>
<trkpt lat="34.8485066" lon="134.1409475"><ele>266.0</ele><time>2026-08-10T23:54:51Z</time></trkpt>
<trkpt lat="34.8485046" lon="134.1409393"><ele>266.0</ele><time>2026-08-10T23:54:52Z</time></trkpt>
<trkpt lat="34.8485027" lon="134.1409312"><ele>266.0</ele><time>2026-08-10T23:54:53Z</time></trkpt>
<trkpt lat="34.8484992" lon="134.140904"><ele>266.0</ele><time>2026-08-10T23:54:54Z</time></trkpt>
<trkpt lat="34.8484984" lon="134.1408937"><ele>266.0</ele><time>2026-08-10T23:54:55Z</time></trkpt>
<trkpt lat="34.8484976" lon="134.1408835"><ele>266.0</ele><time>2026-08-10T23:54:56Z</time></trkpt>
<trkpt lat="34.8484968" lon="134.1408733"><ele>266.0</ele><time>2026-08-10T23:54:57Z</time></trkpt>
<trkpt lat="34.8484943" lon="134.1408414"><ele>267.0</ele><time>2026-08-10T23:54:58Z</time></trkpt>
<trkpt lat="34.8484943" lon="134.1408316"><ele>267.0</ele><time>2026-08-10T23:54:59Z</time></trkpt>
<trkpt lat="34.8484943" lon="134.1408218"><ele>267.0</ele><time>2026-08-10T23:55:00Z</time></trkpt>
<trkpt lat="34.8484944" lon="134.140812"><ele>267.0</ele><time>2026-08-10T23:55:01Z</time></trkpt>
<trkpt lat="34.8484955" lon="134.1407844"><ele>267.0</ele><time>2026-08-10T23:55:02Z</time></trkpt>
<trkpt lat="34.848495" lon="134.1407757"><ele>267.0</ele><time>2026-08-10T23:55:03Z</time></trkpt>
<trkpt lat="34.8484946" lon="134.1407671"><ele>267.0</ele><time>2026-08-10T23:55:04Z</time></trkpt>
<trkpt lat="34.8484942" lon="134.1407585"><ele>267.0</ele><time>2026-08-10T23:55:05Z</time></trkpt>
<trkpt lat="34.8484908" lon="134.1407325"><ele>267.0</ele><time>2026-08-10T23:55:06Z</time></trkpt>
<trkpt lat="34.8484898" lon="134.1407217"><ele>267.0</ele><time>2026-08-10T23:55:07Z</time></trkpt>
<trkpt lat="34.8484888" lon="134.1407109"><ele>267.0</ele><time>2026-08-10T23:55:08Z</time></trkpt>
<trkpt lat="34.8484879" lon="134.1407002"><ele>267.0</ele><time>2026-08-10T23:55:09Z</time></trkpt>
<trkpt lat="34.848485" lon="134.1406637"><ele>268.0</ele><time>2026-08-10T23:55:10Z</time></trkpt>
<trkpt lat="34.8484834" lon="134.1406514"><ele>268.0</ele><time>2026-08-10T23:55:11Z</time></trkpt>
<trkpt lat="34.8484819" lon="134.1406392"><ele>268.0</ele><time>2026-08-10T23:55:12Z</time></trkpt>
<trkpt lat="34.8484804" lon="134.140627"><ele>268.0</ele><time>2026-08-10T23:55:13Z</time></trkpt>
<trkpt lat="34.8484762" lon="134.1405908"><ele>268.0</ele><time>2026-08-10T23:55:14Z</time></trkpt>
<trkpt lat="34.8484753" lon="134.1405791"><ele>268.0</ele><time>2026-08-10T23:55:15Z</time></trkpt>
<trkpt lat="34.8484744" lon="134.1405675"><ele>268.0</ele><time>2026-08-10T23:55:16Z</time></trkpt>
<trkpt lat="34.8484736" lon="134.1405559"><ele>268.0</ele><time>2026-08-10T23:55:17Z</time></trkpt>
<trkpt lat="34.8484768" lon="134.1405217"><ele>269.0</ele><time>2026-08-10T23:55:18Z</time></trkpt>
<trkpt lat="34.8484784" lon="134.1405101"><ele>269.0</ele><time>2026-08-10T23:55:19Z</time></trkpt>
<trkpt lat="34.84848" lon="134.1404985"><ele>269.0</ele><time>2026-08-10T23:55:20Z</time></trkpt>
<trkpt lat="34.8484816" lon="134.1404869"><ele>269.0</ele><time>2026-08-10T23:55:21Z</time></trkpt>
<trkpt lat="34.8484834" lon="134.1404487"><ele>269.0</ele><time>2026-08-10T23:55:22Z</time></trkpt>
<trkpt lat="34.848483" lon="134.1404359"><ele>269.0</ele><time>2026-08-10T23:55:23Z</time></trkpt>
<trkpt lat="34.8484827" lon="134.1404232"><ele>269.0</ele><time>2026-08-10T23:55:24Z</time></trkpt>
<trkpt lat="34.8484824" lon="134.1404105"><ele>269.0</ele><time>2026-08-10T23:55:25Z</time></trkpt>
<trkpt lat="34.8484822" lon="134.1403773"><ele>270.0</ele><time>2026-08-10T23:55:26Z</time></trkpt>
<trkpt lat="34.84848" lon="134.1403676"><ele>270.0</ele><time>2026-08-10T23:55:27Z</time></trkpt>
<trkpt lat="34.8484778" lon="134.140358"><ele>270.0</ele><time>2026-08-10T23:55:28Z</time></trkpt>
<trkpt lat="34.8484757" lon="134.1403484"><ele>270.0</ele><time>2026-08-10T23:55:29Z</time></trkpt>
<trkpt lat="34.8484589" lon="134.1403217"><ele>270.0</ele><time>2026-08-10T23:55:30Z</time></trkpt>
<trkpt lat="34.8484503" lon="134.1403137"><ele>270.0</ele><time>2026-08-10T23:55:31Z</time></trkpt>
<trkpt lat="34.8484417" lon="134.1403057"><ele>270.0</ele><time>2026-08-10T23:55:32Z</time></trkpt>
<trkpt lat="34.8484332" lon="134.1402978"><ele>270.0</ele><time>2026-08-10T23:55:33Z</time></trkpt>
<trkpt lat="34.8484013" lon="134.1402787"><ele>271.0</ele><time>2026-08-10T23:55:34Z</time></trkpt>
<trkpt lat="34.8483891" lon="134.1402731"><ele>271.0</ele><time>2026-08-10T23:55:35Z</time></trkpt>
<trkpt lat="34.848377" lon="134.1402675"><ele>271.0</ele><time>2026-08-10T23:55:36Z</time></trkpt>
<trkpt lat="34.8483649" lon="134.140262"><ele>271.0</ele><time>2026-08-10T23:55:37Z</time></trkpt>
<trkpt lat="34.8483283" lon="134.1402434"><ele>271.0</ele><time>2026-08-10T23:55:38Z</time></trkpt>
<trkpt lat="34.8483164" lon="134.1402354"><ele>271.0</ele><time>2026-08-10T23:55:39Z</time></trkpt>
<trkpt lat="34.8483045" lon="134.1402275"><ele>271.0</ele><time>2026-08-10T23:55:40Z</time></trkpt>
<trkpt lat="34.8482926" lon="134.1402196"><ele>271.0</ele><time>2026-08-10T23:55:41Z</time></trkpt>
<trkpt lat="34.8482553" lon="134.1401942"><ele>271.0</ele><time>2026-08-10T23:55:42Z</time></trkpt>
<trkpt lat="34.8482429" lon="134.140186"><ele>271.0</ele><time>2026-08-10T23:55:43Z</time></trkpt>
<trkpt lat="34.8482306" lon="134.1401778"><ele>271.0</ele><time>2026-08-10T23:55:44Z</time></trkpt>
<trkpt lat="34.8482183" lon="134.1401697"><ele>271.0</ele><time>2026-08-10T23:55:45Z</time></trkpt>
<trkpt lat="34.8481831" lon="134.140145"><ele>272.0</ele><time>2026-08-10T23:55:46Z</time></trkpt>
<trkpt lat="34.8481707" lon="134.1401386"><ele>272.0</ele><time>2026-08-10T23:55:47Z</time></trkpt>
<trkpt lat="34.8481583" lon="134.1401323"><ele>272.0</ele><time>2026-08-10T23:55:48Z</time></trkpt>
<trkpt lat="34.848146" lon="134.140126"><ele>272.0</ele><time>2026-08-10T23:55:49Z</time></trkpt>
<trkpt lat="34.8481052" lon="134.1401181"><ele>272.0</ele><time>2026-08-10T23:55:50Z</time></trkpt>
<trkpt lat="34.8480905" lon="134.1401186"><ele>272.0</ele><time>2026-08-10T23:55:51Z</time></trkpt>
<trkpt lat="34.8480758" lon="134.1401192"><ele>272.0</ele><time>2026-08-10T23:55:52Z</time></trkpt>
<trkpt lat="34.8480612" lon="134.1401198"><ele>272.0</ele><time>2026-08-10T23:55:53Z</time></trkpt>
<trkpt lat="34.8480173" lon="134.1401285"><ele>272.0</ele><time>2026-08-10T23:55:54Z</time></trkpt>
<trkpt lat="34.8480028" lon="134.140132"><ele>272.0</ele><time>2026-08-10T23:55:55Z</time></trkpt>
<trkpt lat="34.8479884" lon="134.1401356"><ele>272.0</ele><time>2026-08-10T23:55:56Z</time></trkpt>
<trkpt lat="34.847974" lon="134.1401392"><ele>272.0</ele><time>2026-08-10T23:55:57Z</time></trkpt>
<trkpt lat="34.8479311" lon="134.1401538"><ele>272.0</ele><time>2026-08-10T23:55:58Z</time></trkpt>
<trkpt lat="34.8479164" lon="134.1401593"><ele>271.0</ele><time>2026-08-10T23:55:59Z</time></trkpt>
<trkpt lat="34.8479018" lon="134.1401648"><ele>271.0</ele><time>2026-08-10T23:56:00Z</time></trkpt>
<trkpt lat="34.8478872" lon="134.1401704"><ele>271.0</ele><time>2026-08-10T23:56:01Z</time></trkpt>
<trkpt lat="34.84784" lon="134.1401857"><ele>271.0</ele><time>2026-08-10T23:56:02Z</time></trkpt>
<trkpt lat="34.8478233" lon="134.1401907"><ele>270.0</ele><time>2026-08-10T23:56:03Z</time></trkpt>
<trkpt lat="34.8478067" lon="134.1401958"><ele>270.0</ele><time>2026-08-10T23:56:04Z</time></trkpt>
<trkpt lat="34.8477901" lon="134.1402009"><ele>270.0</ele><time>2026-08-10T23:56:05Z</time></trkpt>
<trkpt lat="34.8477402" lon="134.1402187"><ele>270.0</ele><time>2026-08-10T23:56:06Z</time></trkpt>
<trkpt lat="34.8477254" lon="134.1402252"><ele>269.0</ele><time>2026-08-10T23:56:07Z</time></trkpt>
<trkpt lat="34.8477107" lon="134.1402318"><ele>269.0</ele><time>2026-08-10T23:56:08Z</time></trkpt>
<trkpt lat="34.847696" lon="134.1402384"><ele>269.0</ele><time>2026-08-10T23:56:09Z</time></trkpt>
<trkpt lat="34.8476632" lon="134.1402668"><ele>269.0</ele><time>2026-08-10T23:56:10Z</time></trkpt>
<trkpt lat="34.8476578" lon="134.1402805"><ele>268.0</ele><time>2026-08-10T23:56:11Z</time></trkpt>
<trkpt lat="34.8476524" lon="134.1402942"><ele>268.0</ele><time>2026-08-10T23:56:12Z</time></trkpt>
<trkpt lat="34.847647" lon="134.1403079"><ele>268.0</ele><time>2026-08-10T23:56:13Z</time></trkpt>
<trkpt lat="34.8476522" lon="134.1403576"><ele>268.0</ele><time>2026-08-10T23:56:14Z</time></trkpt>
<trkpt lat="34.8476595" lon="134.140376"><ele>267.0</ele><time>2026-08-10T23:56:15Z</time></trkpt>
<trkpt lat="34.8476669" lon="134.1403944"><ele>267.0</ele><time>2026-08-10T23:56:16Z</time></trkpt>
<trkpt lat="34.8476743" lon="134.1404129"><ele>267.0</ele><time>2026-08-10T23:56:17Z</time></trkpt>
<trkpt lat="34.8477029" lon="134.1404684"><ele>267.0</ele><time>2026-08-10T23:56:18Z</time></trkpt>
<trkpt lat="34.8477101" lon="134.1404874"><ele>266.0</ele><time>2026-08-10T23:56:19Z</time></trkpt>
<trkpt lat="34.8477173" lon="134.1405064"><ele>266.0</ele><time>2026-08-10T23:56:20Z</time></trkpt>
<trkpt lat="34.8477245" lon="134.1405255"><ele>266.0</ele><time>2026-08-10T23:56:21Z</time></trkpt>
<trkpt lat="34.8477264" lon="134.1405841"><ele>266.0</ele><time>2026-08-10T23:56:22Z</time></trkpt>
<trkpt lat="34.8477207" lon="134.1406022"><ele>265.0</ele><time>2026-08-10T23:56:23Z</time></trkpt>
<trkpt lat="34.847715" lon="134.1406203"><ele>265.0</ele><time>2026-08-10T23:56:24Z</time></trkpt>
<trkpt lat="34.8477093" lon="134.1406385"><ele>264.0</ele><time>2026-08-10T23:56:25Z</time></trkpt>
<trkpt lat="34.8476779" lon="134.140685"><ele>264.0</ele><time>2026-08-10T23:56:26Z</time></trkpt>
<trkpt lat="34.8476647" lon="134.1406983"><ele>263.0</ele><time>2026-08-10T23:56:27Z</time></trkpt>
<trkpt lat="34.8476516" lon="134.1407116"><ele>263.0</ele><time>2026-08-10T23:56:28Z</time></trkpt>
<trkpt lat="34.8476385" lon="134.1407249"><ele>263.0</ele><time>2026-08-10T23:56:29Z</time></trkpt>
<trkpt lat="34.847591" lon="134.1407594"><ele>263.0</ele><time>2026-08-10T23:56:30Z</time></trkpt>
<trkpt lat="34.8475737" lon="134.1407698"><ele>262.0</ele><time>2026-08-10T23:56:31Z</time></trkpt>
<trkpt lat="34.8475564" lon="134.1407803"><ele>262.0</ele><time>2026-08-10T23:56:32Z</time></trkpt>
<trkpt lat="34.8475391" lon="134.1407908"><ele>261.0</ele><time>2026-08-10T23:56:33Z</time></trkpt>
<trkpt lat="34.8474891" lon="134.1408207"><ele>261.0</ele><time>2026-08-10T23:56:34Z</time></trkpt>
<trkpt lat="34.8474731" lon="134.1408299"><ele>260.0</ele><time>2026-08-10T23:56:35Z</time></trkpt>
<trkpt lat="34.8474572" lon="134.1408392"><ele>260.0</ele><time>2026-08-10T23:56:36Z</time></trkpt>
<trkpt lat="34.8474413" lon="134.1408485"><ele>260.0</ele><time>2026-08-10T23:56:37Z</time></trkpt>
<trkpt lat="34.8473956" lon="134.1408745"><ele>260.0</ele><time>2026-08-10T23:56:38Z</time></trkpt>
<trkpt lat="34.8473807" lon="134.1408824"><ele>259.0</ele><time>2026-08-10T23:56:39Z</time></trkpt>
<trkpt lat="34.8473658" lon="134.1408903"><ele>259.0</ele><time>2026-08-10T23:56:40Z</time></trkpt>
<trkpt lat="34.847351" lon="134.1408983"><ele>258.0</ele><time>2026-08-10T23:56:41Z</time></trkpt>
<trkpt lat="34.8473078" lon="134.1409217"><ele>258.0</ele><time>2026-08-10T23:56:42Z</time></trkpt>
<trkpt lat="34.8472942" lon="134.1409293"><ele>257.0</ele><time>2026-08-10T23:56:43Z</time></trkpt>
<trkpt lat="34.8472806" lon="134.140937"><ele>257.0</ele><time>2026-08-10T23:56:44Z</time></trkpt>
<trkpt lat="34.847267" lon="134.1409447"><ele>257.0</ele><time>2026-08-10T23:56:45Z</time></trkpt>
<trkpt lat="34.8472275" lon="134.1409698"><ele>257.0</ele><time>2026-08-10T23:56:46Z</time></trkpt>
<trkpt lat="34.847214" lon="134.140979"><ele>256.0</ele><time>2026-08-10T23:56:47Z</time></trkpt>
<trkpt lat="34.8472005" lon="134.1409882"><ele>256.0</ele><time>2026-08-10T23:56:48Z</time></trkpt>
<trkpt lat="34.847187" lon="134.1409975"><ele>255.0</ele><time>2026-08-10T23:56:49Z</time></trkpt>
<trkpt lat="34.8471523" lon="134.1410297"><ele>255.0</ele><time>2026-08-10T23:56:50Z</time></trkpt>
<trkpt lat="34.8471455" lon="134.1410439"><ele>254.0</ele><time>2026-08-10T23:56:51Z</time></trkpt>
<trkpt lat="34.8471387" lon="134.1410581"><ele>254.0</ele><time>2026-08-10T23:56:52Z</time></trkpt>
<trkpt lat="34.847132" lon="134.1410724"><ele>253.0</ele><time>2026-08-10T23:56:53Z</time></trkpt>
<trkpt lat="34.8471273" lon="134.1411238"><ele>253.0</ele><time>2026-08-10T23:56:54Z</time></trkpt>
<trkpt lat="34.8471263" lon="134.1411414"><ele>252.0</ele><time>2026-08-10T23:56:55Z</time></trkpt>
<trkpt lat="34.8471253" lon="134.141159"><ele>252.0</ele><time>2026-08-10T23:56:56Z</time></trkpt>
<trkpt lat="34.8471244" lon="134.1411766"><ele>252.0</ele><time>2026-08-10T23:56:57Z</time></trkpt>
<trkpt lat="34.8471129" lon="134.1412292"><ele>252.0</ele><time>2026-08-10T23:56:58Z</time></trkpt>
<trkpt lat="34.8471058" lon="134.1412459"><ele>251.0</ele><time>2026-08-10T23:56:59Z</time></trkpt>
<trkpt lat="34.8470987" lon="134.1412627"><ele>251.0</ele><time>2026-08-10T23:57:00Z</time></trkpt>
<trkpt lat="34.8470916" lon="134.1412795"><ele>250.0</ele><time>2026-08-10T23:57:01Z</time></trkpt>
<trkpt lat="34.8470666" lon="134.141332"><ele>250.0</ele><time>2026-08-10T23:57:02Z</time></trkpt>
<trkpt lat="34.8470588" lon="134.1413496"><ele>249.0</ele><time>2026-08-10T23:57:03Z</time></trkpt>
<trkpt lat="34.847051" lon="134.1413673"><ele>249.0</ele><time>2026-08-10T23:57:04Z</time></trkpt>
<trkpt lat="34.8470433" lon="134.141385"><ele>248.0</ele><time>2026-08-10T23:57:05Z</time></trkpt>
<trkpt lat="34.8470246" lon="134.1414405"><ele>248.0</ele><time>2026-08-10T23:57:06Z</time></trkpt>
<trkpt lat="34.8470193" lon="134.1414588"><ele>247.0</ele><time>2026-08-10T23:57:07Z</time></trkpt>
<trkpt lat="34.847014" lon="134.1414771"><ele>247.0</ele><time>2026-08-10T23:57:08Z</time></trkpt>
<trkpt lat="34.8470088" lon="134.1414954"><ele>246.0</ele><time>2026-08-10T23:57:09Z</time></trkpt>
<trkpt lat="34.8469932" lon="134.1415473"><ele>246.0</ele><time>2026-08-10T23:57:10Z</time></trkpt>
<trkpt lat="34.8469884" lon="134.1415649"><ele>245.0</ele><time>2026-08-10T23:57:11Z</time></trkpt>
<trkpt lat="34.8469837" lon="134.1415825"><ele>245.0</ele><time>2026-08-10T23:57:12Z</time></trkpt>
<trkpt lat="34.846979" lon="134.1416002"><ele>245.0</ele><time>2026-08-10T23:57:13Z</time></trkpt>
<trkpt lat="34.8469646" lon="134.1416521"><ele>245.0</ele><time>2026-08-10T23:57:14Z</time></trkpt>
<trkpt lat="34.8469607" lon="134.1416698"><ele>244.0</ele><time>2026-08-10T23:57:15Z</time></trkpt>
<trkpt lat="34.8469568" lon="134.1416875"><ele>244.0</ele><time>2026-08-10T23:57:16Z</time></trkpt>
<trkpt lat="34.8469529" lon="134.1417052"><ele>244.0</ele><time>2026-08-10T23:57:17Z</time></trkpt>
<trkpt lat="34.8469457" lon="134.1417602"><ele>244.0</ele><time>2026-08-10T23:57:18Z</time></trkpt>
<trkpt lat="34.8469455" lon="134.1417781"><ele>244.0</ele><time>2026-08-10T23:57:19Z</time></trkpt>
<trkpt lat="34.8469453" lon="134.141796"><ele>244.0</ele><time>2026-08-10T23:57:20Z</time></trkpt>
<trkpt lat="34.8469452" lon="134.141814"><ele>244.0</ele><time>2026-08-10T23:57:21Z</time></trkpt>
<trkpt lat="34.8469528" lon="134.1418681"><ele>244.0</ele><time>2026-08-10T23:57:22Z</time></trkpt>
<trkpt lat="34.8469565" lon="134.1418859"><ele>243.0</ele><time>2026-08-10T23:57:23Z</time></trkpt>
<trkpt lat="34.8469602" lon="134.1419037"><ele>243.0</ele><time>2026-08-10T23:57:24Z</time></trkpt>
<trkpt lat="34.8469639" lon="134.1419215"><ele>243.0</ele><time>2026-08-10T23:57:25Z</time></trkpt>
<trkpt lat="34.8469729" lon="134.1419738"><ele>243.0</ele><time>2026-08-10T23:57:26Z</time></trkpt>
<trkpt lat="34.846974" lon="134.1419919"><ele>242.0</ele><time>2026-08-10T23:57:27Z</time></trkpt>
<trkpt lat="34.8469752" lon="134.1420101"><ele>242.0</ele><time>2026-08-10T23:57:28Z</time></trkpt>
<trkpt lat="34.8469764" lon="134.1420283"><ele>242.0</ele><time>2026-08-10T23:57:29Z</time></trkpt>
<trkpt lat="34.8469744" lon="134.1420841"><ele>242.0</ele><time>2026-08-10T23:57:30Z</time></trkpt>
<trkpt lat="34.8469724" lon="134.1421027"><ele>241.0</ele><time>2026-08-10T23:57:31Z</time></trkpt>
<trkpt lat="34.8469704" lon="134.1421213"><ele>241.0</ele><time>2026-08-10T23:57:32Z</time></trkpt>
<trkpt lat="34.8469685" lon="134.1421399"><ele>240.0</ele><time>2026-08-10T23:57:33Z</time></trkpt>
<trkpt lat="34.8469605" lon="134.1421927"><ele>240.0</ele><time>2026-08-10T23:57:34Z</time></trkpt>
<trkpt lat="34.8469564" lon="134.1422115"><ele>239.0</ele><time>2026-08-10T23:57:35Z</time></trkpt>
<trkpt lat="34.8469523" lon="134.1422303"><ele>239.0</ele><time>2026-08-10T23:57:36Z</time></trkpt>
<trkpt lat="34.8469482" lon="134.1422491"><ele>238.0</ele><time>2026-08-10T23:57:37Z</time></trkpt>
<trkpt lat="34.8469351" lon="134.1423083"><ele>238.0</ele><time>2026-08-10T23:57:38Z</time></trkpt>
<trkpt lat="34.8469314" lon="134.1423278"><ele>237.0</ele><time>2026-08-10T23:57:39Z</time></trkpt>
<trkpt lat="34.8469277" lon="134.1423473"><ele>237.0</ele><time>2026-08-10T23:57:40Z</time></trkpt>
<trkpt lat="34.846924" lon="134.1423669"><ele>236.0</ele><time>2026-08-10T23:57:41Z</time></trkpt>
<trkpt lat="34.8469158" lon="134.1424234"><ele>236.0</ele><time>2026-08-10T23:57:42Z</time></trkpt>
<trkpt lat="34.8469133" lon="134.1424422"><ele>235.0</ele><time>2026-08-10T23:57:43Z</time></trkpt>
<trkpt lat="34.8469109" lon="134.1424611"><ele>235.0</ele><time>2026-08-10T23:57:44Z</time></trkpt>
<trkpt lat="34.8469085" lon="134.14248"><ele>235.0</ele><time>2026-08-10T23:57:45Z</time></trkpt>
<trkpt lat="34.8468994" lon="134.1425372"><ele>235.0</ele><time>2026-08-10T23:57:46Z</time></trkpt>
<trkpt lat="34.8468955" lon="134.1425559"><ele>234.0</ele><time>2026-08-10T23:57:47Z</time></trkpt>
<trkpt lat="34.8468916" lon="134.1425746"><ele>234.0</ele><time>2026-08-10T23:57:48Z</time></trkpt>
<trkpt lat="34.8468877" lon="134.1425933"><ele>234.0</ele><time>2026-08-10T23:57:49Z</time></trkpt>
<trkpt lat="34.8468786" lon="134.1426501"><ele>234.0</ele><time>2026-08-10T23:57:50Z</time></trkpt>
<trkpt lat="34.8468759" lon="134.1426693"><ele>233.0</ele><time>2026-08-10T23:57:51Z</time></trkpt>
<trkpt lat="34.8468732" lon="134.1426886"><ele>233.0</ele><time>2026-08-10T23:57:52Z</time></trkpt>
<trkpt lat="34.8468705" lon="134.1427079"><ele>233.0</ele><time>2026-08-10T23:57:53Z</time></trkpt>
<trkpt lat="34.8468593" lon="134.1427658"><ele>233.0</ele><time>2026-08-10T23:57:54Z</time></trkpt>
<trkpt lat="34.8468545" lon="134.1427856"><ele>232.0</ele><time>2026-08-10T23:57:55Z</time></trkpt>
<trkpt lat="34.8468498" lon="134.1428054"><ele>232.0</ele><time>2026-08-10T23:57:56Z</time></trkpt>
<trkpt lat="34.8468451" lon="134.1428253"><ele>232.0</ele><time>2026-08-10T23:57:57Z</time></trkpt>
<trkpt lat="34.8468295" lon="134.1428814"><ele>232.0</ele><time>2026-08-10T23:57:58Z</time></trkpt>
<trkpt lat="34.8468238" lon="134.1428994"><ele>231.0</ele><time>2026-08-10T23:57:59Z</time></trkpt>
<trkpt lat="34.8468181" lon="134.1429175"><ele>231.0</ele><time>2026-08-10T23:58:00Z</time></trkpt>
<trkpt lat="34.8468124" lon="134.1429356"><ele>231.0</ele><time>2026-08-10T23:58:01Z</time></trkpt>
<trkpt lat="34.8467956" lon="134.1429907"><ele>231.0</ele><time>2026-08-10T23:58:02Z</time></trkpt>
<trkpt lat="34.846791" lon="134.1430102"><ele>231.0</ele><time>2026-08-10T23:58:03Z</time></trkpt>
<trkpt lat="34.8467865" lon="134.1430297"><ele>231.0</ele><time>2026-08-10T23:58:04Z</time></trkpt>
<trkpt lat="34.846782" lon="134.1430493"><ele>231.0</ele><time>2026-08-10T23:58:05Z</time></trkpt>
<trkpt lat="34.8467697" lon="134.1431095"><ele>231.0</ele><time>2026-08-10T23:58:06Z</time></trkpt>
<trkpt lat="34.8467654" lon="134.1431294"><ele>230.0</ele><time>2026-08-10T23:58:07Z</time></trkpt>
<trkpt lat="34.8467612" lon="134.1431493"><ele>230.0</ele><time>2026-08-10T23:58:08Z</time></trkpt>
<trkpt lat="34.846757" lon="134.1431692"><ele>230.0</ele><time>2026-08-10T23:58:09Z</time></trkpt>
<trkpt lat="34.8467435" lon="134.1432261"><ele>230.0</ele><time>2026-08-10T23:58:10Z</time></trkpt>
<trkpt lat="34.8467393" lon="134.1432444"><ele>230.0</ele><time>2026-08-10T23:58:11Z</time></trkpt>
<trkpt lat="34.8467352" lon="134.1432627"><ele>230.0</ele><time>2026-08-10T23:58:12Z</time></trkpt>
<trkpt lat="34.8467311" lon="134.143281"><ele>230.0</ele><time>2026-08-10T23:58:13Z</time></trkpt>
<trkpt lat="34.8467204" lon="134.1433348"><ele>230.0</ele><time>2026-08-10T23:58:14Z</time></trkpt>
<trkpt lat="34.8467173" lon="134.1433532"><ele>229.0</ele><time>2026-08-10T23:58:15Z</time></trkpt>
<trkpt lat="34.8467143" lon="134.1433716"><ele>229.0</ele><time>2026-08-10T23:58:16Z</time></trkpt>
<trkpt lat="34.8467113" lon="134.1433901"><ele>229.0</ele><time>2026-08-10T23:58:17Z</time></trkpt>
<trkpt lat="34.8467036" lon="134.1434476"><ele>229.0</ele><time>2026-08-10T23:58:18Z</time></trkpt>
<trkpt lat="34.8467035" lon="134.1434669"><ele>229.0</ele><time>2026-08-10T23:58:19Z</time></trkpt>
<trkpt lat="34.8467035" lon="134.1434862"><ele>229.0</ele><time>2026-08-10T23:58:20Z</time></trkpt>
<trkpt lat="34.8467035" lon="134.1435055"><ele>229.0</ele><time>2026-08-10T23:58:21Z</time></trkpt>
<trkpt lat="34.8467222" lon="134.1435593"><ele>229.0</ele><time>2026-08-10T23:58:22Z</time></trkpt>
<trkpt lat="34.8467346" lon="134.1435735"><ele>228.0</ele><time>2026-08-10T23:58:23Z</time></trkpt>
<trkpt lat="34.8467471" lon="134.1435878"><ele>228.0</ele><time>2026-08-10T23:58:24Z</time></trkpt>
<trkpt lat="34.8467596" lon="134.1436021"><ele>228.0</ele><time>2026-08-10T23:58:25Z</time></trkpt>
<trkpt lat="34.8468065" lon="134.143639"><ele>228.0</ele><time>2026-08-10T23:58:26Z</time></trkpt>
<trkpt lat="34.8468219" lon="134.1436517"><ele>227.0</ele><time>2026-08-10T23:58:27Z</time></trkpt>
<trkpt lat="34.8468374" lon="134.1436645"><ele>227.0</ele><time>2026-08-10T23:58:28Z</time></trkpt>
<trkpt lat="34.8468529" lon="134.1436773"><ele>227.0</ele><time>2026-08-10T23:58:29Z</time></trkpt>
<trkpt lat="34.8468904" lon="134.1437174"><ele>227.0</ele><time>2026-08-10T23:58:30Z</time></trkpt>
<trkpt lat="34.8468981" lon="134.1437285"><ele>226.0</ele><time>2026-08-10T23:58:31Z</time></trkpt>
<trkpt lat="34.8469059" lon="134.1437397"><ele>226.0</ele><time>2026-08-10T23:58:32Z</time></trkpt>
<trkpt lat="34.8469137" lon="134.1437509"><ele>225.0</ele><time>2026-08-10T23:58:33Z</time></trkpt>
<trkpt lat="34.8469221" lon="134.1437621"><ele>223.0</ele><time>2026-08-10T23:58:40Z</time></trkpt>
<trkpt lat="34.8469344" lon="134.1437753"><ele>223.0</ele><time>2026-08-10T23:58:41Z</time></trkpt>
<trkpt lat="34.8469396" lon="134.1437791"><ele>223.0</ele><time>2026-08-10T23:58:42Z</time></trkpt>
<trkpt lat="34.8469448" lon="134.1437829"><ele>223.0</ele><time>2026-08-10T23:58:43Z</time></trkpt>
<trkpt lat="34.84695" lon="134.1437867"><ele>223.0</ele><time>2026-08-10T23:58:44Z</time></trkpt>
<trkpt lat="34.8469735" lon="134.1438007"><ele>223.0</ele><time>2026-08-10T23:58:45Z</time></trkpt>
<trkpt lat="34.846984" lon="134.1438064"><ele>223.0</ele><time>2026-08-10T23:58:46Z</time></trkpt>
<trkpt lat="34.8469946" lon="134.1438121"><ele>222.0</ele><time>2026-08-10T23:58:47Z</time></trkpt>
<trkpt lat="34.8470052" lon="134.1438178"><ele>222.0</ele><time>2026-08-10T23:58:48Z</time></trkpt>
<trkpt lat="34.8470427" lon="134.143839"><ele>222.0</ele><time>2026-08-10T23:58:49Z</time></trkpt>
<trkpt lat="34.8470554" lon="134.1438487"><ele>222.0</ele><time>2026-08-10T23:58:50Z</time></trkpt>
<trkpt lat="34.8470681" lon="134.1438584"><ele>221.0</ele><time>2026-08-10T23:58:51Z</time></trkpt>
<trkpt lat="34.8470809" lon="134.1438681"><ele>221.0</ele><time>2026-08-10T23:58:52Z</time></trkpt>
<trkpt lat="34.8471161" lon="134.1439064"><ele>221.0</ele><time>2026-08-10T23:58:53Z</time></trkpt>
<trkpt lat="34.8471236" lon="134.143922"><ele>221.0</ele><time>2026-08-10T23:58:54Z</time></trkpt>
<trkpt lat="34.8471311" lon="134.1439377"><ele>220.0</ele><time>2026-08-10T23:58:55Z</time></trkpt>
<trkpt lat="34.8471387" lon="134.1439534"><ele>220.0</ele><time>2026-08-10T23:58:56Z</time></trkpt>
<trkpt lat="34.8471422" lon="134.1440072"><ele>219.0</ele><time>2026-08-10T23:58:57Z</time></trkpt>
<trkpt lat="34.8471405" lon="134.1440264"><ele>219.0</ele><time>2026-08-10T23:58:58Z</time></trkpt>
<trkpt lat="34.8471388" lon="134.1440457"><ele>218.0</ele><time>2026-08-10T23:58:59Z</time></trkpt>
<trkpt lat="34.8471371" lon="134.144065"><ele>218.0</ele><time>2026-08-10T23:59:00Z</time></trkpt>
<trkpt lat="34.8471298" lon="134.1441241"><ele>218.0</ele><time>2026-08-10T23:59:01Z</time></trkpt>
<trkpt lat="34.8471276" lon="134.1441447"><ele>218.0</ele><time>2026-08-10T23:59:02Z</time></trkpt>
<trkpt lat="34.8471254" lon="134.1441654"><ele>217.0</ele><time>2026-08-10T23:59:03Z</time></trkpt>
<trkpt lat="34.8471233" lon="134.1441861"><ele>217.0</ele><time>2026-08-10T23:59:04Z</time></trkpt>
<trkpt lat="34.8471184" lon="134.1442467"><ele>217.0</ele><time>2026-08-10T23:59:05Z</time></trkpt>
<trkpt lat="34.8471164" lon="134.1442661"><ele>217.0</ele><time>2026-08-10T23:59:06Z</time></trkpt>
<trkpt lat="34.8471144" lon="134.1442855"><ele>216.0</ele><time>2026-08-10T23:59:07Z</time></trkpt>
<trkpt lat="34.8471125" lon="134.1443049"><ele>216.0</ele><time>2026-08-10T23:59:08Z</time></trkpt>
<trkpt lat="34.847094" lon="134.1443558"><ele>216.0</ele><time>2026-08-10T23:59:09Z</time></trkpt>
<trkpt lat="34.8470833" lon="134.1443692"><ele>216.0</ele><time>2026-08-10T23:59:10Z</time></trkpt>
<trkpt lat="34.8470727" lon="134.1443826"><ele>215.0</ele><time>2026-08-10T23:59:11Z</time></trkpt>
<trkpt lat="34.8470621" lon="134.144396"><ele>215.0</ele><time>2026-08-10T23:59:12Z</time></trkpt>
<trkpt lat="34.8470214" lon="134.1444295"><ele>215.0</ele><time>2026-08-10T23:59:13Z</time></trkpt>
<trkpt lat="34.8470057" lon="134.1444394"><ele>215.0</ele><time>2026-08-10T23:59:14Z</time></trkpt>
<trkpt lat="34.84699" lon="134.1444493"><ele>214.0</ele><time>2026-08-10T23:59:15Z</time></trkpt>
<trkpt lat="34.8469744" lon="134.1444593"><ele>214.0</ele><time>2026-08-10T23:59:16Z</time></trkpt>
<trkpt lat="34.8469264" lon="134.1444846"><ele>214.0</ele><time>2026-08-10T23:59:17Z</time></trkpt>
<trkpt lat="34.8469109" lon="134.1444928"><ele>214.0</ele><time>2026-08-10T23:59:18Z</time></trkpt>
<trkpt lat="34.8468955" lon="134.144501"><ele>213.0</ele><time>2026-08-10T23:59:19Z</time></trkpt>
<trkpt lat="34.8468801" lon="134.1445092"><ele>213.0</ele><time>2026-08-10T23:59:20Z</time></trkpt>
<trkpt lat="34.846833" lon="134.1445289"><ele>213.0</ele><time>2026-08-10T23:59:21Z</time></trkpt>
<trkpt lat="34.8468176" lon="134.1445363"><ele>213.0</ele><time>2026-08-10T23:59:22Z</time></trkpt>
<trkpt lat="34.8468022" lon="134.1445438"><ele>212.0</ele><time>2026-08-10T23:59:23Z</time></trkpt>
<trkpt lat="34.8467868" lon="134.1445513"><ele>212.0</ele><time>2026-08-10T23:59:24Z</time></trkpt>
<trkpt lat="34.846744" lon="134.1445824"><ele>212.0</ele><time>2026-08-10T23:59:25Z</time></trkpt>
<trkpt lat="34.8467311" lon="134.1445957"><ele>212.0</ele><time>2026-08-10T23:59:26Z</time></trkpt>
<trkpt lat="34.8467183" lon="134.144609"><ele>211.0</ele><time>2026-08-10T23:59:27Z</time></trkpt>
<trkpt lat="34.8467055" lon="134.1446224"><ele>211.0</ele><time>2026-08-10T23:59:28Z</time></trkpt>
<trkpt lat="34.8466704" lon="134.1446677"><ele>211.0</ele><time>2026-08-10T23:59:29Z</time></trkpt>
<trkpt lat="34.8466583" lon="134.1446831"><ele>211.0</ele><time>2026-08-10T23:59:30Z</time></trkpt>
<trkpt lat="34.8466462" lon="134.1446986"><ele>210.0</ele><time>2026-08-10T23:59:31Z</time></trkpt>
<trkpt lat="34.8466341" lon="134.1447141"><ele>210.0</ele><time>2026-08-10T23:59:32Z</time></trkpt>
<trkpt lat="34.8465943" lon="134.1447592"><ele>209.0</ele><time>2026-08-10T23:59:33Z</time></trkpt>
<trkpt lat="34.8465806" lon="134.1447732"><ele>209.0</ele><time>2026-08-10T23:59:34Z</time></trkpt>
<trkpt lat="34.846567" lon="134.1447872"><ele>208.0</ele><time>2026-08-10T23:59:35Z</time></trkpt>
<trkpt lat="34.8465534" lon="134.1448012"><ele>208.0</ele><time>2026-08-10T23:59:36Z</time></trkpt>
<trkpt lat="34.8465115" lon="134.1448423"><ele>208.0</ele><time>2026-08-10T23:59:37Z</time></trkpt>
<trkpt lat="34.8464977" lon="134.1448566"><ele>208.0</ele><time>2026-08-10T23:59:38Z</time></trkpt>
<trkpt lat="34.846484" lon="134.1448709"><ele>208.0</ele><time>2026-08-10T23:59:39Z</time></trkpt>
<trkpt lat="34.8464703" lon="134.1448853"><ele>208.0</ele><time>2026-08-10T23:59:40Z</time></trkpt>
<trkpt lat="34.8464315" lon="134.14493"><ele>208.0</ele><time>2026-08-10T23:59:41Z</time></trkpt>
<trkpt lat="34.8464191" lon="134.1449447"><ele>208.0</ele><time>2026-08-10T23:59:42Z</time></trkpt>
<trkpt lat="34.8464067" lon="134.1449594"><ele>207.0</ele><time>2026-08-10T23:59:43Z</time></trkpt>
<trkpt lat="34.8463944" lon="134.1449742"><ele>207.0</ele><time>2026-08-10T23:59:44Z</time></trkpt>
<trkpt lat="34.8463615" lon="134.1450215"><ele>207.0</ele><time>2026-08-10T23:59:45Z</time></trkpt>
<trkpt lat="34.8463531" lon="134.1450399"><ele>207.0</ele><time>2026-08-10T23:59:46Z</time></trkpt>
<trkpt lat="34.8463447" lon="134.1450583"><ele>206.0</ele><time>2026-08-10T23:59:47Z</time></trkpt>
<trkpt lat="34.8463364" lon="134.1450767"><ele>206.0</ele><time>2026-08-10T23:59:48Z</time></trkpt>
<trkpt lat="34.8463213" lon="134.14514"><ele>206.0</ele><time>2026-08-10T23:59:49Z</time></trkpt>
<trkpt lat="34.8463198" lon="134.1451622"><ele>206.0</ele><time>2026-08-10T23:59:50Z</time></trkpt>
<trkpt lat="34.8463183" lon="134.1451845"><ele>206.0</ele><time>2026-08-10T23:59:51Z</time></trkpt>
<trkpt lat="34.8463168" lon="134.1452068"><ele>206.0</ele><time>2026-08-10T23:59:52Z</time></trkpt>
<trkpt lat="34.8463178" lon="134.1452749"><ele>206.0</ele><time>2026-08-10T23:59:53Z</time></trkpt>
<trkpt lat="34.8463195" lon="134.1452973"><ele>206.0</ele><time>2026-08-10T23:59:54Z</time></trkpt>
<trkpt lat="34.8463212" lon="134.1453197"><ele>205.0</ele><time>2026-08-10T23:59:55Z</time></trkpt>
<trkpt lat="34.8463229" lon="134.1453421"><ele>205.0</ele><time>2026-08-10T23:59:56Z</time></trkpt>
<trkpt lat="34.8463308" lon="134.145407"><ele>205.0</ele><time>2026-08-10T23:59:57Z</time></trkpt>
<trkpt lat="34.8463333" lon="134.145429"><ele>205.0</ele><time>2026-08-10T23:59:58Z</time></trkpt>
<trkpt lat="34.8463358" lon="134.1454511"><ele>205.0</ele><time>2026-08-10T23:59:59Z</time></trkpt>
<trkpt lat="34.8463384" lon="134.1454732"><ele>205.0</ele><time>2026-08-11T00:00:00Z</time></trkpt>
<trkpt lat="34.846343" lon="134.1455386"><ele>205.0</ele><time>2026-08-11T00:00:01Z</time></trkpt>
<trkpt lat="34.8463422" lon="134.1455597"><ele>205.0</ele><time>2026-08-11T00:00:02Z</time></trkpt>
<trkpt lat="34.8463414" lon="134.1455808"><ele>204.0</ele><time>2026-08-11T00:00:03Z</time></trkpt>
<trkpt lat="34.8463407" lon="134.145602"><ele>204.0</ele><time>2026-08-11T00:00:04Z</time></trkpt>
<trkpt lat="34.8463336" lon="134.1456638"><ele>204.0</ele><time>2026-08-11T00:00:05Z</time></trkpt>
<trkpt lat="34.8463297" lon="134.1456841"><ele>204.0</ele><time>2026-08-11T00:00:06Z</time></trkpt>
<trkpt lat="34.8463258" lon="134.1457044"><ele>203.0</ele><time>2026-08-11T00:00:07Z</time></trkpt>
<trkpt lat="34.846322" lon="134.1457247"><ele>203.0</ele><time>2026-08-11T00:00:08Z</time></trkpt>
<trkpt lat="34.8463048" lon="134.1457863"><ele>203.0</ele><time>2026-08-11T00:00:09Z</time></trkpt>
<trkpt lat="34.846297" lon="134.1458057"><ele>203.0</ele><time>2026-08-11T00:00:10Z</time></trkpt>
<trkpt lat="34.8462892" lon="134.1458252"><ele>202.0</ele><time>2026-08-11T00:00:11Z</time></trkpt>
<trkpt lat="34.8462815" lon="134.1458447"><ele>202.0</ele><time>2026-08-11T00:00:12Z</time></trkpt>
<trkpt lat="34.8462508" lon="134.1458962"><ele>202.0</ele><time>2026-08-11T00:00:13Z</time></trkpt>
<trkpt lat="34.846238" lon="134.1459117"><ele>202.0</ele><time>2026-08-11T00:00:14Z</time></trkpt>
<trkpt lat="34.8462252" lon="134.1459272"><ele>201.0</ele><time>2026-08-11T00:00:15Z</time></trkpt>
<trkpt lat="34.8462124" lon="134.1459428"><ele>201.0</ele><time>2026-08-11T00:00:16Z</time></trkpt>
<trkpt lat="34.8461671" lon="134.1459826"><ele>201.0</ele><time>2026-08-11T00:00:17Z</time></trkpt>
<trkpt lat="34.8461507" lon="134.145994"><ele>201.0</ele><time>2026-08-11T00:00:18Z</time></trkpt>
<trkpt lat="34.8461343" lon="134.1460054"><ele>200.0</ele><time>2026-08-11T00:00:19Z</time></trkpt>
<trkpt lat="34.8461179" lon="134.1460169"><ele>200.0</ele><time>2026-08-11T00:00:20Z</time></trkpt>
<trkpt lat="34.8460677" lon="134.1460458"><ele>200.0</ele><time>2026-08-11T00:00:21Z</time></trkpt>
<trkpt lat="34.8460507" lon="134.1460553"><ele>200.0</ele><time>2026-08-11T00:00:22Z</time></trkpt>
<trkpt lat="34.8460338" lon="134.1460649"><ele>200.0</ele><time>2026-08-11T00:00:23Z</time></trkpt>
<trkpt lat="34.8460169" lon="134.1460745"><ele>200.0</ele><time>2026-08-11T00:00:24Z</time></trkpt>
<trkpt lat="34.8459681" lon="134.1461072"><ele>200.0</ele><time>2026-08-11T00:00:25Z</time></trkpt>
<trkpt lat="34.8459539" lon="134.1461206"><ele>200.0</ele><time>2026-08-11T00:00:26Z</time></trkpt>
<trkpt lat="34.8459397" lon="134.146134"><ele>199.0</ele><time>2026-08-11T00:00:27Z</time></trkpt>
<trkpt lat="34.8459255" lon="134.1461475"><ele>199.0</ele><time>2026-08-11T00:00:28Z</time></trkpt>
<trkpt lat="34.8458885" lon="134.1461951"><ele>199.0</ele><time>2026-08-11T00:00:29Z</time></trkpt>
<trkpt lat="34.8458779" lon="134.1462119"><ele>199.0</ele><time>2026-08-11T00:00:30Z</time></trkpt>
<trkpt lat="34.8458673" lon="134.1462288"><ele>199.0</ele><time>2026-08-11T00:00:31Z</time></trkpt>
<trkpt lat="34.8458568" lon="134.1462457"><ele>199.0</ele><time>2026-08-11T00:00:32Z</time></trkpt>
<trkpt lat="34.8458269" lon="134.1462984"><ele>199.0</ele><time>2026-08-11T00:00:33Z</time></trkpt>
<trkpt lat="34.8458178" lon="134.1463164"><ele>199.0</ele><time>2026-08-11T00:00:34Z</time></trkpt>
<trkpt lat="34.8458088" lon="134.1463345"><ele>198.0</ele><time>2026-08-11T00:00:35Z</time></trkpt>
<trkpt lat="34.8457998" lon="134.1463526"><ele>198.0</ele><time>2026-08-11T00:00:36Z</time></trkpt>
<trkpt lat="34.8457801" lon="134.1464106"><ele>198.0</ele><time>2026-08-11T00:00:37Z</time></trkpt>
<trkpt lat="34.8457764" lon="134.1464317"><ele>198.0</ele><time>2026-08-11T00:00:38Z</time></trkpt>
<trkpt lat="34.8457727" lon="134.1464529"><ele>198.0</ele><time>2026-08-11T00:00:39Z</time></trkpt>
<trkpt lat="34.845769" lon="134.1464741"><ele>198.0</ele><time>2026-08-11T00:00:40Z</time></trkpt>
<trkpt lat="34.845769" lon="134.146541"><ele>198.0</ele><time>2026-08-11T00:00:41Z</time></trkpt>
<trkpt lat="34.8457705" lon="134.1465637"><ele>198.0</ele><time>2026-08-11T00:00:42Z</time></trkpt>
<trkpt lat="34.8457721" lon="134.1465864"><ele>197.0</ele><time>2026-08-11T00:00:43Z</time></trkpt>
<trkpt lat="34.8457737" lon="134.1466092"><ele>197.0</ele><time>2026-08-11T00:00:44Z</time></trkpt>
<trkpt lat="34.8457737" lon="134.1466759"><ele>197.0</ele><time>2026-08-11T00:00:45Z</time></trkpt>
<trkpt lat="34.8457688" lon="134.146696"><ele>197.0</ele><time>2026-08-11T00:00:46Z</time></trkpt>
<trkpt lat="34.8457639" lon="134.1467161"><ele>196.0</ele><time>2026-08-11T00:00:47Z</time></trkpt>
<trkpt lat="34.845759" lon="134.1467363"><ele>196.0</ele><time>2026-08-11T00:00:48Z</time></trkpt>
<trkpt lat="34.8457267" lon="134.1467862"><ele>196.0</ele><time>2026-08-11T00:00:49Z</time></trkpt>
<trkpt lat="34.8457123" lon="134.1467989"><ele>196.0</ele><time>2026-08-11T00:00:50Z</time></trkpt>
<trkpt lat="34.845698" lon="134.1468116"><ele>195.0</ele><time>2026-08-11T00:00:51Z</time></trkpt>
<trkpt lat="34.8456837" lon="134.1468243"><ele>195.0</ele><time>2026-08-11T00:00:52Z</time></trkpt>
<trkpt lat="34.8456375" lon="134.1468578"><ele>195.0</ele><time>2026-08-11T00:00:53Z</time></trkpt>
<trkpt lat="34.845623" lon="134.1468696"><ele>195.0</ele><time>2026-08-11T00:00:54Z</time></trkpt>
<trkpt lat="34.8456086" lon="134.1468815"><ele>194.0</ele><time>2026-08-11T00:00:55Z</time></trkpt>
<trkpt lat="34.8455942" lon="134.1468934"><ele>194.0</ele><time>2026-08-11T00:00:56Z</time></trkpt>
<trkpt lat="34.845558" lon="134.146934"><ele>194.0</ele><time>2026-08-11T00:00:57Z</time></trkpt>
<trkpt lat="34.8455479" lon="134.146949"><ele>194.0</ele><time>2026-08-11T00:00:58Z</time></trkpt>
<trkpt lat="34.8455378" lon="134.146964"><ele>193.0</ele><time>2026-08-11T00:00:59Z</time></trkpt>
<trkpt lat="34.8455277" lon="134.1469791"><ele>193.0</ele><time>2026-08-11T00:01:00Z</time></trkpt>
<trkpt lat="34.8455036" lon="134.1470337"><ele>193.0</ele><time>2026-08-11T00:01:01Z</time></trkpt>
<trkpt lat="34.8454975" lon="134.1470543"><ele>193.0</ele><time>2026-08-11T00:01:02Z</time></trkpt>
<trkpt lat="34.8454914" lon="134.1470749"><ele>192.0</ele><time>2026-08-11T00:01:03Z</time></trkpt>
<trkpt lat="34.8454853" lon="134.1470955"><ele>192.0</ele><time>2026-08-11T00:01:04Z</time></trkpt>
<trkpt lat="34.8454754" lon="134.1471594"><ele>192.0</ele><time>2026-08-11T00:01:05Z</time></trkpt>
<trkpt lat="34.8454751" lon="134.1471806"><ele>192.0</ele><time>2026-08-11T00:01:06Z</time></trkpt>
<trkpt lat="34.8454748" lon="134.1472018"><ele>192.0</ele><time>2026-08-11T00:01:07Z</time></trkpt>
<trkpt lat="34.8454745" lon="134.1472231"><ele>192.0</ele><time>2026-08-11T00:01:08Z</time></trkpt>
<trkpt lat="34.8454792" lon="134.1472861"><ele>192.0</ele><time>2026-08-11T00:01:09Z</time></trkpt>
<trkpt lat="34.8454815" lon="134.1473071"><ele>192.0</ele><time>2026-08-11T00:01:10Z</time></trkpt>
<trkpt lat="34.8454839" lon="134.1473281"><ele>191.0</ele><time>2026-08-11T00:01:11Z</time></trkpt>
<trkpt lat="34.8454863" lon="134.1473492"><ele>191.0</ele><time>2026-08-11T00:01:12Z</time></trkpt>
<trkpt lat="34.8454929" lon="134.1474139"><ele>191.0</ele><time>2026-08-11T00:01:13Z</time></trkpt>
<trkpt lat="34.8454943" lon="134.1474352"><ele>191.0</ele><time>2026-08-11T00:01:14Z</time></trkpt>
<trkpt lat="34.8454957" lon="134.1474565"><ele>191.0</ele><time>2026-08-11T00:01:15Z</time></trkpt>
<trkpt lat="34.8454972" lon="134.1474778"><ele>191.0</ele><time>2026-08-11T00:01:16Z</time></trkpt>
<trkpt lat="34.845497" lon="134.14754"><ele>191.0</ele><time>2026-08-11T00:01:17Z</time></trkpt>
<trkpt lat="34.8454943" lon="134.1475597"><ele>191.0</ele><time>2026-08-11T00:01:18Z</time></trkpt>
<trkpt lat="34.8454916" lon="134.1475795"><ele>191.0</ele><time>2026-08-11T00:01:19Z</time></trkpt>
<trkpt lat="34.8454889" lon="134.1475993"><ele>191.0</ele><time>2026-08-11T00:01:20Z</time></trkpt>
<trkpt lat="34.8454701" lon="134.1476527"><ele>191.0</ele><time>2026-08-11T00:01:21Z</time></trkpt>
<trkpt lat="34.8454591" lon="134.1476666"><ele>191.0</ele><time>2026-08-11T00:01:22Z</time></trkpt>
<trkpt lat="34.8454481" lon="134.1476805"><ele>191.0</ele><time>2026-08-11T00:01:23Z</time></trkpt>
<trkpt lat="34.8454371" lon="134.1476944"><ele>191.0</ele><time>2026-08-11T00:01:24Z</time></trkpt>
<trkpt lat="34.8453883" lon="134.1477077"><ele>191.0</ele><time>2026-08-11T00:01:25Z</time></trkpt>
<trkpt lat="34.8453696" lon="134.1477028"><ele>191.0</ele><time>2026-08-11T00:01:26Z</time></trkpt>
<trkpt lat="34.8453509" lon="134.147698"><ele>191.0</ele><time>2026-08-11T00:01:27Z</time></trkpt>
<trkpt lat="34.8453322" lon="134.1476932"><ele>191.0</ele><time>2026-08-11T00:01:28Z</time></trkpt>
<trkpt lat="34.8452772" lon="134.1476672"><ele>191.0</ele><time>2026-08-11T00:01:29Z</time></trkpt>
<trkpt lat="34.84526" lon="134.1476602"><ele>191.0</ele><time>2026-08-11T00:01:30Z</time></trkpt>
<trkpt lat="34.8452428" lon="134.1476533"><ele>191.0</ele><time>2026-08-11T00:01:31Z</time></trkpt>
<trkpt lat="34.8452256" lon="134.1476464"><ele>191.0</ele><time>2026-08-11T00:01:32Z</time></trkpt>
<trkpt lat="34.8451775" lon="134.1476372"><ele>191.0</ele><time>2026-08-11T00:01:33Z</time></trkpt>
<trkpt lat="34.8451614" lon="134.1476382"><ele>191.0</ele><time>2026-08-11T00:01:34Z</time></trkpt>
<trkpt lat="34.8451453" lon="134.1476393"><ele>191.0</ele><time>2026-08-11T00:01:35Z</time></trkpt>
<trkpt lat="34.8451292" lon="134.1476404"><ele>191.0</ele><time>2026-08-11T00:01:36Z</time></trkpt>
<trkpt lat="34.8450802" lon="134.1476529"><ele>191.0</ele><time>2026-08-11T00:01:37Z</time></trkpt>
<trkpt lat="34.8450647" lon="134.1476602"><ele>191.0</ele><time>2026-08-11T00:01:38Z</time></trkpt>
<trkpt lat="34.8450492" lon="134.1476675"><ele>191.0</ele><time>2026-08-11T00:01:39Z</time></trkpt>
<trkpt lat="34.8450337" lon="134.1476748"><ele>191.0</ele><time>2026-08-11T00:01:40Z</time></trkpt>
<trkpt lat="34.844991" lon="134.1477016"><ele>191.0</ele><time>2026-08-11T00:01:41Z</time></trkpt>
<trkpt lat="34.8449779" lon="134.1477107"><ele>191.0</ele><time>2026-08-11T00:01:42Z</time></trkpt>
<trkpt lat="34.8449648" lon="134.1477198"><ele>191.0</ele><time>2026-08-11T00:01:43Z</time></trkpt>
<trkpt lat="34.8449518" lon="134.1477289"><ele>191.0</ele><time>2026-08-11T00:01:44Z</time></trkpt>
<trkpt lat="34.8449138" lon="134.1477592"><ele>191.0</ele><time>2026-08-11T00:01:45Z</time></trkpt>
<trkpt lat="34.8449009" lon="134.1477699"><ele>191.0</ele><time>2026-08-11T00:01:46Z</time></trkpt>
<trkpt lat="34.844888" lon="134.1477806"><ele>191.0</ele><time>2026-08-11T00:01:47Z</time></trkpt>
<trkpt lat="34.8448752" lon="134.1477914"><ele>191.0</ele><time>2026-08-11T00:01:48Z</time></trkpt>
<trkpt lat="34.8448346" lon="134.1478177"><ele>191.0</ele><time>2026-08-11T00:01:49Z</time></trkpt>
<trkpt lat="34.84482" lon="134.1478239"><ele>191.0</ele><time>2026-08-11T00:01:50Z</time></trkpt>
<trkpt lat="34.8448055" lon="134.1478301"><ele>191.0</ele><time>2026-08-11T00:01:51Z</time></trkpt>
<trkpt lat="34.844791" lon="134.1478363"><ele>191.0</ele><time>2026-08-11T00:01:52Z</time></trkpt>
<trkpt lat="34.8447455" lon="134.147847"><ele>191.0</ele><time>2026-08-11T00:01:53Z</time></trkpt>
<trkpt lat="34.84473" lon="134.1478485"><ele>191.0</ele><time>2026-08-11T00:01:54Z</time></trkpt>
<trkpt lat="34.8447145" lon="134.14785"><ele>191.0</ele><time>2026-08-11T00:01:55Z</time></trkpt>
<trkpt lat="34.844699" lon="134.1478516"><ele>191.0</ele><time>2026-08-11T00:01:56Z</time></trkpt>
<trkpt lat="34.8446535" lon="134.147852"><ele>191.0</ele><time>2026-08-11T00:01:57Z</time></trkpt>
<trkpt lat="34.8446388" lon="134.1478526"><ele>191.0</ele><time>2026-08-11T00:01:58Z</time></trkpt>
<trkpt lat="34.8446242" lon="134.1478532"><ele>191.0</ele><time>2026-08-11T00:01:59Z</time></trkpt>
<trkpt lat="34.8446096" lon="134.1478538"><ele>191.0</ele><time>2026-08-11T00:02:00Z</time></trkpt>
<trkpt lat="34.8445674" lon="134.1478637"><ele>191.0</ele><time>2026-08-11T00:02:01Z</time></trkpt>
<trkpt lat="34.8445541" lon="134.1478699"><ele>192.0</ele><time>2026-08-11T00:02:02Z</time></trkpt>
<trkpt lat="34.8445408" lon="134.1478762"><ele>192.0</ele><time>2026-08-11T00:02:03Z</time></trkpt>
<trkpt lat="34.8445275" lon="134.1478825"><ele>192.0</ele><time>2026-08-11T00:02:04Z</time></trkpt>
<trkpt lat="34.8444876" lon="134.1479052"><ele>192.0</ele><time>2026-08-11T00:02:05Z</time></trkpt>
<trkpt lat="34.8444744" lon="134.1479123"><ele>192.0</ele><time>2026-08-11T00:02:06Z</time></trkpt>
<trkpt lat="34.8444613" lon="134.1479195"><ele>192.0</ele><time>2026-08-11T00:02:07Z</time></trkpt>
<trkpt lat="34.8444482" lon="134.1479267"><ele>192.0</ele><time>2026-08-11T00:02:08Z</time></trkpt>
<trkpt lat="34.8444102" lon="134.1479484"><ele>192.0</ele><time>2026-08-11T00:02:09Z</time></trkpt>
<trkpt lat="34.8443977" lon="134.1479562"><ele>193.0</ele><time>2026-08-11T00:02:10Z</time></trkpt>
<trkpt lat="34.8443852" lon="134.147964"><ele>193.0</ele><time>2026-08-11T00:02:11Z</time></trkpt>
<trkpt lat="34.8443728" lon="134.1479718"><ele>193.0</ele><time>2026-08-11T00:02:12Z</time></trkpt>
<trkpt lat="34.8443358" lon="134.1479952"><ele>193.0</ele><time>2026-08-11T00:02:13Z</time></trkpt>
<trkpt lat="34.8443227" lon="134.1480036"><ele>193.0</ele><time>2026-08-11T00:02:14Z</time></trkpt>
<trkpt lat="34.8443096" lon="134.1480121"><ele>193.0</ele><time>2026-08-11T00:02:15Z</time></trkpt>
<trkpt lat="34.8442966" lon="134.1480206"><ele>193.0</ele><time>2026-08-11T00:02:16Z</time></trkpt>
<trkpt lat="34.8442545" lon="134.1480472"><ele>193.0</ele><time>2026-08-11T00:02:17Z</time></trkpt>
<trkpt lat="34.844239" lon="134.1480558"><ele>193.0</ele><time>2026-08-11T00:02:18Z</time></trkpt>
<trkpt lat="34.8442235" lon="134.1480644"><ele>193.0</ele><time>2026-08-11T00:02:19Z</time></trkpt>
<trkpt lat="34.844208" lon="134.148073"><ele>193.0</ele><time>2026-08-11T00:02:20Z</time></trkpt>
<trkpt lat="34.8441624" lon="134.1480982"><ele>193.0</ele><time>2026-08-11T00:02:21Z</time></trkpt>
<trkpt lat="34.8441485" lon="134.148106"><ele>193.0</ele><time>2026-08-11T00:02:22Z</time></trkpt>
<trkpt lat="34.8441347" lon="134.1481138"><ele>193.0</ele><time>2026-08-11T00:02:23Z</time></trkpt>
<trkpt lat="34.8441209" lon="134.1481216"><ele>193.0</ele><time>2026-08-11T00:02:24Z</time></trkpt>
<trkpt lat="34.8440828" lon="134.1481429"><ele>193.0</ele><time>2026-08-11T00:02:25Z</time></trkpt>
<trkpt lat="34.8440701" lon="134.1481487"><ele>194.0</ele><time>2026-08-11T00:02:26Z</time></trkpt>
<trkpt lat="34.8440574" lon="134.1481545"><ele>194.0</ele><time>2026-08-11T00:02:27Z</time></trkpt>
<trkpt lat="34.8440448" lon="134.1481604"><ele>194.0</ele><time>2026-08-11T00:02:28Z</time></trkpt>
<trkpt lat="34.8440064" lon="134.1481748"><ele>194.0</ele><time>2026-08-11T00:02:29Z</time></trkpt>
<trkpt lat="34.8439928" lon="134.1481804"><ele>194.0</ele><time>2026-08-11T00:02:30Z</time></trkpt>
<trkpt lat="34.8439793" lon="134.148186"><ele>194.0</ele><time>2026-08-11T00:02:31Z</time></trkpt>
<trkpt lat="34.8439658" lon="134.1481917"><ele>194.0</ele><time>2026-08-11T00:02:32Z</time></trkpt>
<trkpt lat="34.8439213" lon="134.1482069"><ele>194.0</ele><time>2026-08-11T00:02:33Z</time></trkpt>
<trkpt lat="34.8439056" lon="134.1482117"><ele>194.0</ele><time>2026-08-11T00:02:34Z</time></trkpt>
<trkpt lat="34.84389" lon="134.1482165"><ele>194.0</ele><time>2026-08-11T00:02:35Z</time></trkpt>
<trkpt lat="34.8438744" lon="134.1482214"><ele>194.0</ele><time>2026-08-11T00:02:36Z</time></trkpt>
<trkpt lat="34.843828" lon="134.1482338"><ele>194.0</ele><time>2026-08-11T00:02:37Z</time></trkpt>
<trkpt lat="34.8438126" lon="134.1482364"><ele>195.0</ele><time>2026-08-11T00:02:38Z</time></trkpt>
<trkpt lat="34.8437973" lon="134.148239"><ele>195.0</ele><time>2026-08-11T00:02:39Z</time></trkpt>
<trkpt lat="34.843782" lon="134.1482417"><ele>195.0</ele><time>2026-08-11T00:02:40Z</time></trkpt>
<trkpt lat="34.8437399" lon="134.1482458"><ele>195.0</ele><time>2026-08-11T00:02:41Z</time></trkpt>
<trkpt lat="34.8437266" lon="134.1482481"><ele>195.0</ele><time>2026-08-11T00:02:42Z</time></trkpt>
<trkpt lat="34.8437133" lon="134.1482505"><ele>195.0</ele><time>2026-08-11T00:02:43Z</time></trkpt>
<trkpt lat="34.8437" lon="134.1482529"><ele>195.0</ele><time>2026-08-11T00:02:44Z</time></trkpt>
<trkpt lat="34.8436605" lon="134.1482645"><ele>195.0</ele><time>2026-08-11T00:02:45Z</time></trkpt>
<trkpt lat="34.8436481" lon="134.148271"><ele>196.0</ele><time>2026-08-11T00:02:46Z</time></trkpt>
<trkpt lat="34.8436357" lon="134.1482775"><ele>196.0</ele><time>2026-08-11T00:02:47Z</time></trkpt>
<trkpt lat="34.8436234" lon="134.1482841"><ele>196.0</ele><time>2026-08-11T00:02:48Z</time></trkpt>
<trkpt lat="34.8435912" lon="134.1483121"><ele>196.0</ele><time>2026-08-11T00:02:49Z</time></trkpt>
<trkpt lat="34.8435823" lon="134.1483226"><ele>196.0</ele><time>2026-08-11T00:02:50Z</time></trkpt>
<trkpt lat="34.8435734" lon="134.1483331"><ele>196.0</ele><time>2026-08-11T00:02:51Z</time></trkpt>
<trkpt lat="34.8435645" lon="134.1483437"><ele>196.0</ele><time>2026-08-11T00:02:52Z</time></trkpt>
<trkpt lat="34.8435389" lon="134.1483744"><ele>196.0</ele><time>2026-08-11T00:02:53Z</time></trkpt>
<trkpt lat="34.8435302" lon="134.1483841"><ele>197.0</ele><time>2026-08-11T00:02:54Z</time></trkpt>
<trkpt lat="34.8435215" lon="134.1483939"><ele>197.0</ele><time>2026-08-11T00:02:55Z</time></trkpt>
<trkpt lat="34.8435128" lon="134.1484037"><ele>197.0</ele><time>2026-08-11T00:02:56Z</time></trkpt>
<trkpt lat="34.8434846" lon="134.1484336"><ele>197.0</ele><time>2026-08-11T00:02:57Z</time></trkpt>
<trkpt lat="34.843474" lon="134.1484426"><ele>198.0</ele><time>2026-08-11T00:02:58Z</time></trkpt>
<trkpt lat="34.8434635" lon="134.1484516"><ele>198.0</ele><time>2026-08-11T00:02:59Z</time></trkpt>
<trkpt lat="34.843453" lon="134.1484607"><ele>198.0</ele><time>2026-08-11T00:03:00Z</time></trkpt>
<trkpt lat="34.8434185" lon="134.1484806"><ele>198.0</ele><time>2026-08-11T00:03:01Z</time></trkpt>
<trkpt lat="34.8434052" lon="134.1484851"><ele>199.0</ele><time>2026-08-11T00:03:02Z</time></trkpt>
<trkpt lat="34.843392" lon="134.1484896"><ele>199.0</ele><time>2026-08-11T00:03:03Z</time></trkpt>
<trkpt lat="34.8433788" lon="134.1484941"><ele>199.0</ele><time>2026-08-11T00:03:04Z</time></trkpt>
<trkpt lat="34.8433333" lon="134.1484998"><ele>199.0</ele><time>2026-08-11T00:03:05Z</time></trkpt>
<trkpt lat="34.8433184" lon="134.1484976"><ele>199.0</ele><time>2026-08-11T00:03:06Z</time></trkpt>
<trkpt lat="34.8433036" lon="134.1484954"><ele>199.0</ele><time>2026-08-11T00:03:07Z</time></trkpt>
<trkpt lat="34.8432888" lon="134.1484932"><ele>199.0</ele><time>2026-08-11T00:03:08Z</time></trkpt>
<trkpt lat="34.8432466" lon="134.1484781"><ele>199.0</ele><time>2026-08-11T00:03:09Z</time></trkpt>
<trkpt lat="34.8432337" lon="134.1484713"><ele>200.0</ele><time>2026-08-11T00:03:10Z</time></trkpt>
<trkpt lat="34.8432208" lon="134.1484645"><ele>200.0</ele><time>2026-08-11T00:03:11Z</time></trkpt>
<trkpt lat="34.8432079" lon="134.1484578"><ele>200.0</ele><time>2026-08-11T00:03:12Z</time></trkpt>
<trkpt lat="34.8431712" lon="134.1484358"><ele>200.0</ele><time>2026-08-11T00:03:13Z</time></trkpt>
<trkpt lat="34.8431595" lon="134.1484271"><ele>201.0</ele><time>2026-08-11T00:03:14Z</time></trkpt>
<trkpt lat="34.8431478" lon="134.1484184"><ele>201.0</ele><time>2026-08-11T00:03:15Z</time></trkpt>
<trkpt lat="34.8431362" lon="134.1484097"><ele>201.0</ele><time>2026-08-11T00:03:16Z</time></trkpt>
<trkpt lat="34.8431029" lon="134.14838"><ele>201.0</ele><time>2026-08-11T00:03:17Z</time></trkpt>
<trkpt lat="34.843092" lon="134.1483688"><ele>202.0</ele><time>2026-08-11T00:03:18Z</time></trkpt>
<trkpt lat="34.8430811" lon="134.1483576"><ele>202.0</ele><time>2026-08-11T00:03:19Z</time></trkpt>
<trkpt lat="34.8430702" lon="134.1483465"><ele>202.0</ele><time>2026-08-11T00:03:20Z</time></trkpt>
<trkpt lat="34.8430376" lon="134.1483118"><ele>202.0</ele><time>2026-08-11T00:03:21Z</time></trkpt>
<trkpt lat="34.8430273" lon="134.1483002"><ele>202.0</ele><time>2026-08-11T00:03:22Z</time></trkpt>
<trkpt lat="34.843017" lon="134.1482886"><ele>202.0</ele><time>2026-08-11T00:03:23Z</time></trkpt>
<trkpt lat="34.8430067" lon="134.1482771"><ele>202.0</ele><time>2026-08-11T00:03:24Z</time></trkpt>
<trkpt lat="34.8429771" lon="134.1482451"><ele>202.0</ele><time>2026-08-11T00:03:25Z</time></trkpt>
<trkpt lat="34.842967" lon="134.1482358"><ele>203.0</ele><time>2026-08-11T00:03:26Z</time></trkpt>
<trkpt lat="34.8429569" lon="134.1482265"><ele>203.0</ele><time>2026-08-11T00:03:27Z</time></trkpt>
<trkpt lat="34.8429468" lon="134.1482172"><ele>203.0</ele><time>2026-08-11T00:03:28Z</time></trkpt>
<trkpt lat="34.8429118" lon="134.1481938"><ele>203.0</ele><time>2026-08-11T00:03:29Z</time></trkpt>
<trkpt lat="34.8428993" lon="134.1481868"><ele>203.0</ele><time>2026-08-11T00:03:30Z</time></trkpt>
<trkpt lat="34.8428869" lon="134.1481798"><ele>203.0</ele><time>2026-08-11T00:03:31Z</time></trkpt>
<trkpt lat="34.8428745" lon="134.1481729"><ele>203.0</ele><time>2026-08-11T00:03:32Z</time></trkpt>
<trkpt lat="34.8428366" lon="134.1481532"><ele>203.0</ele><time>2026-08-11T00:03:33Z</time></trkpt>
<trkpt lat="34.8428234" lon="134.1481467"><ele>204.0</ele><time>2026-08-11T00:03:34Z</time></trkpt>
<trkpt lat="34.8428102" lon="134.1481402"><ele>204.0</ele><time>2026-08-11T00:03:35Z</time></trkpt>
<trkpt lat="34.842797" lon="134.1481337"><ele>204.0</ele><time>2026-08-11T00:03:36Z</time></trkpt>
<trkpt lat="34.8427557" lon="134.1481157"><ele>204.0</ele><time>2026-08-11T00:03:37Z</time></trkpt>
<trkpt lat="34.8427417" lon="134.14811"><ele>205.0</ele><time>2026-08-11T00:03:38Z</time></trkpt>
<trkpt lat="34.8427277" lon="134.1481043"><ele>205.0</ele><time>2026-08-11T00:03:39Z</time></trkpt>
<trkpt lat="34.8427137" lon="134.1480987"><ele>205.0</ele><time>2026-08-11T00:03:40Z</time></trkpt>
<trkpt lat="34.8426717" lon="134.1480792"><ele>205.0</ele><time>2026-08-11T00:03:41Z</time></trkpt>
<trkpt lat="34.8426576" lon="134.148073"><ele>205.0</ele><time>2026-08-11T00:03:42Z</time></trkpt>
<trkpt lat="34.8426436" lon="134.1480668"><ele>205.0</ele><time>2026-08-11T00:03:43Z</time></trkpt>
<trkpt lat="34.8426296" lon="134.1480606"><ele>205.0</ele><time>2026-08-11T00:03:44Z</time></trkpt>
<trkpt lat="34.8425876" lon="134.1480443"><ele>205.0</ele><time>2026-08-11T00:03:45Z</time></trkpt>
<trkpt lat="34.842573" lon="134.1480401"><ele>206.0</ele><time>2026-08-11T00:03:46Z</time></trkpt>
<trkpt lat="34.8425584" lon="134.1480359"><ele>206.0</ele><time>2026-08-11T00:03:47Z</time></trkpt>
<trkpt lat="34.8425438" lon="134.1480318"><ele>206.0</ele><time>2026-08-11T00:03:48Z</time></trkpt>
<trkpt lat="34.842499" lon="134.1480216"><ele>206.0</ele><time>2026-08-11T00:03:49Z</time></trkpt>
<trkpt lat="34.8424836" lon="134.1480188"><ele>206.0</ele><time>2026-08-11T00:03:50Z</time></trkpt>
<trkpt lat="34.8424683" lon="134.1480161"><ele>206.0</ele><time>2026-08-11T00:03:51Z</time></trkpt>
<trkpt lat="34.842453" lon="134.1480134"><ele>206.0</ele><time>2026-08-11T00:03:52Z</time></trkpt>
<trkpt lat="34.8424046" lon="134.1480066"><ele>206.0</ele><time>2026-08-11T00:03:53Z</time></trkpt>
<trkpt lat="34.8423884" lon="134.1480053"><ele>206.0</ele><time>2026-08-11T00:03:54Z</time></trkpt>
<trkpt lat="34.8423722" lon="134.1480041"><ele>206.0</ele><time>2026-08-11T00:03:55Z</time></trkpt>
<trkpt lat="34.842356" lon="134.1480029"><ele>206.0</ele><time>2026-08-11T00:03:56Z</time></trkpt>
<trkpt lat="34.8423093" lon="134.1479982"><ele>206.0</ele><time>2026-08-11T00:03:57Z</time></trkpt>
<trkpt lat="34.842294" lon="134.1479969"><ele>206.0</ele><time>2026-08-11T00:03:58Z</time></trkpt>
<trkpt lat="34.8422787" lon="134.1479956"><ele>206.0</ele><time>2026-08-11T00:03:59Z</time></trkpt>
<trkpt lat="34.8422634" lon="134.1479944"><ele>206.0</ele><time>2026-08-11T00:04:00Z</time></trkpt>
<trkpt lat="34.8422185" lon="134.1479973"><ele>206.0</ele><time>2026-08-11T00:04:01Z</time></trkpt>
<trkpt lat="34.8422039" lon="134.1480021"><ele>206.0</ele><time>2026-08-11T00:04:02Z</time></trkpt>
<trkpt lat="34.8421894" lon="134.1480069"><ele>206.0</ele><time>2026-08-11T00:04:03Z</time></trkpt>
<trkpt lat="34.8421749" lon="134.1480118"><ele>206.0</ele><time>2026-08-11T00:04:04Z</time></trkpt>
<trkpt lat="34.8421311" lon="134.1480364"><ele>206.0</ele><time>2026-08-11T00:04:05Z</time></trkpt>
<trkpt lat="34.8421173" lon="134.1480473"><ele>206.0</ele><time>2026-08-11T00:04:06Z</time></trkpt>
<trkpt lat="34.8421035" lon="134.1480582"><ele>206.0</ele><time>2026-08-11T00:04:07Z</time></trkpt>
<trkpt lat="34.8420897" lon="134.1480691"><ele>206.0</ele><time>2026-08-11T00:04:08Z</time></trkpt>
<trkpt lat="34.8420516" lon="134.14811"><ele>206.0</ele><time>2026-08-11T00:04:09Z</time></trkpt>
<trkpt lat="34.8420402" lon="134.1481243"><ele>206.0</ele><time>2026-08-11T00:04:10Z</time></trkpt>
<trkpt lat="34.8420289" lon="134.1481386"><ele>206.0</ele><time>2026-08-11T00:04:11Z</time></trkpt>
<trkpt lat="34.8420176" lon="134.1481529"><ele>206.0</ele><time>2026-08-11T00:04:12Z</time></trkpt>
<trkpt lat="34.8419916" lon="134.1481917"><ele>206.0</ele><time>2026-08-11T00:04:13Z</time></trkpt>
<trkpt lat="34.8419857" lon="134.1482049"><ele>206.0</ele><time>2026-08-11T00:04:14Z</time></trkpt>
<trkpt lat="34.8419799" lon="134.1482182"><ele>206.0</ele><time>2026-08-11T00:04:15Z</time></trkpt>
<trkpt lat="34.8419741" lon="134.1482315"><ele>206.0</ele><time>2026-08-11T00:04:16Z</time></trkpt>
<trkpt lat="34.841965" lon="134.1482762"><ele>206.0</ele><time>2026-08-11T00:04:17Z</time></trkpt>
<trkpt lat="34.8419647" lon="134.1482926"><ele>207.0</ele><time>2026-08-11T00:04:18Z</time></trkpt>
<trkpt lat="34.8419645" lon="134.1483091"><ele>207.0</ele><time>2026-08-11T00:04:19Z</time></trkpt>
<trkpt lat="34.8419643" lon="134.1483256"><ele>207.0</ele><time>2026-08-11T00:04:20Z</time></trkpt>
<trkpt lat="34.8419741" lon="134.1483747"><ele>207.0</ele><time>2026-08-11T00:04:21Z</time></trkpt>
<trkpt lat="34.841981" lon="134.1483891"><ele>208.0</ele><time>2026-08-11T00:04:22Z</time></trkpt>
<trkpt lat="34.841988" lon="134.1484035"><ele>208.0</ele><time>2026-08-11T00:04:23Z</time></trkpt>
<trkpt lat="34.841995" lon="134.1484179"><ele>208.0</ele><time>2026-08-11T00:04:24Z</time></trkpt>
<trkpt lat="34.8420257" lon="134.148453"><ele>208.0</ele><time>2026-08-11T00:04:25Z</time></trkpt>
<trkpt lat="34.8420376" lon="134.1484627"><ele>209.0</ele><time>2026-08-11T00:04:26Z</time></trkpt>
<trkpt lat="34.8420495" lon="134.1484725"><ele>209.0</ele><time>2026-08-11T00:04:27Z</time></trkpt>
<trkpt lat="34.8420615" lon="134.1484823"><ele>209.0</ele><time>2026-08-11T00:04:28Z</time></trkpt>
<trkpt lat="34.8420961" lon="134.1485126"><ele>209.0</ele><time>2026-08-11T00:04:29Z</time></trkpt>
<trkpt lat="34.8421056" lon="134.1485245"><ele>210.0</ele><time>2026-08-11T00:04:30Z</time></trkpt>
<trkpt lat="34.8421152" lon="134.1485364"><ele>210.0</ele><time>2026-08-11T00:04:31Z</time></trkpt>
<trkpt lat="34.8421248" lon="134.1485483"><ele>210.0</ele><time>2026-08-11T00:04:32Z</time></trkpt>
<trkpt lat="34.8421464" lon="134.1485885"><ele>210.0</ele><time>2026-08-11T00:04:33Z</time></trkpt>
<trkpt lat="34.8421503" lon="134.1486028"><ele>211.0</ele><time>2026-08-11T00:04:34Z</time></trkpt>
<trkpt lat="34.8421542" lon="134.1486171"><ele>211.0</ele><time>2026-08-11T00:04:35Z</time></trkpt>
<trkpt lat="34.8421582" lon="134.1486314"><ele>211.0</ele><time>2026-08-11T00:04:36Z</time></trkpt>
<trkpt lat="34.8421556" lon="134.1486771"><ele>211.0</ele><time>2026-08-11T00:04:37Z</time></trkpt>
<trkpt lat="34.8421489" lon="134.1486909"><ele>212.0</ele><time>2026-08-11T00:04:38Z</time></trkpt>
<trkpt lat="34.8421422" lon="134.1487047"><ele>212.0</ele><time>2026-08-11T00:04:39Z</time></trkpt>
<trkpt lat="34.8421356" lon="134.1487186"><ele>213.0</ele><time>2026-08-11T00:04:40Z</time></trkpt>
<trkpt lat="34.8421013" lon="134.1487468"><ele>213.0</ele><time>2026-08-11T00:04:41Z</time></trkpt>
<trkpt lat="34.8420875" lon="134.1487512"><ele>214.0</ele><time>2026-08-11T00:04:42Z</time></trkpt>
<trkpt lat="34.8420737" lon="134.1487557"><ele>214.0</ele><time>2026-08-11T00:04:43Z</time></trkpt>
<trkpt lat="34.8420599" lon="134.1487602"><ele>214.0</ele><time>2026-08-11T00:04:44Z</time></trkpt>
<trkpt lat="34.8420168" lon="134.1487623"><ele>214.0</ele><time>2026-08-11T00:04:45Z</time></trkpt>
<trkpt lat="34.8420027" lon="134.1487603"><ele>215.0</ele><time>2026-08-11T00:04:46Z</time></trkpt>
<trkpt lat="34.8419886" lon="134.1487583"><ele>215.0</ele><time>2026-08-11T00:04:47Z</time></trkpt>
<trkpt lat="34.8419746" lon="134.1487563"><ele>215.0</ele><time>2026-08-11T00:04:48Z</time></trkpt>
<trkpt lat="34.8419337" lon="134.1487406"><ele>215.0</ele><time>2026-08-11T00:04:49Z</time></trkpt>
<trkpt lat="34.8419212" lon="134.1487325"><ele>216.0</ele><time>2026-08-11T00:04:50Z</time></trkpt>
<trkpt lat="34.8419087" lon="134.1487245"><ele>216.0</ele><time>2026-08-11T00:04:51Z</time></trkpt>
<trkpt lat="34.8418962" lon="134.1487165"><ele>217.0</ele><time>2026-08-11T00:04:52Z</time></trkpt>
<trkpt lat="34.8418623" lon="134.1486914"><ele>217.0</ele><time>2026-08-11T00:04:53Z</time></trkpt>
<trkpt lat="34.8418519" lon="134.1486827"><ele>218.0</ele><time>2026-08-11T00:04:54Z</time></trkpt>
<trkpt lat="34.8418416" lon="134.1486741"><ele>218.0</ele><time>2026-08-11T00:04:55Z</time></trkpt>
<trkpt lat="34.8418313" lon="134.1486655"><ele>218.0</ele><time>2026-08-11T00:04:56Z</time></trkpt>
<trkpt lat="34.8418028" lon="134.1486369"><ele>218.0</ele><time>2026-08-11T00:04:57Z</time></trkpt>
<trkpt lat="34.8417948" lon="134.1486256"><ele>219.0</ele><time>2026-08-11T00:04:58Z</time></trkpt>
<trkpt lat="34.8417868" lon="134.1486144"><ele>219.0</ele><time>2026-08-11T00:04:59Z</time></trkpt>
<trkpt lat="34.8417789" lon="134.1486032"><ele>219.0</ele><time>2026-08-11T00:05:00Z</time></trkpt>
<trkpt lat="34.841757" lon="134.1485648"><ele>219.0</ele><time>2026-08-11T00:05:01Z</time></trkpt>
<trkpt lat="34.8417493" lon="134.1485526"><ele>220.0</ele><time>2026-08-11T00:05:02Z</time></trkpt>
<trkpt lat="34.8417416" lon="134.1485405"><ele>220.0</ele><time>2026-08-11T00:05:03Z</time></trkpt>
<trkpt lat="34.841734" lon="134.1485284"><ele>220.0</ele><time>2026-08-11T00:05:04Z</time></trkpt>
<trkpt lat="34.8417093" lon="134.1484982"><ele>220.0</ele><time>2026-08-11T00:05:05Z</time></trkpt>
<trkpt lat="34.8417005" lon="134.1484892"><ele>221.0</ele><time>2026-08-11T00:05:06Z</time></trkpt>
<trkpt lat="34.8416917" lon="134.1484802"><ele>221.0</ele><time>2026-08-11T00:05:07Z</time></trkpt>
<trkpt lat="34.841683" lon="134.1484713"><ele>222.0</ele><time>2026-08-11T00:05:08Z</time></trkpt>
<trkpt lat="34.841654" lon="134.1484468"><ele>222.0</ele><time>2026-08-11T00:05:09Z</time></trkpt>
<trkpt lat="34.8416438" lon="134.1484391"><ele>223.0</ele><time>2026-08-11T00:05:10Z</time></trkpt>
<trkpt lat="34.8416336" lon="134.1484314"><ele>223.0</ele><time>2026-08-11T00:05:11Z</time></trkpt>
<trkpt lat="34.8416234" lon="134.1484237"><ele>223.0</ele><time>2026-08-11T00:05:12Z</time></trkpt>
<trkpt lat="34.8415919" lon="134.1484015"><ele>223.0</ele><time>2026-08-11T00:05:13Z</time></trkpt>
<trkpt lat="34.8415813" lon="134.1483947"><ele>224.0</ele><time>2026-08-11T00:05:14Z</time></trkpt>
<trkpt lat="34.8415707" lon="134.1483879"><ele>224.0</ele><time>2026-08-11T00:05:15Z</time></trkpt>
<trkpt lat="34.8415601" lon="134.1483811"><ele>224.0</ele><time>2026-08-11T00:05:16Z</time></trkpt>
<trkpt lat="34.8415266" lon="134.1483619"><ele>224.0</ele><time>2026-08-11T00:05:17Z</time></trkpt>
<trkpt lat="34.841516" lon="134.1483545"><ele>225.0</ele><time>2026-08-11T00:05:18Z</time></trkpt>
<trkpt lat="34.8415054" lon="134.1483472"><ele>225.0</ele><time>2026-08-11T00:05:19Z</time></trkpt>
<trkpt lat="34.8414949" lon="134.1483399"><ele>225.0</ele><time>2026-08-11T00:05:20Z</time></trkpt>
<trkpt lat="34.8414659" lon="134.1483206"><ele>225.0</ele><time>2026-08-11T00:05:21Z</time></trkpt>
<trkpt lat="34.841455" lon="134.1483143"><ele>226.0</ele><time>2026-08-11T00:05:22Z</time></trkpt>
<trkpt lat="34.8414441" lon="134.148308"><ele>226.0</ele><time>2026-08-11T00:05:23Z</time></trkpt>
<trkpt lat="34.8414332" lon="134.1483017"><ele>226.0</ele><time>2026-08-11T00:05:24Z</time></trkpt>
<trkpt lat="34.84124876546932" lon="134.14829686048924"><ele>214.87743623554707</ele><time>2026-08-11T00:21:16Z</time></trkpt>
<trkpt lat="34.841112824105764" lon="134.14844726205592"><ele>213.23986645042896</ele><time>2026-08-11T00:21:24Z</time></trkpt>
<trkpt lat="34.8409172836162" lon="134.14841036366312"><ele>212.6385640827939</ele><time>2026-08-11T00:21:31Z</time></trkpt>
<trkpt lat="34.84072973616306" lon="134.1483410520835"><ele>211.0724823921919</ele><time>2026-08-11T00:21:38Z</time></trkpt>
<trkpt lat="34.84054622993584" lon="134.14828577322277"><ele>206.89056589081883</ele><time>2026-08-11T00:21:45Z</time></trkpt>
<trkpt lat="34.84037161206537" lon="134.14814787721434"><ele>206.18718188162893</ele><time>2026-08-11T00:21:53Z</time></trkpt>
<trkpt lat="34.840174765513325" lon="134.1480644863782"><ele>204.4189603002742</ele><time>2026-08-11T00:22:01Z</time></trkpt>
<trkpt lat="34.839977953394914" lon="134.14814302841017"><ele>199.2176944455132</ele><time>2026-08-11T00:22:09Z</time></trkpt>
<trkpt lat="34.839806552229334" lon="134.14824845960575"><ele>193.87099542934448</ele><time>2026-08-11T00:22:17Z</time></trkpt>
<trkpt lat="34.839603994726886" lon="134.148256737903"><ele>189.86051980406046</ele><time>2026-08-11T00:22:25Z</time></trkpt>
<trkpt lat="34.83941915000636" lon="134.14834585105274"><ele>185.6658131275326</ele><time>2026-08-11T00:22:33Z</time></trkpt>
<trkpt lat="34.839306675628684" lon="134.1485568145091"><ele>181.43870634958148</ele><time>2026-08-11T00:22:41Z</time></trkpt>
<trkpt lat="34.83927300528396" lon="134.14880139346204"><ele>177.96111365407705</ele><time>2026-08-11T00:22:49Z</time></trkpt>
<trkpt lat="34.83908611124704" lon="134.14884722280746"><ele>175.73312274739146</ele><time>2026-08-11T00:22:58Z</time></trkpt>
<trkpt lat="34.83908113441587" lon="134.14861549553413"><ele>171.12171266134828</ele><time>2026-08-11T00:23:06Z</time></trkpt>
<trkpt lat="34.839144601487874" lon="134.14840098477282"><ele>169.0358101464808</ele><time>2026-08-11T00:23:14Z</time></trkpt>
<trkpt lat="34.83923408014868" lon="134.1481947960264"><ele>168.4206867730245</ele><time>2026-08-11T00:23:21Z</time></trkpt>
<trkpt lat="34.83909274758569" lon="134.14804906149092"><ele>168.4116822751239</ele><time>2026-08-11T00:23:27Z</time></trkpt>
<trkpt lat="34.838896612183504" lon="134.14801370210736"><ele>166.24781125038862</ele><time>2026-08-11T00:23:34Z</time></trkpt>
<trkpt lat="34.838719112307075" lon="134.14790131677967"><ele>161.0765132131055</ele><time>2026-08-11T00:23:42Z</time></trkpt>
<trkpt lat="34.83858047052262" lon="134.14772369669677"><ele>157.25804052967578</ele><time>2026-08-11T00:23:50Z</time></trkpt>
<trkpt lat="34.83844190619127" lon="134.14754662897548"><ele>154.9351228978485</ele><time>2026-08-11T00:23:57Z</time></trkpt>
<trkpt lat="34.83833406383625" lon="134.14736755268132"><ele>153.88672881480306</ele><time>2026-08-11T00:24:03Z</time></trkpt>
<trkpt lat="34.8381363043266" lon="134.1473305483738"><ele>151.06688778381795</ele><time>2026-08-11T00:24:10Z</time></trkpt>
<trkpt lat="34.837982800581095" lon="134.14720221145677"><ele>150.25871197413653</ele><time>2026-08-11T00:24:17Z</time></trkpt>
<trkpt lat="34.837804026807376" lon="134.14716064598855"><ele>146.44296942092478</ele><time>2026-08-11T00:24:25Z</time></trkpt>
<trkpt lat="34.837669197881404" lon="134.14733373486536"><ele>144.99436383880675</ele><time>2026-08-11T00:24:32Z</time></trkpt>
<trkpt lat="34.837574280939464" lon="134.14751981432937"><ele>140.5767528861761</ele><time>2026-08-11T00:24:39Z</time></trkpt>
<trkpt lat="34.83751863995507" lon="134.14773015929833"><ele>137.61232177447528</ele><time>2026-08-11T00:24:46Z</time></trkpt>
<trkpt lat="34.83744311700166" lon="134.1479594991662"><ele>136.24345616530627</ele><time>2026-08-11T00:24:54Z</time></trkpt>
<trkpt lat="34.837350416117076" lon="134.14815403998114"><ele>133.93192140664905</ele><time>2026-08-11T00:25:01Z</time></trkpt>
<trkpt lat="34.83725191444912" lon="134.14833835848867"><ele>131.62213206663728</ele><time>2026-08-11T00:25:08Z</time></trkpt>
<trkpt lat="34.83711563400141" lon="134.14851928221796"><ele>129.81221774034202</ele><time>2026-08-11T00:25:16Z</time></trkpt>
<trkpt lat="34.836962212650036" lon="134.14865606936453"><ele>126.68842548783869</ele><time>2026-08-11T00:25:24Z</time></trkpt>
<trkpt lat="34.836771106335675" lon="134.14869514560337"><ele>124.53763132914901</ele><time>2026-08-11T00:25:32Z</time></trkpt>
<trkpt lat="34.83657488812543" lon="134.14872579068177"><ele>123.48448086995631</ele><time>2026-08-11T00:25:40Z</time></trkpt>
<trkpt lat="34.836392125017596" lon="134.14880567009203"><ele>124.3616500981152</ele><time>2026-08-11T00:25:48Z</time></trkpt>
<trkpt lat="34.83621774632972" lon="134.14891298083447"><ele>123.48762120492756</ele><time>2026-08-11T00:25:56Z</time></trkpt>
<trkpt lat="34.83607172006544" lon="134.14908357326235"><ele>120.06657685153186</ele><time>2026-08-11T00:26:04Z</time></trkpt>
<trkpt lat="34.835946702886254" lon="134.14924187466542"><ele>118.71619185991585</ele><time>2026-08-11T00:26:11Z</time></trkpt>
<trkpt lat="34.835809065822225" lon="134.14939008324475"><ele>116.46426026336849</ele><time>2026-08-11T00:26:18Z</time></trkpt>
<trkpt lat="34.83564533834871" lon="134.14950087754667"><ele>112.97831549681723</ele><time>2026-08-11T00:26:25Z</time></trkpt>
<trkpt lat="34.8354546764773" lon="134.14954593866852"><ele>111.4148921687156</ele><time>2026-08-11T00:26:33Z</time></trkpt>
<trkpt lat="34.835286370907774" lon="134.1496412278659"><ele>111.5808615675196</ele><time>2026-08-11T00:26:42Z</time></trkpt>
<trkpt lat="34.835161699579075" lon="134.1498237918192"><ele>110.74193602614105</ele><time>2026-08-11T00:26:50Z</time></trkpt>
<trkpt lat="34.835032248064316" lon="134.14998697759984"><ele>107.5372200878337</ele><time>2026-08-11T00:26:58Z</time></trkpt>
<trkpt lat="34.834975177675574" lon="134.1502186983384"><ele>105.0950806895271</ele><time>2026-08-11T00:27:06Z</time></trkpt>
<trkpt lat="34.83505604454706" lon="134.15044433560942"><ele>102.02228058502078</ele><time>2026-08-11T00:27:14Z</time></trkpt>
<trkpt lat="34.83500640985082" lon="134.1506829428043"><ele>99.15038216020912</ele><time>2026-08-11T00:27:22Z</time></trkpt>
<trkpt lat="34.83497222850907" lon="134.15091331139777"><ele>98.35712825972587</ele><time>2026-08-11T00:27:30Z</time></trkpt>
<trkpt lat="34.83484519760472" lon="134.15107857325853"><ele>97.15584936738014</ele><time>2026-08-11T00:27:38Z</time></trkpt>
<trkpt lat="34.83477795123368" lon="134.15130538887183"><ele>95.53645076509565</ele><time>2026-08-11T00:27:46Z</time></trkpt>
<trkpt lat="34.8346449692662" lon="134.1514707470473"><ele>93.24037741031498</ele><time>2026-08-11T00:27:53Z</time></trkpt>
<trkpt lat="34.83451218955134" lon="134.15161892518333"><ele>92.74526858795434</ele><time>2026-08-11T00:27:59Z</time></trkpt>
<trkpt lat="34.83436680165877" lon="134.1517661482735"><ele>91.61919569969177</ele><time>2026-08-11T00:28:05Z</time></trkpt>
<trkpt lat="34.834245175719985" lon="134.15193408845005"><ele>89.58581954799592</ele><time>2026-08-11T00:28:11Z</time></trkpt>
<trkpt lat="34.83413773287168" lon="134.1521140021588"><ele>88.54645785316825</ele><time>2026-08-11T00:28:21Z</time></trkpt>
<trkpt lat="34.83395483516211" lon="134.15213934470705"><ele>89.3460151264444</ele><time>2026-08-11T00:28:32Z</time></trkpt>
<trkpt lat="34.833901492537535" lon="134.152353505862"><ele>92.67425428982824</ele><time>2026-08-11T00:28:39Z</time></trkpt>
<trkpt lat="34.83385862469664" lon="134.15258021071062"><ele>94.19196949526668</ele><time>2026-08-11T00:28:46Z</time></trkpt>
<trkpt lat="34.83379745182083" lon="134.15279293939787"><ele>95.195362938568</ele><time>2026-08-11T00:28:53Z</time></trkpt>
<trkpt lat="34.83372407490385" lon="134.15299481511585"><ele>95.19334164541215</ele><time>2026-08-11T00:29:00Z</time></trkpt>
<trkpt lat="34.83364301601537" lon="134.15320145374025"><ele>94.61065846588463</ele><time>2026-08-11T00:29:08Z</time></trkpt>
<trkpt lat="34.833467744826436" lon="134.1532774303627"><ele>96.35530342720449</ele><time>2026-08-11T00:29:16Z</time></trkpt>
<trkpt lat="34.833289692049604" lon="134.15332613165242"><ele>99.61934142746031</ele><time>2026-08-11T00:29:25Z</time></trkpt>
<trkpt lat="34.833117443043854" lon="134.1534495357586"><ele>101.20806784462184</ele><time>2026-08-11T00:29:34Z</time></trkpt>
<trkpt lat="34.832943621828925" lon="134.15351217060987"><ele>101.07899256236851</ele><time>2026-08-11T00:29:42Z</time></trkpt>
<trkpt lat="34.832768470968446" lon="134.15360970263856"><ele>99.63326102215797</ele><time>2026-08-11T00:29:49Z</time></trkpt>
<trkpt lat="34.83265362752818" lon="134.15341765367873"><ele>98.24119118228555</ele><time>2026-08-11T00:29:58Z</time></trkpt>
<trkpt lat="34.83263279351446" lon="134.15319326067697"><ele>101.84856244921684</ele><time>2026-08-11T00:30:10Z</time></trkpt>
<trkpt lat="34.83245909461875" lon="134.15310714798323"><ele>104.67347318120301</ele><time>2026-08-11T00:30:20Z</time></trkpt>
<trkpt lat="34.83227197878266" lon="134.15319409924462"><ele>103.49935698974878</ele><time>2026-08-11T00:30:31Z</time></trkpt>
<trkpt lat="34.832100963797025" lon="134.15329394109983"><ele>105.12964604143053</ele><time>2026-08-11T00:30:44Z</time></trkpt>
<trkpt lat="34.83191749578129" lon="134.15328463729855"><ele>109.04419917427003</ele><time>2026-08-11T00:30:57Z</time></trkpt>
<trkpt lat="34.83173425110408" lon="134.15329417510745"><ele>109.43204746861011</ele><time>2026-08-11T00:31:20Z</time></trkpt>
<trkpt lat="34.83154540584963" lon="134.15325438921232"><ele>107.95104618743062</ele><time>2026-08-11T00:31:39Z</time></trkpt>
<trkpt lat="34.831420056428975" lon="134.15307611315072"><ele>109.69999314472079</ele><time>2026-08-11T00:31:54Z</time></trkpt>
<trkpt lat="34.83122840637484" lon="134.15310007030763"><ele>113.62627193052322</ele><time>2026-08-11T00:32:09Z</time></trkpt>
<trkpt lat="34.831051456030764" lon="134.15315905281466"><ele>117.38091145269573</ele><time>2026-08-11T00:32:21Z</time></trkpt>
<trkpt lat="34.830876614885675" lon="134.15325887223813"><ele>123.9952205568552</ele><time>2026-08-11T00:32:33Z</time></trkpt>
<trkpt lat="34.83075873508092" lon="134.15342614386552"><ele>126.32045447081327</ele><time>2026-08-11T00:32:44Z</time></trkpt>
<trkpt lat="34.830618931341405" lon="134.15327317431314"><ele>125.91341133601964</ele><time>2026-08-11T00:33:03Z</time></trkpt>
<trkpt lat="34.830468361087384" lon="134.15314532921346"><ele>125.8871776163578</ele><time>2026-08-11T00:33:21Z</time></trkpt>
<trkpt lat="34.830362019754375" lon="134.15295685073866"><ele>127.76759654469788</ele><time>2026-08-11T00:33:36Z</time></trkpt>
<trkpt lat="34.83029682520169" lon="134.15272891319316"><ele>126.48774321936071</ele><time>2026-08-11T00:33:48Z</time></trkpt>
<trkpt lat="34.830150108044826" lon="134.15256097053518"><ele>127.42978921532631</ele><time>2026-08-11T00:33:58Z</time></trkpt>
<trkpt lat="34.8299729852141" lon="134.15247325525976"><ele>130.1324710585177</ele><time>2026-08-11T00:34:09Z</time></trkpt>
<trkpt lat="34.82978837579169" lon="134.15252122093935"><ele>135.52599184028804</ele><time>2026-08-11T00:34:34Z</time></trkpt>
<trkpt lat="34.829611011254855" lon="134.15258295928376"><ele>141.4505425831303</ele><time>2026-08-11T00:34:55Z</time></trkpt>
<trkpt lat="34.82947596833403" lon="134.15241656189826"><ele>140.7862108182162</ele><time>2026-08-11T00:35:26Z</time></trkpt>
<trkpt lat="34.829386242688734" lon="134.15222481171975"><ele>138.95040935557336</ele><time>2026-08-11T00:35:41Z</time></trkpt>
<trkpt lat="34.829409635035674" lon="134.1520051614958"><ele>149.32437661103904</ele><time>2026-08-11T00:36:08Z</time></trkpt>
<trkpt lat="34.8294567863572" lon="134.1517922465491"><ele>152.72447246313095</ele><time>2026-08-11T00:36:34Z</time></trkpt>
<trkpt lat="34.8294989695475" lon="134.15157614999566"><ele>152.34486671164632</ele><time>2026-08-11T00:36:58Z</time></trkpt>
<trkpt lat="34.82932794765083" lon="134.15165476928027"><ele>152.34141759946942</ele><time>2026-08-11T00:37:19Z</time></trkpt>
<trkpt lat="34.829150857006354" lon="134.15169748313804"><ele>153.68158896826208</ele><time>2026-08-11T00:37:38Z</time></trkpt>
<trkpt lat="34.82898023264192" lon="134.1517811474818"><ele>153.82419178728014</ele><time>2026-08-11T00:43:07Z</time></trkpt>
<trkpt lat="34.82879684774444" lon="134.1517936904991"><ele>159.44230536092073</ele><time>2026-08-11T00:43:35Z</time></trkpt>
<trkpt lat="34.82864380069204" lon="134.15191201080313"><ele>163.98187493532896</ele><time>2026-08-11T00:44:00Z</time></trkpt>
<trkpt lat="34.828498727029135" lon="134.1520430191064"><ele>167.0056847576052</ele><time>2026-08-11T00:44:25Z</time></trkpt>
<trkpt lat="34.828367815007944" lon="134.15221200644865"><ele>171.07405061647296</ele><time>2026-08-11T00:44:47Z</time></trkpt>
<trkpt lat="34.8282821663902" lon="134.1524046693707"><ele>172.04868266079575</ele><time>2026-08-11T00:45:05Z</time></trkpt>
<trkpt lat="34.82820252510068" lon="134.15260456626865"><ele>175.52432463690639</ele><time>2026-08-11T00:45:25Z</time></trkpt>
<trkpt lat="34.828118710186565" lon="134.15281237494577"><ele>180.49100392591208</ele><time>2026-08-11T00:45:51Z</time></trkpt>
<trkpt lat="34.82804564628904" lon="134.15302093397017"><ele>188.846255867742</ele><time>2026-08-11T00:46:27Z</time></trkpt>
<trkpt lat="34.82788924242491" lon="134.1531581900391"><ele>200.3928037667647</ele><time>2026-08-11T00:47:02Z</time></trkpt>
<trkpt lat="34.82771592319474" lon="134.15323914883382"><ele>204.71363225392997</ele><time>2026-08-11T00:47:24Z</time></trkpt>
<trkpt lat="34.82753166187439" lon="134.1532368264561"><ele>211.18980230391026</ele><time>2026-08-11T00:47:48Z</time></trkpt>
<trkpt lat="34.82735156111659" lon="134.15326219391528"><ele>217.91666685044765</ele><time>2026-08-11T00:48:09Z</time></trkpt>
<trkpt lat="34.82719605168059" lon="134.15337928258612"><ele>229.182041217573</ele><time>2026-08-11T00:48:42Z</time></trkpt>
<trkpt lat="34.827069534200405" lon="134.15321464030933"><ele>239.41159930452704</ele><time>2026-08-11T00:49:47Z</time></trkpt>
<trkpt lat="34.82689031068607" lon="134.15325897535845"><ele>241.21717462409288</ele><time>2026-08-11T00:50:21Z</time></trkpt>
<trkpt lat="34.826790294892284" lon="134.15344108104756"><ele>252.65847413707525</ele><time>2026-08-11T00:50:51Z</time></trkpt>
<trkpt lat="34.82666378142065" lon="134.1535978965226"><ele>262.6753206634894</ele><time>2026-08-11T00:51:40Z</time></trkpt>
<trkpt lat="34.826539117989924" lon="134.15375892882517"><ele>273.4728558845818</ele><time>2026-08-11T00:52:34Z</time></trkpt>
<trkpt lat="34.826454434139016" lon="134.15397430237996"><ele>279.7194412155077</ele><time>2026-08-11T00:52:59Z</time></trkpt>
<trkpt lat="34.826397892829696" lon="134.15419320911008"><ele>283.5563011756167</ele><time>2026-08-11T00:53:17Z</time></trkpt>
<trkpt lat="34.82633344169676" lon="134.15439990716132"><ele>288.3173270607367</ele><time>2026-08-11T00:53:39Z</time></trkpt>
<trkpt lat="34.82626077286535" lon="134.15460368677034"><ele>294.4190842388198</ele><time>2026-08-11T00:54:01Z</time></trkpt>
<trkpt lat="34.8261923960566" lon="134.15480991427728"><ele>300.0822896985337</ele><time>2026-08-11T00:54:26Z</time></trkpt>
<trkpt lat="34.82603810067819" lon="134.1549343293182"><ele>302.84686426538974</ele><time>2026-08-11T00:54:49Z</time></trkpt>
<trkpt lat="34.82586564750741" lon="134.15500677912863"><ele>309.7940307268873</ele><time>2026-08-11T00:55:27Z</time></trkpt>
<trkpt lat="34.82570384580239" lon="134.1551178277157"><ele>317.6225371481851</ele><time>2026-08-11T00:55:59Z</time></trkpt>
<trkpt lat="34.82553173643164" lon="134.15519367542433"><ele>327.58851573523134</ele><time>2026-08-11T00:56:30Z</time></trkpt>
<trkpt lat="34.825399338773515" lon="134.1553523030068"><ele>333.6469895718619</ele><time>2026-08-11T00:56:54Z</time></trkpt>
<trkpt lat="34.825228597463386" lon="134.15542778018363"><ele>337.67667987011373</ele><time>2026-08-11T00:57:19Z</time></trkpt>
<trkpt lat="34.825048567972" lon="134.15547253723966"><ele>343.3030432704836</ele><time>2026-08-11T00:57:48Z</time></trkpt>
<trkpt lat="34.825014050347775" lon="134.15568932595673"><ele>337.58383882418275</ele><time>2026-08-11T00:58:26Z</time></trkpt>
<trkpt lat="34.82490211291374" lon="134.1558917803145"><ele>331.2223306559026</ele><time>2026-08-11T00:58:42Z</time></trkpt>
<trkpt lat="34.824810550071184" lon="134.15609809325375"><ele>329.45756775327027</ele><time>2026-08-11T00:58:53Z</time></trkpt>
<trkpt lat="34.82474251040204" lon="134.15630198741707"><ele>328.25935189891607</ele><time>2026-08-11T00:59:03Z</time></trkpt>
<trkpt lat="34.82479201577505" lon="134.15653200081582"><ele>329.04367341753095</ele><time>2026-08-11T00:59:12Z</time></trkpt>
<trkpt lat="34.82477723310544" lon="134.1567526423646"><ele>326.6371919810772</ele><time>2026-08-11T00:59:24Z</time></trkpt>
<trkpt lat="34.82467101830768" lon="134.15696277582285"><ele>322.77214384637773</ele><time>2026-08-11T00:59:36Z</time></trkpt>
<trkpt lat="34.82456513094059" lon="134.15715602647018"><ele>321.66495584324</ele><time>2026-08-11T00:59:44Z</time></trkpt>
<trkpt lat="34.824514411313714" lon="134.15736983321395"><ele>327.0008566370234</ele><time>2026-08-11T00:59:56Z</time></trkpt>
<trkpt lat="34.824494802479634" lon="134.1575897655867"><ele>337.61780938412994</ele><time>2026-08-11T01:00:29Z</time></trkpt>
<trkpt lat="34.824360375223804" lon="134.15774440906492"><ele>344.5753979738802</ele><time>2026-08-11T01:00:56Z</time></trkpt>
<trkpt lat="34.824212423631394" lon="134.1578953457465"><ele>342.4353665532544</ele><time>2026-08-11T01:01:09Z</time></trkpt>
<trkpt lat="34.82404949768326" lon="134.15798979004117"><ele>344.7869747998193</ele><time>2026-08-11T01:01:20Z</time></trkpt>
<trkpt lat="34.82392932543455" lon="134.15815370518044"><ele>350.8328311396763</ele><time>2026-08-11T01:01:43Z</time></trkpt>
<trkpt lat="34.82388193739541" lon="134.15836848670838"><ele>352.6987045323476</ele><time>2026-08-11T01:01:58Z</time></trkpt>
<trkpt lat="34.82393475308007" lon="134.158594916939"><ele>348.7997670555487</ele><time>2026-08-11T01:02:14Z</time></trkpt>
<trkpt lat="34.824037541323705" lon="134.15878881319236"><ele>347.7973980065435</ele><time>2026-08-11T01:02:25Z</time></trkpt>
<trkpt lat="34.824076290893565" lon="134.1590238808536"><ele>344.9544384954497</ele><time>2026-08-11T01:02:34Z</time></trkpt>
<trkpt lat="34.82419956315093" lon="134.15921744124572"><ele>343.3359859790653</ele><time>2026-08-11T01:02:44Z</time></trkpt>
<trkpt lat="34.824233368155326" lon="134.1594349843795"><ele>348.1549547575414</ele><time>2026-08-11T01:02:58Z</time></trkpt>
<trkpt lat="34.82438305465801" lon="134.1595612172084"><ele>352.9875449007377</ele><time>2026-08-11T01:03:16Z</time></trkpt>
<trkpt lat="34.82447254800839" lon="134.1597532588424"><ele>355.31453630607575</ele><time>2026-08-11T01:03:45Z</time></trkpt>
<trkpt lat="34.824535190186076" lon="134.15996335961597"><ele>357.0153687885031</ele><time>2026-08-11T01:04:02Z</time></trkpt>
<trkpt lat="34.82442700773645" lon="134.1601481083161"><ele>358.1236376715824</ele><time>2026-08-11T01:04:14Z</time></trkpt>
<trkpt lat="34.82435844281022" lon="134.1603526853254"><ele>360.3778261579573</ele><time>2026-08-11T01:04:27Z</time></trkpt>
<trkpt lat="34.82418849411615" lon="134.1604524576538"><ele>363.85664310865104</ele><time>2026-08-11T01:04:39Z</time></trkpt>
<trkpt lat="34.82410388688025" lon="134.16064712740828"><ele>370.44101797789335</ele><time>2026-08-11T01:05:16Z</time></trkpt>
<trkpt lat="34.82415169729594" lon="134.16086255242416"><ele>373.75029265880585</ele><time>2026-08-11T01:05:41Z</time></trkpt>
<trkpt lat="34.823974816257056" lon="134.1608061141443"><ele>371.5140215167776</ele><time>2026-08-11T01:06:53Z</time></trkpt>
<trkpt lat="34.82380321099004" lon="134.16071120849"><ele>368.2683243146166</ele><time>2026-08-11T01:07:13Z</time></trkpt>
<trkpt lat="34.82365297653538" lon="134.16084320106603"><ele>359.1996648097411</ele><time>2026-08-11T01:07:40Z</time></trkpt>
<trkpt lat="34.82349418852807" lon="134.16094779055095"><ele>351.848165653646</ele><time>2026-08-11T01:08:02Z</time></trkpt>
<trkpt lat="34.823321131755506" lon="134.16084902154535"><ele>347.66649744845927</ele><time>2026-08-11T01:08:19Z</time></trkpt>
<trkpt lat="34.82313480245117" lon="134.1609311711048"><ele>341.47856867313385</ele><time>2026-08-11T01:08:44Z</time></trkpt>
<trkpt lat="34.822987914261006" lon="134.16106781372753"><ele>338.48001000471413</ele><time>2026-08-11T01:08:56Z</time></trkpt>
<trkpt lat="34.82291353218489" lon="134.16129141052224"><ele>333.48333532363176</ele><time>2026-08-11T01:09:04Z</time></trkpt>
<trkpt lat="34.8228043730781" lon="134.1614788831943"><ele>331.4970641778782</ele><time>2026-08-11T01:09:12Z</time></trkpt>
<trkpt lat="34.82266876276247" lon="134.16162298972563"><ele>329.39428166486323</ele><time>2026-08-11T01:09:24Z</time></trkpt>
<trkpt lat="34.82248989241778" lon="134.16167928287896"><ele>329.10705455671996</ele><time>2026-08-11T01:09:48Z</time></trkpt>
<trkpt lat="34.82230893485163" lon="134.161641381303"><ele>326.2328994097188</ele><time>2026-08-11T01:10:06Z</time></trkpt>
<trkpt lat="34.82211317654948" lon="134.16159647680632"><ele>323.0262073520571</ele><time>2026-08-11T01:10:37Z</time></trkpt>
<trkpt lat="34.82191687561427" lon="134.1615902222553"><ele>322.099152430892</ele><time>2026-08-11T01:10:51Z</time></trkpt>
<trkpt lat="34.82177642395409" lon="134.16141235402924"><ele>316.21291793882847</ele><time>2026-08-11T01:11:07Z</time></trkpt>
<trkpt lat="34.8217937298863" lon="134.16119143074957"><ele>314.5635110856965</ele><time>2026-08-11T01:11:15Z</time></trkpt>
<trkpt lat="34.821791547285926" lon="134.16096319977947"><ele>315.1144876591861</ele><time>2026-08-11T01:11:28Z</time></trkpt>
<trkpt lat="34.82189152895107" lon="134.16075997080245"><ele>315.5783295445144</ele><time>2026-08-11T01:11:55Z</time></trkpt>
<trkpt lat="34.821892207991226" lon="134.1605319993349"><ele>317.2565625170246</ele><time>2026-08-11T01:12:07Z</time></trkpt>
<trkpt lat="34.821714042859206" lon="134.16042287992948"><ele>314.8478761026636</ele><time>2026-08-11T01:12:18Z</time></trkpt>
<trkpt lat="34.821528915161984" lon="134.1603889609349"><ele>312.55392862297595</ele><time>2026-08-11T01:12:26Z</time></trkpt>
<trkpt lat="34.82133154639813" lon="134.16036480684946"><ele>308.27026386372745</ele><time>2026-08-11T01:12:34Z</time></trkpt>
<trkpt lat="34.821168075805744" lon="134.16024634725446"><ele>307.64881898090243</ele><time>2026-08-11T01:12:46Z</time></trkpt>
<trkpt lat="34.82097802010237" lon="134.16020693252378"><ele>303.05605055578053</ele><time>2026-08-11T01:12:55Z</time></trkpt>
<trkpt lat="34.82079162752437" lon="134.16018062434298"><ele>295.3146503036842</ele><time>2026-08-11T01:13:03Z</time></trkpt>
<trkpt lat="34.82061435237008" lon="134.16013523170062"><ele>293.6049513844773</ele><time>2026-08-11T01:13:10Z</time></trkpt>
<trkpt lat="34.8204129232162" lon="134.16012338921576"><ele>291.16472880076617</ele><time>2026-08-11T01:13:19Z</time></trkpt>
<trkpt lat="34.820211625212124" lon="134.16008641825937"><ele>288.4085767827928</ele><time>2026-08-11T01:13:28Z</time></trkpt>
<trkpt lat="34.82001660773298" lon="134.16005942273256"><ele>284.97300050687045</ele><time>2026-08-11T01:13:36Z</time></trkpt>
<trkpt lat="34.8198386211909" lon="134.1599572116733"><ele>282.5532908840105</ele><time>2026-08-11T01:13:44Z</time></trkpt>
<trkpt lat="34.81965014891229" lon="134.1599529050635"><ele>275.99985492415726</ele><time>2026-08-11T01:13:54Z</time></trkpt>
<trkpt lat="34.819538939282914" lon="134.16014762923982"><ele>270.8963253740221</ele><time>2026-08-11T01:14:05Z</time></trkpt>
<trkpt lat="34.81936976854864" lon="134.16006955528522"><ele>256.60371647030115</ele><time>2026-08-11T01:14:35Z</time></trkpt>
<trkpt lat="34.81926680692703" lon="134.15987005996254"><ele>251.2277306392789</ele><time>2026-08-11T01:14:47Z</time></trkpt>
<trkpt lat="34.819085105665614" lon="134.15981594106245"><ele>245.1913493378088</ele><time>2026-08-11T01:15:05Z</time></trkpt>
<trkpt lat="34.81891106065336" lon="134.15974529042282"><ele>238.83032706938684</ele><time>2026-08-11T01:15:30Z</time></trkpt>
<trkpt lat="34.81872621103686" lon="134.15974181069106"><ele>234.21847225818783</ele><time>2026-08-11T01:15:52Z</time></trkpt>
<trkpt lat="34.8185495544212" lon="134.15969670399758"><ele>227.4518088363111</ele><time>2026-08-11T01:16:13Z</time></trkpt>
<trkpt lat="34.818365844346545" lon="134.1596945190255"><ele>223.99304055329412</ele><time>2026-08-11T01:16:28Z</time></trkpt>
<trkpt lat="34.818186480513006" lon="134.1596557351463"><ele>218.07286808919162</ele><time>2026-08-11T01:16:45Z</time></trkpt>
<trkpt lat="34.81799861145674" lon="134.159692389056"><ele>216.01690982840955</ele><time>2026-08-11T01:17:01Z</time></trkpt>
<trkpt lat="34.817825338662765" lon="134.15975316759778"><ele>211.37801138218492</ele><time>2026-08-11T01:17:17Z</time></trkpt>
<trkpt lat="34.817640829919384" lon="134.15978031746698"><ele>203.56821801047772</ele><time>2026-08-11T01:17:42Z</time></trkpt>
<trkpt lat="34.817476669716" lon="134.1596867539367"><ele>192.80815290473402</ele><time>2026-08-11T01:18:16Z</time></trkpt>
<trkpt lat="34.81729824047731" lon="134.15964320875293"><ele>185.13849863782525</ele><time>2026-08-11T01:18:49Z</time></trkpt>
<trkpt lat="34.81722816320172" lon="134.1598498595436"><ele>180.6504326267168</ele><time>2026-08-11T01:19:12Z</time></trkpt>
<trkpt lat="34.81714345273899" lon="134.16005965302804"><ele>173.55498756933957</ele><time>2026-08-11T01:19:37Z</time></trkpt>
<trkpt lat="34.817009906484394" lon="134.16021155938535"><ele>165.59077413193882</ele><time>2026-08-11T01:20:05Z</time></trkpt>
<trkpt lat="34.81685913164204" lon="134.1603333762478"><ele>158.35070828534663</ele><time>2026-08-11T01:20:28Z</time></trkpt>
<trkpt lat="34.81680651550586" lon="134.16054326651505"><ele>147.74685609992594</ele><time>2026-08-11T01:20:53Z</time></trkpt>
<trkpt lat="34.81673373507694" lon="134.16075087418076"><ele>137.114045009017</ele><time>2026-08-11T01:21:27Z</time></trkpt>
<trkpt lat="34.81667685810309" lon="134.160958347247"><ele>128.9684226186946</ele><time>2026-08-11T01:21:53Z</time></trkpt>
<trkpt lat="34.81669062256992" lon="134.16118251435367"><ele>120.49224355164915</ele><time>2026-08-11T01:22:14Z</time></trkpt>
<trkpt lat="34.81664916852286" lon="134.1613990932894"><ele>111.84367264155298</ele><time>2026-08-11T01:22:44Z</time></trkpt>
<trkpt lat="34.81668834131988" lon="134.1616300853364"><ele>104.01413358189166</ele><time>2026-08-11T01:22:57Z</time></trkpt>
<trkpt lat="34.81674390929754" lon="134.16184806888677"><ele>98.68774429708719</ele><time>2026-08-11T01:23:07Z</time></trkpt>
<trkpt lat="34.81667500195242" lon="134.162067432433"><ele>90.39869996719062</ele><time>2026-08-11T01:23:22Z</time></trkpt>
<trkpt lat="34.81651125077273" lon="134.1622071383254"><ele>88.76345082838088</ele><time>2026-08-11T01:23:32Z</time></trkpt>
<trkpt lat="34.81636395938941" lon="134.1623370019788"><ele>83.4979861387983</ele><time>2026-08-11T01:23:43Z</time></trkpt>
<trkpt lat="34.816210074429605" lon="134.1624552441425"><ele>84.36081627942622</ele><time>2026-08-11T01:23:52Z</time></trkpt>
<trkpt lat="34.81628948776582" lon="134.1626672087946"><ele>79.84788807947189</ele><time>2026-08-11T01:24:02Z</time></trkpt>
<trkpt lat="34.816409186879355" lon="134.16283311881648"><ele>76.27909873891622</ele><time>2026-08-11T01:24:11Z</time></trkpt>
<trkpt lat="34.816405145625204" lon="134.1630603042511"><ele>76.87172927614301</ele><time>2026-08-11T01:24:22Z</time></trkpt>
<trkpt lat="34.8162588019502" lon="134.16319908770018"><ele>70.69051474705338</ele><time>2026-08-11T01:24:33Z</time></trkpt>
<trkpt lat="34.81609036933431" lon="134.1633038872747"><ele>69.73020920809358</ele><time>2026-08-11T01:24:41Z</time></trkpt>
<trkpt lat="34.81590581145825" lon="134.16339681900254"><ele>67.60015326552093</ele><time>2026-08-11T01:24:50Z</time></trkpt>
<trkpt lat="34.81574270057776" lon="134.16350560522397"><ele>65.73413225915283</ele><time>2026-08-11T01:24:58Z</time></trkpt>
<trkpt lat="34.81555858177014" lon="134.1635211741447"><ele>62.81218383461237</ele><time>2026-08-11T01:25:07Z</time></trkpt>
<trkpt lat="34.815388236960736" lon="134.16365132780305"><ele>62.21909566503018</ele><time>2026-08-11T01:25:16Z</time></trkpt>
<trkpt lat="34.815256742568955" lon="134.1638148640477"><ele>62.4851703485474</ele><time>2026-08-11T01:25:24Z</time></trkpt>
<trkpt lat="34.81508636201886" lon="134.16391261619913"><ele>62.17294308077544</ele><time>2026-08-11T01:25:32Z</time></trkpt>
<trkpt lat="34.81493234438406" lon="134.16403738374598"><ele>60.1695357458666</ele><time>2026-08-11T01:25:40Z</time></trkpt>
<trkpt lat="34.81475905063225" lon="134.16412456301697"><ele>58.60898455604911</ele><time>2026-08-11T01:25:49Z</time></trkpt>
<trkpt lat="34.814591318211455" lon="134.16422793402884"><ele>57.4146185843274</ele><time>2026-08-11T01:25:59Z</time></trkpt>
<trkpt lat="34.814456703103275" lon="134.16440165725166"><ele>58.04088624753058</ele><time>2026-08-11T01:26:07Z</time></trkpt>
<trkpt lat="34.81435427405516" lon="134.16458540216942"><ele>57.15599762741476</ele><time>2026-08-11T01:26:15Z</time></trkpt>
<trkpt lat="34.814208611796275" lon="134.164734707692"><ele>55.56880078930408</ele><time>2026-08-11T01:26:24Z</time></trkpt>
<trkpt lat="34.81401945746568" lon="134.1648104618001"><ele>53.123913407325745</ele><time>2026-08-11T01:26:33Z</time></trkpt>
<trkpt lat="34.813829125989955" lon="134.16488037898247"><ele>51.3527775676921</ele><time>2026-08-11T01:26:41Z</time></trkpt>
<trkpt lat="34.81365269090886" lon="134.1649416150616"><ele>49.28705775272101</ele><time>2026-08-11T01:26:49Z</time></trkpt>
<trkpt lat="34.81346636517166" lon="134.16497600073671"><ele>47.868839003145695</ele><time>2026-08-11T01:27:31Z</time></trkpt>
<trkpt lat="34.81327745980196" lon="134.16501330567564"><ele>46.01749920193106</ele><time>2026-08-11T01:27:41Z</time></trkpt>
<trkpt lat="34.8130916025378" lon="134.1650398753724"><ele>44.825050617568195</ele><time>2026-08-11T01:27:50Z</time></trkpt>
<trkpt lat="34.81292196818482" lon="134.16512243857383"><ele>44.86685712914914</ele><time>2026-08-11T01:27:59Z</time></trkpt>
<trkpt lat="34.81275248316795" lon="134.16520404622455"><ele>43.48926340136677</ele><time>2026-08-11T01:28:07Z</time></trkpt>
<trkpt lat="34.81257260583317" lon="134.16526958222138"><ele>41.4771704794839</ele><time>2026-08-11T01:28:15Z</time></trkpt>
<trkpt lat="34.81238793507114" lon="134.165289746752"><ele>41.77378945983946</ele><time>2026-08-11T01:28:25Z</time></trkpt>
<trkpt lat="34.812193494363164" lon="134.16529424711635"><ele>39.78145714662969</ele><time>2026-08-11T01:29:30Z</time></trkpt>
<trkpt lat="34.811992927214476" lon="134.16532054769257"><ele>38.86472643818706</ele><time>2026-08-11T01:29:40Z</time></trkpt>
<trkpt lat="34.811815600905575" lon="134.16522243208556"><ele>37.65134345181286</ele><time>2026-08-11T01:29:50Z</time></trkpt>
<trkpt lat="34.811764308796754" lon="134.16499148504218"><ele>36.296578424051404</ele><time>2026-08-11T01:30:00Z</time></trkpt>
<trkpt lat="34.811931543038334" lon="134.16490946869095"><ele>38.207250950858</ele><time>2026-08-11T01:30:12Z</time></trkpt>
<trkpt lat="34.81174745640902" lon="134.16483944682327"><ele>35.48435941897333</ele><time>2026-08-11T01:30:38Z</time></trkpt>
<trkpt lat="34.81171942915534" lon="134.16461245378787"><ele>35.841659472323954</ele><time>2026-08-11T01:30:48Z</time></trkpt>
<trkpt lat="34.81167331594296" lon="134.16439180570563"><ele>38.23535046353936</ele><time>2026-08-11T01:30:57Z</time></trkpt>
<trkpt lat="34.811547017699844" lon="134.1642080968962"><ele>38.663257834501565</ele><time>2026-08-11T01:31:06Z</time></trkpt>
<trkpt lat="34.81135960339752" lon="134.16414851608366"><ele>36.6762766065076</ele><time>2026-08-11T01:31:15Z</time></trkpt>
<trkpt lat="34.811162583890926" lon="134.1641863918889"><ele>36.850037418305874</ele><time>2026-08-11T01:31:24Z</time></trkpt>
<trkpt lat="34.81097877311678" lon="134.16424773746442"><ele>35.5646240087226</ele><time>2026-08-11T01:31:33Z</time></trkpt>
<trkpt lat="34.810805834015625" lon="134.16411806302327"><ele>34.36573210172355</ele><time>2026-08-11T01:31:43Z</time></trkpt>
<trkpt lat="34.81061772334281" lon="134.16408307433548"><ele>31.95997820328921</ele><time>2026-08-11T01:31:52Z</time></trkpt>
<trkpt lat="34.81044967700833" lon="134.16399767004364"><ele>31.269201564602554</ele><time>2026-08-11T01:32:01Z</time></trkpt>
<trkpt lat="34.81027505959076" lon="134.1639068821191"><ele>31.368060366250575</ele><time>2026-08-11T01:32:10Z</time></trkpt>
<trkpt lat="34.810100546944895" lon="134.16382573960811"><ele>32.39843599218875</ele><time>2026-08-11T01:32:19Z</time></trkpt>
<trkpt lat="34.80992933222062" lon="134.1637376934266"><ele>31.89760420564562</ele><time>2026-08-11T01:32:37Z</time></trkpt>
<trkpt lat="34.8099675341169" lon="134.16351386881402"><ele>31.88773269020021</ele><time>2026-08-11T01:33:14Z</time></trkpt>
<trkpt lat="34.81000912880203" lon="134.16329126874905"><ele>30.464097317308187</ele><time>2026-08-11T01:33:30Z</time></trkpt>
<trkpt lat="34.80987040776843" lon="134.16312670107695"><ele>31.455656017176807</ele><time>2026-08-11T01:33:46Z</time></trkpt>
<trkpt lat="34.809893493562555" lon="134.16287818839862"><ele>30.71305424813181</ele><time>2026-08-11T01:34:00Z</time></trkpt>
<trkpt lat="34.80988721212715" lon="134.16263954159152"><ele>31.956688793376088</ele><time>2026-08-11T01:34:08Z</time></trkpt>
<trkpt lat="34.80988349709182" lon="134.1624169857783"><ele>33.35817645955831</ele><time>2026-08-11T01:34:17Z</time></trkpt>
<trkpt lat="34.80990783621415" lon="134.16218122495994"><ele>34.716611536219716</ele><time>2026-08-11T01:34:28Z</time></trkpt>
<trkpt lat="34.80996110975003" lon="134.1619669739892"><ele>33.79587522428483</ele><time>2026-08-11T01:34:38Z</time></trkpt>
<trkpt lat="34.80999830934954" lon="134.16174125292295"><ele>33.36990854609758</ele><time>2026-08-11T01:34:49Z</time></trkpt>
<trkpt lat="34.80981952329614" lon="134.16177224583438"><ele>31.972199325449765</ele><time>2026-08-11T01:35:42Z</time></trkpt>
<trkpt lat="34.80963021577163" lon="134.16177258296102"><ele>31.86060582101345</ele><time>2026-08-11T01:35:57Z</time></trkpt>
<trkpt lat="34.80958058329015" lon="134.16155202558707"><ele>33.298870818689466</ele><time>2026-08-11T01:36:11Z</time></trkpt>
<trkpt lat="34.8095311024838" lon="134.1613385214613"><ele>33.91921145655215</ele><time>2026-08-11T01:36:25Z</time></trkpt>
<trkpt lat="34.809466298013994" lon="134.16111432449864"><ele>32.75190468225628</ele><time>2026-08-11T01:36:43Z</time></trkpt>
<trkpt lat="34.80942294471709" lon="134.1608963374444"><ele>31.30398524273187</ele><time>2026-08-11T01:36:53Z</time></trkpt>
<trkpt lat="34.809389608044164" lon="134.16066305750607"><ele>33.91426025144756</ele><time>2026-08-11T01:37:03Z</time></trkpt>
<trkpt lat="34.80931473485896" lon="134.16045440655367"><ele>34.02514562662691</ele><time>2026-08-11T01:37:14Z</time></trkpt>
<trkpt lat="34.80914640828966" lon="134.1603688521479"><ele>39.793514342047274</ele><time>2026-08-11T01:37:30Z</time></trkpt>
<trkpt lat="34.808979824477575" lon="134.16026507654487"><ele>42.75882977154106</ele><time>2026-08-11T01:37:41Z</time></trkpt>
<trkpt lat="34.808820072757705" lon="134.16014382727357"><ele>43.5202696043998</ele><time>2026-08-11T01:37:51Z</time></trkpt>
<trkpt lat="34.8086379607321" lon="134.16013792539346"><ele>46.201953508891165</ele><time>2026-08-11T01:38:08Z</time></trkpt>
<trkpt lat="34.808475344606144" lon="134.16001059415606"><ele>48.883962316438556</ele><time>2026-08-11T01:38:28Z</time></trkpt>
<trkpt lat="34.808480256726135" lon="134.15978093873792"><ele>53.82403066474944</ele><time>2026-08-11T01:39:58Z</time></trkpt>
<trkpt lat="34.80860901155749" lon="134.1596208807234"><ele>58.07283543329686</ele><time>2026-08-11T01:40:21Z</time></trkpt>
<trkpt lat="34.80876142649768" lon="134.15949915989532"><ele>63.88134736288339</ele><time>2026-08-11T01:40:46Z</time></trkpt>
<trkpt lat="34.80887501467223" lon="134.1593249559802"><ele>68.29651867691427</ele><time>2026-08-11T01:41:14Z</time></trkpt>
<trkpt lat="34.80904038444367" lon="134.1592311740214"><ele>76.67647788207978</ele><time>2026-08-11T01:41:53Z</time></trkpt>
<trkpt lat="34.80920217378664" lon="134.15913139814978"><ele>86.89675421733409</ele><time>2026-08-11T01:42:36Z</time></trkpt>
<trkpt lat="34.809380835765076" lon="134.15908657451286"><ele>93.44138412643224</ele><time>2026-08-11T01:43:10Z</time></trkpt>
<trkpt lat="34.809512332472764" lon="134.1589266628539"><ele>100.76996382046491</ele><time>2026-08-11T01:43:37Z</time></trkpt>
<trkpt lat="34.809620354011585" lon="134.15874331374204"><ele>105.67871740926057</ele><time>2026-08-11T01:43:59Z</time></trkpt>
<trkpt lat="34.80973870659451" lon="134.1585739125134"><ele>109.0678026014939</ele><time>2026-08-11T01:44:14Z</time></trkpt>
<trkpt lat="34.809852248753934" lon="134.15839127526522"><ele>113.68244041781873</ele><time>2026-08-11T01:44:27Z</time></trkpt>
<trkpt lat="34.80998590464755" lon="134.15822714189875"><ele>119.38447626493871</ele><time>2026-08-11T01:45:49Z</time></trkpt>
<trkpt lat="34.81013183252272" lon="134.15808572688667"><ele>127.38536031451076</ele><time>2026-08-11T01:46:23Z</time></trkpt>
<trkpt lat="34.810270867550074" lon="134.15792986262548"><ele>136.76583367679268</ele><time>2026-08-11T01:47:02Z</time></trkpt>
<trkpt lat="34.810405658000306" lon="134.15778041119387"><ele>145.57760532945395</ele><time>2026-08-11T01:47:38Z</time></trkpt>
<trkpt lat="34.81053589098113" lon="134.15762116069857"><ele>152.3315277872607</ele><time>2026-08-11T01:48:10Z</time></trkpt>
<trkpt lat="34.81068244025487" lon="134.1574855015434"><ele>155.61195378471166</ele><time>2026-08-11T01:48:33Z</time></trkpt>
<trkpt lat="34.81082468561254" lon="134.15734498667098"><ele>163.05545664671808</ele><time>2026-08-11T01:49:01Z</time></trkpt>
<trkpt lat="34.81094600865518" lon="134.15717776776677"><ele>166.7580033633858</ele><time>2026-08-11T01:49:28Z</time></trkpt>
<trkpt lat="34.81103664758806" lon="134.15698572006661"><ele>170.55357494112104</ele><time>2026-08-11T01:49:49Z</time></trkpt>
<trkpt lat="34.81113897206835" lon="134.1568012871035"><ele>177.8658361574635</ele><time>2026-08-11T01:50:15Z</time></trkpt>
<trkpt lat="34.81127144228707" lon="134.15664004351922"><ele>190.2960143694654</ele><time>2026-08-11T01:50:58Z</time></trkpt>
<trkpt lat="34.811237398887386" lon="134.15642342809127"><ele>197.0007942840457</ele><time>2026-08-11T01:51:41Z</time></trkpt>
<trkpt lat="34.81137853818095" lon="134.156284848073"><ele>210.9891614485532</ele><time>2026-08-11T01:52:42Z</time></trkpt>
<trkpt lat="34.81143176043617" lon="134.15606587248416"><ele>218.18550762627274</ele><time>2026-08-11T01:53:25Z</time></trkpt>
<trkpt lat="34.81157350126469" lon="134.15593074941134"><ele>228.076138606295</ele><time>2026-08-11T01:53:48Z</time></trkpt>
<trkpt lat="34.81164804776297" lon="134.1557261742533"><ele>223.6586196301505</ele><time>2026-08-11T01:54:16Z</time></trkpt>
<trkpt lat="34.811794769665546" lon="134.15558391608948"><ele>217.54549160879105</ele><time>2026-08-11T01:54:28Z</time></trkpt>
<trkpt lat="34.81194426004834" lon="134.1554473054892"><ele>216.09751214180142</ele><time>2026-08-11T01:54:36Z</time></trkpt>
<trkpt lat="34.81205332818428" lon="134.15526314733935"><ele>213.40209161303937</ele><time>2026-08-11T01:54:46Z</time></trkpt>
<trkpt lat="34.81220550361485" lon="134.1551347113322"><ele>203.2794294198975</ele><time>2026-08-11T01:55:45Z</time></trkpt>
<trkpt lat="34.81235119292197" lon="134.15500218441457"><ele>194.24468592274934</ele><time>2026-08-11T01:56:02Z</time></trkpt>
<trkpt lat="34.81251929585781" lon="134.15486498717786"><ele>190.40321436710656</ele><time>2026-08-11T01:56:11Z</time></trkpt>
<trkpt lat="34.81268747765664" lon="134.1547669453578"><ele>188.22739987354726</ele><time>2026-08-11T01:56:23Z</time></trkpt>
<trkpt lat="34.81286285790344" lon="134.15466758071474"><ele>188.55526274535805</ele><time>2026-08-11T01:56:32Z</time></trkpt>
<trkpt lat="34.813048960733674" lon="134.15459408252866"><ele>190.66092735435814</ele><time>2026-08-11T01:56:45Z</time></trkpt>
<trkpt lat="34.813192790379155" lon="134.15444362622443"><ele>188.42726710718125</ele><time>2026-08-11T01:56:56Z</time></trkpt>
<trkpt lat="34.81329841444191" lon="134.15426452851267"><ele>182.33064171671867</ele><time>2026-08-11T01:57:06Z</time></trkpt>
<trkpt lat="34.813387788752465" lon="134.15405709865874"><ele>184.1133836619556</ele><time>2026-08-11T01:57:15Z</time></trkpt>
<trkpt lat="34.81345258009929" lon="134.1538521266045"><ele>190.20352523121983</ele><time>2026-08-11T01:57:35Z</time></trkpt>
<trkpt lat="34.81356699829605" lon="134.15368315872138"><ele>200.41607433371246</ele><time>2026-08-11T01:58:22Z</time></trkpt>
<trkpt lat="34.81364649812398" lon="134.15348561646954"><ele>206.44091071933508</ele><time>2026-08-11T01:59:01Z</time></trkpt>
<trkpt lat="34.81373346937065" lon="134.1532907198836"><ele>214.3437461843714</ele><time>2026-08-11T01:59:37Z</time></trkpt>
<trkpt lat="34.813769340351016" lon="134.1530730475921"><ele>214.26927687320858</ele><time>2026-08-11T02:00:33Z</time></trkpt>
<trkpt lat="34.8136615314063" lon="134.1528869482276"><ele>211.24910273589194</ele><time>2026-08-11T02:00:48Z</time></trkpt>
<trkpt lat="34.81351201327742" lon="134.1526939389634"><ele>204.2885116878897</ele><time>2026-08-11T02:01:07Z</time></trkpt>
<trkpt lat="34.81337392892009" lon="134.15254177307088"><ele>202.19279542192817</ele><time>2026-08-11T02:01:28Z</time></trkpt>
<trkpt lat="34.813220251958064" lon="134.15241713283933"><ele>201.80051324982196</ele><time>2026-08-11T02:01:41Z</time></trkpt>
<trkpt lat="34.81306851363556" lon="134.15228093204104"><ele>206.1302721053362</ele><time>2026-08-11T02:01:52Z</time></trkpt>
<trkpt lat="34.81291990043745" lon="134.15214787967628"><ele>214.30716737825423</ele><time>2026-08-11T02:02:09Z</time></trkpt>
<trkpt lat="34.81275343171751" lon="134.15205774327526"><ele>207.8727375958115</ele><time>2026-08-11T02:07:14Z</time></trkpt>
<trkpt lat="34.81259865811043" lon="134.1519399588555"><ele>207.07627589069307</ele><time>2026-08-11T02:07:33Z</time></trkpt>
<trkpt lat="34.81246772449625" lon="134.1517682737846"><ele>205.956735718064</ele><time>2026-08-11T02:07:48Z</time></trkpt>
<trkpt lat="34.812441404154136" lon="134.15154440291053"><ele>197.818227767013</ele><time>2026-08-11T02:08:09Z</time></trkpt>
<trkpt lat="34.812412035754214" lon="134.1513272592884"><ele>190.54512024577707</ele><time>2026-08-11T02:08:33Z</time></trkpt>
<trkpt lat="34.81237876448123" lon="134.15110908074857"><ele>182.31007542088628</ele><time>2026-08-11T02:08:55Z</time></trkpt>
<trkpt lat="34.81238095960552" lon="134.15089027300877"><ele>176.6990562211722</ele><time>2026-08-11T02:09:11Z</time></trkpt>
<trkpt lat="34.81243681249236" lon="134.15066100681756"><ele>170.48202696722</ele><time>2026-08-11T02:09:29Z</time></trkpt>
<trkpt lat="34.81248892493673" lon="134.15043485910684"><ele>165.91381992213428</ele><time>2026-08-11T02:09:42Z</time></trkpt>
<trkpt lat="34.812575367337836" lon="134.15023264832092"><ele>161.88426113314927</ele><time>2026-08-11T02:09:53Z</time></trkpt>
<trkpt lat="34.812676843598254" lon="134.15004462823748"><ele>162.61559799220413</ele><time>2026-08-11T02:10:01Z</time></trkpt>
<trkpt lat="34.812761008552876" lon="134.149832450828"><ele>165.73730567842722</ele><time>2026-08-11T02:10:13Z</time></trkpt>
<trkpt lat="34.812840654851335" lon="134.14962923472658"><ele>171.75953048840165</ele><time>2026-08-11T02:10:35Z</time></trkpt>
<trkpt lat="34.81280061619174" lon="134.14941312602178"><ele>167.87104982230812</ele><time>2026-08-11T02:11:01Z</time></trkpt>
<trkpt lat="34.812715182353486" lon="134.14921172678248"><ele>162.4972619842738</ele><time>2026-08-11T02:11:21Z</time></trkpt>
<trkpt lat="34.81262493243762" lon="134.14901052315702"><ele>156.9391957493499</ele><time>2026-08-11T02:11:34Z</time></trkpt>
<trkpt lat="34.81251719596922" lon="134.14880674135452"><ele>155.29915863461792</ele><time>2026-08-11T02:11:42Z</time></trkpt>
<trkpt lat="34.8124100088704" lon="134.1486159359558"><ele>157.86381267011166</ele><time>2026-08-11T02:11:49Z</time></trkpt>
<trkpt lat="34.81233402849168" lon="134.14840392548393"><ele>162.24868694506586</ele><time>2026-08-11T02:12:03Z</time></trkpt>
<trkpt lat="34.812202940524024" lon="134.1482341880687"><ele>164.6578588411212</ele><time>2026-08-11T02:12:14Z</time></trkpt>
<trkpt lat="34.81204539247098" lon="134.14812548259619"><ele>171.61544692981988</ele><time>2026-08-11T02:12:31Z</time></trkpt>
<trkpt lat="34.81192326316323" lon="134.14796139214525"><ele>175.90760392788798</ele><time>2026-08-11T02:13:17Z</time></trkpt>
<trkpt lat="34.81173847228972" lon="134.1479612721723"><ele>168.99925634544343</ele><time>2026-08-11T02:13:44Z</time></trkpt>
<trkpt lat="34.811561448329556" lon="134.14803703640678"><ele>157.75312663428485</ele><time>2026-08-11T02:14:08Z</time></trkpt>
<trkpt lat="34.81137230900628" lon="134.1481085505215"><ele>152.94286956638098</ele><time>2026-08-11T02:14:21Z</time></trkpt>
<trkpt lat="34.81118560097317" lon="134.14815209081237"><ele>150.8752091275528</ele><time>2026-08-11T02:14:30Z</time></trkpt>
<trkpt lat="34.81099473402481" lon="134.14812303351783"><ele>150.53269882220775</ele><time>2026-08-11T02:14:38Z</time></trkpt>
<trkpt lat="34.81083925660392" lon="134.14800867057698"><ele>152.56599124148488</ele><time>2026-08-11T02:14:46Z</time></trkpt>
<trkpt lat="34.810686651833144" lon="134.1478803641859"><ele>156.84531053807586</ele><time>2026-08-11T02:14:57Z</time></trkpt>
<trkpt lat="34.81050912556069" lon="134.14780113875813"><ele>158.9520866163075</ele><time>2026-08-11T02:15:09Z</time></trkpt>
<trkpt lat="34.81033572430373" lon="134.1477320026165"><ele>164.18989633768797</ele><time>2026-08-11T02:15:21Z</time></trkpt>
<trkpt lat="34.81017309815771" lon="134.14763499289188"><ele>168.6416593482718</ele><time>2026-08-11T02:15:34Z</time></trkpt>
<trkpt lat="34.8100183742934" lon="134.14751186062304"><ele>171.08294386602938</ele><time>2026-08-11T02:16:19Z</time></trkpt>
<trkpt lat="34.80999623837567" lon="134.14729388157878"><ele>169.08459073211998</ele><time>2026-08-11T02:16:44Z</time></trkpt>
<trkpt lat="34.809990898889396" lon="134.1470675956663"><ele>169.87237207591534</ele><time>2026-08-11T02:17:04Z</time></trkpt>
<trkpt lat="34.8099059665491" lon="134.1468404370789"><ele>172.364614514634</ele><time>2026-08-11T02:17:18Z</time></trkpt>
<trkpt lat="34.8098251879385" lon="134.14663910627874"><ele>174.02892688754946</ele><time>2026-08-11T02:17:27Z</time></trkpt>
<trkpt lat="34.80975239672998" lon="134.1464283606568"><ele>178.68456806056201</ele><time>2026-08-11T02:17:39Z</time></trkpt>
<trkpt lat="34.80955767659281" lon="134.14642196760207"><ele>166.70826186053455</ele><time>2026-08-11T02:18:20Z</time></trkpt>
<trkpt lat="34.80936593533159" lon="134.14646106517088"><ele>166.17090780753642</ele><time>2026-08-11T02:18:29Z</time></trkpt>
<trkpt lat="34.80917895979688" lon="134.14643253333318"><ele>161.02478913310915</ele><time>2026-08-11T02:18:41Z</time></trkpt>
<trkpt lat="34.8090024765315" lon="134.14634271390003"><ele>157.6829050546512</ele><time>2026-08-11T02:18:52Z</time></trkpt>
<trkpt lat="34.80881153534829" lon="134.14631009104818"><ele>151.51948193646967</ele><time>2026-08-11T02:19:06Z</time></trkpt>
<trkpt lat="34.80863188492815" lon="134.1463930054299"><ele>142.49017125926912</ele><time>2026-08-11T02:19:28Z</time></trkpt>
<trkpt lat="34.80844549520342" lon="134.1464346514484"><ele>141.37955947313458</ele><time>2026-08-11T02:19:39Z</time></trkpt>
<trkpt lat="34.808259789984966" lon="134.1464972577644"><ele>145.58395468443632</ele><time>2026-08-11T02:19:53Z</time></trkpt>
<trkpt lat="34.80807917910222" lon="134.1465290734624"><ele>155.47561218123883</ele><time>2026-08-11T02:20:30Z</time></trkpt>
<trkpt lat="34.80790128842983" lon="134.14660681877572"><ele>161.47712658997625</ele><time>2026-08-11T02:21:01Z</time></trkpt>
<trkpt lat="34.80774636165964" lon="134.14673597575518"><ele>163.60464082378894</ele><time>2026-08-11T02:21:21Z</time></trkpt>
<trkpt lat="34.80760855765894" lon="134.14687928830284"><ele>168.10038828011602</ele><time>2026-08-11T02:21:39Z</time></trkpt>
<trkpt lat="34.80746291355226" lon="134.14701374726218"><ele>166.54332468658686</ele><time>2026-08-11T02:21:53Z</time></trkpt>
<trkpt lat="34.80731241383797" lon="134.14714678134771"><ele>164.9923331234604</ele><time>2026-08-11T02:22:01Z</time></trkpt>
<trkpt lat="34.807164573079525" lon="134.1472876200892"><ele>165.07817764114588</ele><time>2026-08-11T02:22:08Z</time></trkpt>
<trkpt lat="34.8069830351346" lon="134.14726001378045"><ele>154.51499173324555</ele><time>2026-08-11T02:22:29Z</time></trkpt>
<trkpt lat="34.80683463304911" lon="134.14711318760496"><ele>141.25294995028526</ele><time>2026-08-11T02:22:59Z</time></trkpt>
<trkpt lat="34.80667190315472" lon="134.1470169177688"><ele>130.20225033722818</ele><time>2026-08-11T02:23:19Z</time></trkpt>
<trkpt lat="34.80649457712273" lon="134.14690134954546"><ele>127.38185380585492</ele><time>2026-08-11T02:23:32Z</time></trkpt>
<trkpt lat="34.80632206824941" lon="134.14697246074715"><ele>128.82195880822837</ele><time>2026-08-11T02:23:42Z</time></trkpt>
<trkpt lat="34.80613220579927" lon="134.14703103655776"><ele>136.48864343483</ele><time>2026-08-11T02:24:08Z</time></trkpt>
<trkpt lat="34.80596368423868" lon="134.147110278963"><ele>144.8563494719565</ele><time>2026-08-11T02:24:49Z</time></trkpt>
<trkpt lat="34.80580240580563" lon="134.14721447337502"><ele>149.2858400279656</ele><time>2026-08-11T02:25:16Z</time></trkpt>
<trkpt lat="34.80563248302865" lon="134.14730373892164"><ele>149.24321315903217</ele><time>2026-08-11T02:25:36Z</time></trkpt>
<trkpt lat="34.80544352660897" lon="134.14736239509182"><ele>144.07765172235668</ele><time>2026-08-11T02:25:49Z</time></trkpt>
<trkpt lat="34.805261106347565" lon="134.14737970389305"><ele>140.19293154217303</ele><time>2026-08-11T02:25:58Z</time></trkpt>
<trkpt lat="34.80508047084326" lon="134.14731653907467"><ele>126.47749778162688</ele><time>2026-08-11T02:26:18Z</time></trkpt>
<trkpt lat="34.80493474864205" lon="134.1471808590995"><ele>125.96017499361187</ele><time>2026-08-11T02:26:27Z</time></trkpt>
<trkpt lat="34.80475162737689" lon="134.14715398309457"><ele>125.97977475449443</ele><time>2026-08-11T02:26:38Z</time></trkpt>
<trkpt lat="34.80456165072865" lon="134.14712747531124"><ele>133.71042022109032</ele><time>2026-08-11T02:27:06Z</time></trkpt>
<trkpt lat="34.804407525327754" lon="134.14726163394369"><ele>129.91426524799317</ele><time>2026-08-11T02:27:21Z</time></trkpt>
<trkpt lat="34.80428439086102" lon="134.14743484536254"><ele>128.867197079584</ele><time>2026-08-11T02:27:30Z</time></trkpt>
<trkpt lat="34.80412503014257" lon="134.14753728153823"><ele>132.94645361509174</ele><time>2026-08-11T02:27:45Z</time></trkpt>
<trkpt lat="34.80397062299869" lon="134.14765305378984"><ele>138.903551094234</ele><time>2026-08-11T02:28:23Z</time></trkpt>
<trkpt lat="34.80378853596871" lon="134.14768274981523"><ele>138.06258705165237</ele><time>2026-08-11T02:28:44Z</time></trkpt>
<trkpt lat="34.80362009390358" lon="134.1475866722217"><ele>133.2746047368273</ele><time>2026-08-11T02:28:58Z</time></trkpt>
<trkpt lat="34.80343206061366" lon="134.14756264357007"><ele>128.91550081316382</ele><time>2026-08-11T02:29:10Z</time></trkpt>
<trkpt lat="34.80325632181791" lon="134.1476292446899"><ele>126.24555460829288</ele><time>2026-08-11T02:29:18Z</time></trkpt>
<trkpt lat="34.80309050883629" lon="134.14776110018985"><ele>126.9508700883016</ele><time>2026-08-11T02:29:25Z</time></trkpt>
<trkpt lat="34.802948974087435" lon="134.14790812690407"><ele>128.98779355268925</ele><time>2026-08-11T02:29:35Z</time></trkpt>
<trkpt lat="34.80276056291085" lon="134.14792902029888"><ele>139.19941246695817</ele><time>2026-08-11T02:30:12Z</time></trkpt>
<trkpt lat="34.80258056533378" lon="134.14787103878055"><ele>145.5160452639684</ele><time>2026-08-11T02:31:20Z</time></trkpt>
<trkpt lat="34.80238715754146" lon="134.14785158691916"><ele>147.21808159537613</ele><time>2026-08-11T02:32:16Z</time></trkpt>
<trkpt lat="34.802199623793975" lon="134.14780778949273"><ele>147.5800736360252</ele><time>2026-08-11T02:32:26Z</time></trkpt>
<trkpt lat="34.802079096857646" lon="134.147970694104"><ele>142.5663887159899</ele><time>2026-08-11T02:32:36Z</time></trkpt>
<trkpt lat="34.8019598316684" lon="134.14814523216373"><ele>141.9379365267232</ele><time>2026-08-11T02:32:44Z</time></trkpt>
<trkpt lat="34.80185923543436" lon="134.1483385398544"><ele>145.0616947626695</ele><time>2026-08-11T02:32:56Z</time></trkpt>
<trkpt lat="34.801767745475324" lon="134.14854184674755"><ele>148.46999598946422</ele><time>2026-08-11T02:33:11Z</time></trkpt>
<trkpt lat="34.80165637627676" lon="134.14872111287477"><ele>148.31117260456085</ele><time>2026-08-11T02:33:33Z</time></trkpt>
<trkpt lat="34.801641955223" lon="134.14894756747134"><ele>156.47741815261543</ele><time>2026-08-11T02:34:07Z</time></trkpt>
<trkpt lat="34.801599659251934" lon="134.14916085556095"><ele>170.17102718167007</ele><time>2026-08-11T02:34:58Z</time></trkpt>
<trkpt lat="34.80146177098779" lon="134.149301654994"><ele>167.97477590013295</ele><time>2026-08-11T02:37:23Z</time></trkpt>
<trkpt lat="34.80141350057506" lon="134.1495233033227"><ele>173.1495128115639</ele><time>2026-08-11T02:37:54Z</time></trkpt>
<trkpt lat="34.801240908637325" lon="134.14961796295788"><ele>164.75359317660332</ele><time>2026-08-11T02:38:39Z</time></trkpt>
<trkpt lat="34.801054192230616" lon="134.14958942057956"><ele>159.95808834396303</ele><time>2026-08-11T02:39:00Z</time></trkpt>
<trkpt lat="34.80092783579482" lon="134.14975017159978"><ele>151.88458925113082</ele><time>2026-08-11T02:39:20Z</time></trkpt>
<trkpt lat="34.80075449778354" lon="134.14982567583056"><ele>141.14697612728924</ele><time>2026-08-11T02:39:43Z</time></trkpt>
<trkpt lat="34.800582639630285" lon="134.1499046681471"><ele>135.5226744869724</ele><time>2026-08-11T02:40:13Z</time></trkpt>
<trkpt lat="34.800424332554556" lon="134.1500377192134"><ele>128.4112139120698</ele><time>2026-08-11T02:40:26Z</time></trkpt>
<trkpt lat="34.80026038314107" lon="134.14993413518965"><ele>122.97297702915967</ele><time>2026-08-11T02:40:44Z</time></trkpt>
<trkpt lat="34.80028164460178" lon="134.1497102138285"><ele>113.2861510431394</ele><time>2026-08-11T02:40:59Z</time></trkpt>
<trkpt lat="34.80034972098253" lon="134.14948785245494"><ele>102.63785287830979</ele><time>2026-08-11T02:41:23Z</time></trkpt>
<trkpt lat="34.800410354408946" lon="134.14928069931702"><ele>96.55867182649672</ele><time>2026-08-11T02:41:52Z</time></trkpt>
<trkpt lat="34.80027920780773" lon="134.14911289061362"><ele>85.53045613784343</ele><time>2026-08-11T02:48:44Z</time></trkpt>
<trkpt lat="34.80026822409191" lon="134.14888339788678"><ele>76.82440977357328</ele><time>2026-08-11T02:49:03Z</time></trkpt>
<trkpt lat="34.800192841509336" lon="134.1486808617689"><ele>65.61535400431603</ele><time>2026-08-11T02:49:30Z</time></trkpt>
<trkpt lat="34.8000537512363" lon="134.14852842194497"><ele>54.547844380140305</ele><time>2026-08-11T02:49:58Z</time></trkpt>
<trkpt lat="34.79992916716283" lon="134.1483636121538"><ele>43.138101044110954</ele><time>2026-08-11T02:50:27Z</time></trkpt>
<trkpt lat="34.79988797317191" lon="134.14813791597348"><ele>42.01550938282162</ele><time>2026-08-11T02:50:42Z</time></trkpt>
<trkpt lat="34.799808291017314" lon="134.14833967079136"><ele>36.390667165629566</ele><time>2026-08-11T02:50:53Z</time></trkpt>
<trkpt lat="34.79966411601065" lon="134.1484728395213"><ele>30.339367360807955</ele><time>2026-08-11T02:51:04Z</time></trkpt>
<trkpt lat="34.79946844888535" lon="134.1484243960596"><ele>25.48126399703324</ele><time>2026-08-11T02:51:19Z</time></trkpt>
<trkpt lat="34.79929160086045" lon="134.14833616018547"><ele>24.551737596280873</ele><time>2026-08-11T02:51:30Z</time></trkpt>
<trkpt lat="34.79910244550549" lon="134.14829518574555"><ele>24.279289193451405</ele><time>2026-08-11T02:51:40Z</time></trkpt>
<trkpt lat="34.79907976014526" lon="134.1480578813806"><ele>27.908139229752123</ele><time>2026-08-11T02:51:50Z</time></trkpt>
<trkpt lat="34.799108396419776" lon="134.14783895750588"><ele>26.16496147029102</ele><time>2026-08-11T02:52:00Z</time></trkpt>
<trkpt lat="34.79912013432387" lon="134.14761044354503"><ele>26.026700511574745</ele><time>2026-08-11T02:52:10Z</time></trkpt>
<trkpt lat="34.79915394203966" lon="134.14739110191235"><ele>24.321620129980147</ele><time>2026-08-11T02:52:19Z</time></trkpt>
<trkpt lat="34.799159761108754" lon="134.14715291606743"><ele>25.846056164242327</ele><time>2026-08-11T02:52:29Z</time></trkpt>
<trkpt lat="34.799189613074205" lon="134.1469212774397"><ele>25.51291002612561</ele><time>2026-08-11T02:52:38Z</time></trkpt>
<trkpt lat="34.79921401947338" lon="134.14669490275983"><ele>25.417619386687875</ele><time>2026-08-11T02:52:48Z</time></trkpt>
<trkpt lat="34.799235053438395" lon="134.14647282336708"><ele>24.093134022317827</ele><time>2026-08-11T02:52:57Z</time></trkpt>
<trkpt lat="34.7992486024149" lon="134.14624112845902"><ele>24.14460474997759</ele><time>2026-08-11T02:53:06Z</time></trkpt>
<trkpt lat="34.79929714296813" lon="134.14600759069725"><ele>23.51033081766218</ele><time>2026-08-11T02:53:15Z</time></trkpt>
<trkpt lat="34.799292420211586" lon="134.1457783604409"><ele>24.330205370672047</ele><time>2026-08-11T02:53:23Z</time></trkpt>
<trkpt lat="34.799300073362474" lon="134.145558150027"><ele>26.294187574647367</ele><time>2026-08-11T02:53:31Z</time></trkpt>
<trkpt lat="34.79933700138851" lon="134.14532550834477"><ele>24.96840125694871</ele><time>2026-08-11T02:53:40Z</time></trkpt>
<trkpt lat="34.79935435929932" lon="134.14510487446233"><ele>27.226051616482437</ele><time>2026-08-11T02:53:48Z</time></trkpt>
<trkpt lat="34.79938608189575" lon="134.14486626669097"><ele>25.917915403842926</ele><time>2026-08-11T02:53:58Z</time></trkpt>
<trkpt lat="34.79956125034205" lon="134.1448145080183"><ele>25.89173220284283</ele><time>2026-08-11T02:54:06Z</time></trkpt>
<trkpt lat="34.79975613322306" lon="134.1447984612655"><ele>24.633477916009724</ele><time>2026-08-11T02:54:15Z</time></trkpt>
<trkpt lat="34.799949833045126" lon="134.1447589404861"><ele>25.633018787018955</ele><time>2026-08-11T02:54:24Z</time></trkpt>
<trkpt lat="34.80014417525924" lon="134.14473390449308"><ele>25.76093907188624</ele><time>2026-08-11T02:54:33Z</time></trkpt>
<trkpt lat="34.80034211602067" lon="134.14471623866964"><ele>25.820049798116088</ele><time>2026-08-11T02:54:42Z</time></trkpt>
<trkpt lat="34.800536348101794" lon="134.1446990634519"><ele>24.013434283435345</ele><time>2026-08-11T02:54:51Z</time></trkpt>
<trkpt lat="34.8007299801894" lon="134.14466841707286"><ele>23.3546004826203</ele><time>2026-08-11T02:55:00Z</time></trkpt>
<trkpt lat="34.80090974614353" lon="134.14463170878045"><ele>23.30941424239427</ele><time>2026-08-11T02:55:08Z</time></trkpt>
<trkpt lat="34.801107047918634" lon="134.1446203359642"><ele>22.858097282238305</ele><time>2026-08-11T02:55:17Z</time></trkpt>
<trkpt lat="34.8012980368544" lon="134.1445889549676"><ele>23.23994615022093</ele><time>2026-08-11T02:55:26Z</time></trkpt>
<trkpt lat="34.8014958526407" lon="134.14457389220766"><ele>25.666057089343667</ele><time>2026-08-11T02:55:35Z</time></trkpt>
<trkpt lat="34.80168555900072" lon="134.14460370455492"><ele>24.0215027006343</ele><time>2026-08-11T02:55:44Z</time></trkpt>
<trkpt lat="34.80186979335593" lon="134.14458817315136"><ele>24.405140763148665</ele><time>2026-08-11T02:55:53Z</time></trkpt>
<trkpt lat="34.802049548814175" lon="134.14453959749585"><ele>25.791281909681857</ele><time>2026-08-11T02:56:02Z</time></trkpt>
<trkpt lat="34.80223877802424" lon="134.14447909510562"><ele>28.062454639934003</ele><time>2026-08-11T02:56:12Z</time></trkpt>
<trkpt lat="34.802420950903475" lon="134.14448062209516"><ele>28.3046365249902</ele><time>2026-08-11T02:56:21Z</time></trkpt>
<trkpt lat="34.80261002613349" lon="134.144498168066"><ele>26.2679678555578</ele><time>2026-08-11T02:56:30Z</time></trkpt>
<trkpt lat="34.80280243751764" lon="134.14448378568682"><ele>26.952261878177524</ele><time>2026-08-11T02:56:39Z</time></trkpt>
<trkpt lat="34.80299808917821" lon="134.14446666204884"><ele>26.104147724807262</ele><time>2026-08-11T02:56:48Z</time></trkpt>
<trkpt lat="34.80318119279682" lon="134.14447250808897"><ele>24.9217622699216</ele><time>2026-08-11T02:56:56Z</time></trkpt>
<trkpt lat="34.803374662454345" lon="134.14446242249772"><ele>24.968664413318038</ele><time>2026-08-11T02:57:05Z</time></trkpt>
<trkpt lat="34.80357199733277" lon="134.14443835045302"><ele>24.875099927186966</ele><time>2026-08-11T02:57:14Z</time></trkpt>
<trkpt lat="34.80376071164614" lon="134.14439497086755"><ele>25.149778223596513</ele><time>2026-08-11T02:57:23Z</time></trkpt>
<trkpt lat="34.803959019269264" lon="134.14436273231004"><ele>24.777816326357424</ele><time>2026-08-11T02:57:32Z</time></trkpt>
<trkpt lat="34.80415395186788" lon="134.14433282234873"><ele>24.03904613945633</ele><time>2026-08-11T02:57:41Z</time></trkpt>
<trkpt lat="34.804340626241206" lon="134.14429553505246"><ele>23.77211646363139</ele><time>2026-08-11T02:57:50Z</time></trkpt>
<trkpt lat="34.80453581718305" lon="134.1442560524102"><ele>24.120285665616393</ele><time>2026-08-11T02:58:00Z</time></trkpt>
<trkpt lat="34.80472018403036" lon="134.14425827290466"><ele>25.27811144758016</ele><time>2026-08-11T02:58:08Z</time></trkpt>
<trkpt lat="34.80490093011795" lon="134.14426928692978"><ele>25.141184250824153</ele><time>2026-08-11T02:58:16Z</time></trkpt>
<trkpt lat="34.805095981161834" lon="134.14424518003042"><ele>24.95495157968253</ele><time>2026-08-11T02:58:24Z</time></trkpt>
<trkpt lat="34.80529778616857" lon="134.14422389320288"><ele>24.454516482539475</ele><time>2026-08-11T02:58:33Z</time></trkpt>
<trkpt lat="34.80549089715968" lon="134.14418791201308"><ele>24.816486326046288</ele><time>2026-08-11T02:58:42Z</time></trkpt>
<trkpt lat="34.80568442523718" lon="134.14416856527083"><ele>24.48182421270758</ele><time>2026-08-11T02:58:50Z</time></trkpt>
<trkpt lat="34.80587529257182" lon="134.14414565440453"><ele>25.24976873677224</ele><time>2026-08-11T02:58:59Z</time></trkpt>
<trkpt lat="34.80607529438504" lon="134.1441263279258"><ele>24.903815320692956</ele><time>2026-08-11T02:59:08Z</time></trkpt>
<trkpt lat="34.806260123623204" lon="134.14409419251805"><ele>25.905392538756132</ele><time>2026-08-11T02:59:16Z</time></trkpt>
<trkpt lat="34.80644757184679" lon="134.14408114460775"><ele>25.109917762689292</ele><time>2026-08-11T02:59:23Z</time></trkpt>
<trkpt lat="34.80663870248331" lon="134.14406410993774"><ele>25.05165731627494</ele><time>2026-08-11T02:59:31Z</time></trkpt>
<trkpt lat="34.80682519180206" lon="134.1440267284358"><ele>25.76759459171444</ele><time>2026-08-11T02:59:39Z</time></trkpt>
<trkpt lat="34.80701464211693" lon="134.14402332592138"><ele>25.35938728135079</ele><time>2026-08-11T02:59:47Z</time></trkpt>
<trkpt lat="34.80719711795838" lon="134.14398279176294"><ele>25.62064277846366</ele><time>2026-08-11T02:59:54Z</time></trkpt>
<trkpt lat="34.807394410316945" lon="134.14396969359717"><ele>26.535407188348472</ele><time>2026-08-11T03:00:02Z</time></trkpt>
<trkpt lat="34.807584076682964" lon="134.1439482748132"><ele>26.531580827198923</ele><time>2026-08-11T03:00:10Z</time></trkpt>
<trkpt lat="34.807766466128115" lon="134.14392619436796"><ele>24.007569364272058</ele><time>2026-08-11T03:00:18Z</time></trkpt>
<trkpt lat="34.80794987550386" lon="134.14388909152532"><ele>26.11923381034285</ele><time>2026-08-11T03:00:25Z</time></trkpt>
<trkpt lat="34.808130166600805" lon="134.14386665054502"><ele>25.308486274443567</ele><time>2026-08-11T03:00:33Z</time></trkpt>
<trkpt lat="34.80831357180149" lon="134.14383195505158"><ele>25.5075825760141</ele><time>2026-08-11T03:00:41Z</time></trkpt>
<trkpt lat="34.80849370939671" lon="134.14379600610212"><ele>26.04556657280773</ele><time>2026-08-11T03:00:49Z</time></trkpt>
<trkpt lat="34.80867473373991" lon="134.14374300010817"><ele>26.805365695618093</ele><time>2026-08-11T03:00:57Z</time></trkpt>
<trkpt lat="34.80886930810423" lon="134.14369913937543"><ele>26.040919482707977</ele><time>2026-08-11T03:01:06Z</time></trkpt>
<trkpt lat="34.80905166017009" lon="134.14364057884518"><ele>26.501556945964694</ele><time>2026-08-11T03:01:15Z</time></trkpt>
<trkpt lat="34.80922841179524" lon="134.14358183216467"><ele>26.548273097723722</ele><time>2026-08-11T03:01:24Z</time></trkpt>
<trkpt lat="34.809403655414336" lon="134.14347829809935"><ele>29.01073782891035</ele><time>2026-08-11T03:01:35Z</time></trkpt>
<trkpt lat="34.809572648109935" lon="134.14337759212785"><ele>28.287361823953688</ele><time>2026-08-11T03:01:51Z</time></trkpt>
<trkpt lat="34.809764000380525" lon="134.1433359366337"><ele>27.636764369904995</ele><time>2026-08-11T03:02:08Z</time></trkpt>
<trkpt lat="34.809953007866945" lon="134.14325905305412"><ele>26.841662391088903</ele><time>2026-08-11T03:02:18Z</time></trkpt>
<trkpt lat="34.8101451332928" lon="134.14315461490355"><ele>26.377179236151278</ele><time>2026-08-11T03:02:25Z</time></trkpt>
<trkpt lat="34.81032660825413" lon="134.1430672061579"><ele>25.743304040282965</ele><time>2026-08-11T03:02:32Z</time></trkpt>
<trkpt lat="34.81049252612438" lon="134.1429813112788"><ele>25.729489081539214</ele><time>2026-08-11T03:02:38Z</time></trkpt>
<trkpt lat="34.81065988226032" lon="134.14289870769142"><ele>25.334729452617466</ele><time>2026-08-11T03:02:44Z</time></trkpt>
<trkpt lat="34.810838715058246" lon="134.14282093646827"><ele>25.164801083505154</ele><time>2026-08-11T03:02:51Z</time></trkpt>
<trkpt lat="34.81104049754265" lon="134.142735697914"><ele>25.449353360570967</ele><time>2026-08-11T03:02:58Z</time></trkpt>
<trkpt lat="34.81121983123816" lon="134.14267853808752"><ele>24.794848521240056</ele><time>2026-08-11T03:03:05Z</time></trkpt>
<trkpt lat="34.81141162205092" lon="134.1427505876935"><ele>26.271253461949527</ele><time>2026-08-11T03:03:13Z</time></trkpt>
<trkpt lat="34.81158780820661" lon="134.1428444334034"><ele>25.723375532776117</ele><time>2026-08-11T03:03:21Z</time></trkpt>
<trkpt lat="34.81170191028784" lon="134.1430399274476"><ele>25.269611414521933</ele><time>2026-08-11T03:03:29Z</time></trkpt>
<trkpt lat="34.81168735037542" lon="134.14315034159716"><ele>23.014598145149648</ele><time>2026-08-11T03:04:00Z</time></trkpt>
</trkseg></trk></gpx>